<?xml version="1.0" encoding="UTF-8" standalone="no" ?>
<gpx xmlns="http://www.topografix.com/GPX/1/1" xmlns:xsi="http://www.w3.org/2001/XMLSchema-instance" xsi:schemaLocation="http://www.topografix.com/GPX/1/1 http://www.topografix.com/GPX/1/1/gpx.xsd" version="1.1" creator="VisuGPX - https://www.visugpx.com">
  <metadata>
    <name>Orvault</name>
    <desc><![CDATA[sortie amicale]]></desc>
  </metadata>
  <trk>
    <name><![CDATA[2012-01-26-01]]></name>
    <trkseg>
      <trkpt lat="47.25318" lon="-1.58796">
        <ele>25.8</ele>
        <time>2012-01-26T13:15:26Z</time>
      </trkpt>
      <trkpt lat="47.2532" lon="-1.5878">
        <ele>25</ele>
        <time>2012-01-26T13:15:37Z</time>
      </trkpt>
      <trkpt lat="47.25323" lon="-1.58773">
        <ele>25.8</ele>
        <time>2012-01-26T13:15:44Z</time>
      </trkpt>
      <trkpt lat="47.2534" lon="-1.58739">
        <ele>25</ele>
        <time>2012-01-26T13:16:10Z</time>
      </trkpt>
      <trkpt lat="47.25347" lon="-1.58729">
        <ele>23</ele>
        <time>2012-01-26T13:16:23Z</time>
      </trkpt>
      <trkpt lat="47.25352" lon="-1.58726">
        <ele>23</ele>
        <time>2012-01-26T13:16:34Z</time>
      </trkpt>
      <trkpt lat="47.25353" lon="-1.58719">
        <ele>23</ele>
        <time>2012-01-26T13:16:46Z</time>
      </trkpt>
      <trkpt lat="47.25353" lon="-1.58718">
        <ele>24</ele>
        <time>2012-01-26T13:16:47Z</time>
      </trkpt>
      <trkpt lat="47.25362" lon="-1.58707">
        <ele>24</ele>
        <time>2012-01-26T13:16:59Z</time>
      </trkpt>
      <trkpt lat="47.25368" lon="-1.58702">
        <ele>24</ele>
        <time>2012-01-26T13:17:07Z</time>
      </trkpt>
      <trkpt lat="47.25373" lon="-1.58697">
        <ele>23</ele>
        <time>2012-01-26T13:17:15Z</time>
      </trkpt>
      <trkpt lat="47.25376" lon="-1.58691">
        <ele>21</ele>
        <time>2012-01-26T13:17:27Z</time>
      </trkpt>
      <trkpt lat="47.25382" lon="-1.58688">
        <ele>22</ele>
        <time>2012-01-26T13:17:35Z</time>
      </trkpt>
      <trkpt lat="47.25386" lon="-1.58681">
        <ele>22</ele>
        <time>2012-01-26T13:17:43Z</time>
      </trkpt>
      <trkpt lat="47.25392" lon="-1.58676">
        <ele>21</ele>
        <time>2012-01-26T13:17:51Z</time>
      </trkpt>
      <trkpt lat="47.25394" lon="-1.58675">
        <ele>21.8</ele>
        <time>2012-01-26T13:17:53Z</time>
      </trkpt>
      <trkpt lat="47.25405" lon="-1.58669">
        <ele>19</ele>
        <time>2012-01-26T13:18:11Z</time>
      </trkpt>
      <trkpt lat="47.25409" lon="-1.58665">
        <ele>21</ele>
        <time>2012-01-26T13:18:19Z</time>
      </trkpt>
      <trkpt lat="47.25411" lon="-1.58658">
        <ele>24</ele>
        <time>2012-01-26T13:18:27Z</time>
      </trkpt>
      <trkpt lat="47.25415" lon="-1.58655">
        <ele>25.8</ele>
        <time>2012-01-26T13:18:33Z</time>
      </trkpt>
      <trkpt lat="47.25419" lon="-1.58652">
        <ele>26.8</ele>
        <time>2012-01-26T13:18:38Z</time>
      </trkpt>
      <trkpt lat="47.25422" lon="-1.58648">
        <ele>27.7</ele>
        <time>2012-01-26T13:18:43Z</time>
      </trkpt>
      <trkpt lat="47.25426" lon="-1.58645">
        <ele>28.7</ele>
        <time>2012-01-26T13:18:47Z</time>
      </trkpt>
      <trkpt lat="47.25429" lon="-1.58641">
        <ele>30.1</ele>
        <time>2012-01-26T13:18:51Z</time>
      </trkpt>
      <trkpt lat="47.25432" lon="-1.58637">
        <ele>31.2</ele>
        <time>2012-01-26T13:18:55Z</time>
      </trkpt>
      <trkpt lat="47.25433" lon="-1.58636">
        <ele>31.6</ele>
        <time>2012-01-26T13:18:56Z</time>
      </trkpt>
      <trkpt lat="47.25438" lon="-1.58629">
        <ele>33.2</ele>
        <time>2012-01-26T13:19:03Z</time>
      </trkpt>
      <trkpt lat="47.25441" lon="-1.58625">
        <ele>34.2</ele>
        <time>2012-01-26T13:19:08Z</time>
      </trkpt>
      <trkpt lat="47.25444" lon="-1.58621">
        <ele>34.5</ele>
        <time>2012-01-26T13:19:12Z</time>
      </trkpt>
      <trkpt lat="47.25447" lon="-1.58616">
        <ele>34.4</ele>
        <time>2012-01-26T13:19:17Z</time>
      </trkpt>
      <trkpt lat="47.2545" lon="-1.58612">
        <ele>34.2</ele>
        <time>2012-01-26T13:19:21Z</time>
      </trkpt>
      <trkpt lat="47.25452" lon="-1.58608">
        <ele>34.2</ele>
        <time>2012-01-26T13:19:25Z</time>
      </trkpt>
      <trkpt lat="47.25454" lon="-1.58602">
        <ele>34.2</ele>
        <time>2012-01-26T13:19:29Z</time>
      </trkpt>
      <trkpt lat="47.25457" lon="-1.58597">
        <ele>34</ele>
        <time>2012-01-26T13:19:33Z</time>
      </trkpt>
      <trkpt lat="47.2546" lon="-1.58595">
        <ele>34.5</ele>
        <time>2012-01-26T13:19:36Z</time>
      </trkpt>
      <trkpt lat="47.25462" lon="-1.58591">
        <ele>35.5</ele>
        <time>2012-01-26T13:19:39Z</time>
      </trkpt>
      <trkpt lat="47.25465" lon="-1.58588">
        <ele>36.5</ele>
        <time>2012-01-26T13:19:42Z</time>
      </trkpt>
      <trkpt lat="47.25469" lon="-1.58584">
        <ele>37.5</ele>
        <time>2012-01-26T13:19:46Z</time>
      </trkpt>
      <trkpt lat="47.25471" lon="-1.58579">
        <ele>38.4</ele>
        <time>2012-01-26T13:19:50Z</time>
      </trkpt>
      <trkpt lat="47.25472" lon="-1.58572">
        <ele>38.2</ele>
        <time>2012-01-26T13:19:56Z</time>
      </trkpt>
      <trkpt lat="47.25471" lon="-1.58571">
        <ele>38</ele>
        <time>2012-01-26T13:19:57Z</time>
      </trkpt>
      <trkpt lat="47.2547" lon="-1.58561">
        <ele>37</ele>
        <time>2012-01-26T13:20:03Z</time>
      </trkpt>
      <trkpt lat="47.25469" lon="-1.58556">
        <ele>36.5</ele>
        <time>2012-01-26T13:20:06Z</time>
      </trkpt>
      <trkpt lat="47.25469" lon="-1.58551">
        <ele>36.2</ele>
        <time>2012-01-26T13:20:09Z</time>
      </trkpt>
      <trkpt lat="47.25469" lon="-1.58546">
        <ele>36</ele>
        <time>2012-01-26T13:20:12Z</time>
      </trkpt>
      <trkpt lat="47.2547" lon="-1.58541">
        <ele>36</ele>
        <time>2012-01-26T13:20:15Z</time>
      </trkpt>
      <trkpt lat="47.25473" lon="-1.58536">
        <ele>36.4</ele>
        <time>2012-01-26T13:20:19Z</time>
      </trkpt>
      <trkpt lat="47.25475" lon="-1.58532">
        <ele>36.5</ele>
        <time>2012-01-26T13:20:22Z</time>
      </trkpt>
      <trkpt lat="47.25478" lon="-1.58528">
        <ele>36.7</ele>
        <time>2012-01-26T13:20:26Z</time>
      </trkpt>
      <trkpt lat="47.25481" lon="-1.58524">
        <ele>36.2</ele>
        <time>2012-01-26T13:20:30Z</time>
      </trkpt>
      <trkpt lat="47.25484" lon="-1.58521">
        <ele>36</ele>
        <time>2012-01-26T13:20:33Z</time>
      </trkpt>
      <trkpt lat="47.25488" lon="-1.58519">
        <ele>36.2</ele>
        <time>2012-01-26T13:20:36Z</time>
      </trkpt>
      <trkpt lat="47.25492" lon="-1.58517">
        <ele>36.4</ele>
        <time>2012-01-26T13:20:39Z</time>
      </trkpt>
      <trkpt lat="47.25495" lon="-1.58516">
        <ele>36.5</ele>
        <time>2012-01-26T13:20:42Z</time>
      </trkpt>
      <trkpt lat="47.25499" lon="-1.58515">
        <ele>36.9</ele>
        <time>2012-01-26T13:20:45Z</time>
      </trkpt>
      <trkpt lat="47.25502" lon="-1.58514">
        <ele>37</ele>
        <time>2012-01-26T13:20:48Z</time>
      </trkpt>
      <trkpt lat="47.25507" lon="-1.58513">
        <ele>37</ele>
        <time>2012-01-26T13:20:53Z</time>
      </trkpt>
      <trkpt lat="47.2551" lon="-1.58513">
        <ele>36.2</ele>
        <time>2012-01-26T13:20:57Z</time>
      </trkpt>
      <trkpt lat="47.25511" lon="-1.58512">
        <ele>36</ele>
        <time>2012-01-26T13:20:58Z</time>
      </trkpt>
      <trkpt lat="47.25517" lon="-1.58511">
        <ele>34.5</ele>
        <time>2012-01-26T13:21:05Z</time>
      </trkpt>
      <trkpt lat="47.25521" lon="-1.58509">
        <ele>33.9</ele>
        <time>2012-01-26T13:21:09Z</time>
      </trkpt>
      <trkpt lat="47.25525" lon="-1.58508">
        <ele>33.5</ele>
        <time>2012-01-26T13:21:14Z</time>
      </trkpt>
      <trkpt lat="47.25529" lon="-1.5851">
        <ele>33.5</ele>
        <time>2012-01-26T13:21:19Z</time>
      </trkpt>
      <trkpt lat="47.25533" lon="-1.5851">
        <ele>33.2</ele>
        <time>2012-01-26T13:21:23Z</time>
      </trkpt>
      <trkpt lat="47.25537" lon="-1.58509">
        <ele>32</ele>
        <time>2012-01-26T13:21:28Z</time>
      </trkpt>
      <trkpt lat="47.25541" lon="-1.58508">
        <ele>31.2</ele>
        <time>2012-01-26T13:21:32Z</time>
      </trkpt>
      <trkpt lat="47.25545" lon="-1.58507">
        <ele>30.8</ele>
        <time>2012-01-26T13:21:35Z</time>
      </trkpt>
      <trkpt lat="47.25549" lon="-1.58506">
        <ele>30.2</ele>
        <time>2012-01-26T13:21:39Z</time>
      </trkpt>
      <trkpt lat="47.25553" lon="-1.58505">
        <ele>30</ele>
        <time>2012-01-26T13:21:42Z</time>
      </trkpt>
      <trkpt lat="47.25556" lon="-1.58504">
        <ele>29.8</ele>
        <time>2012-01-26T13:21:45Z</time>
      </trkpt>
      <trkpt lat="47.2556" lon="-1.58503">
        <ele>29.7</ele>
        <time>2012-01-26T13:21:48Z</time>
      </trkpt>
      <trkpt lat="47.25564" lon="-1.58502">
        <ele>29.3</ele>
        <time>2012-01-26T13:21:52Z</time>
      </trkpt>
      <trkpt lat="47.25568" lon="-1.585">
        <ele>29.1</ele>
        <time>2012-01-26T13:21:56Z</time>
      </trkpt>
      <trkpt lat="47.25572" lon="-1.58498">
        <ele>28.7</ele>
        <time>2012-01-26T13:22:00Z</time>
      </trkpt>
      <trkpt lat="47.25573" lon="-1.58498">
        <ele>28.7</ele>
        <time>2012-01-26T13:22:01Z</time>
      </trkpt>
      <trkpt lat="47.2558" lon="-1.58496">
        <ele>28.3</ele>
        <time>2012-01-26T13:22:07Z</time>
      </trkpt>
      <trkpt lat="47.25583" lon="-1.58494">
        <ele>28.1</ele>
        <time>2012-01-26T13:22:10Z</time>
      </trkpt>
      <trkpt lat="47.25588" lon="-1.58493">
        <ele>27.7</ele>
        <time>2012-01-26T13:22:14Z</time>
      </trkpt>
      <trkpt lat="47.25592" lon="-1.58492">
        <ele>27.2</ele>
        <time>2012-01-26T13:22:18Z</time>
      </trkpt>
      <trkpt lat="47.25596" lon="-1.5849">
        <ele>26.7</ele>
        <time>2012-01-26T13:22:22Z</time>
      </trkpt>
      <trkpt lat="47.256" lon="-1.58489">
        <ele>26</ele>
        <time>2012-01-26T13:22:26Z</time>
      </trkpt>
      <trkpt lat="47.25604" lon="-1.58487">
        <ele>25.6</ele>
        <time>2012-01-26T13:22:30Z</time>
      </trkpt>
      <trkpt lat="47.25608" lon="-1.58487">
        <ele>25.3</ele>
        <time>2012-01-26T13:22:34Z</time>
      </trkpt>
      <trkpt lat="47.25611" lon="-1.58486">
        <ele>25.3</ele>
        <time>2012-01-26T13:22:37Z</time>
      </trkpt>
      <trkpt lat="47.25615" lon="-1.58485">
        <ele>25.7</ele>
        <time>2012-01-26T13:22:41Z</time>
      </trkpt>
      <trkpt lat="47.25619" lon="-1.58484">
        <ele>25.7</ele>
        <time>2012-01-26T13:22:44Z</time>
      </trkpt>
      <trkpt lat="47.25622" lon="-1.58483">
        <ele>25.7</ele>
        <time>2012-01-26T13:22:48Z</time>
      </trkpt>
      <trkpt lat="47.25626" lon="-1.58482">
        <ele>25.2</ele>
        <time>2012-01-26T13:22:52Z</time>
      </trkpt>
      <trkpt lat="47.2563" lon="-1.58481">
        <ele>24.8</ele>
        <time>2012-01-26T13:22:56Z</time>
      </trkpt>
      <trkpt lat="47.25634" lon="-1.5848">
        <ele>24.5</ele>
        <time>2012-01-26T13:23:00Z</time>
      </trkpt>
      <trkpt lat="47.25638" lon="-1.58477">
        <ele>24.2</ele>
        <time>2012-01-26T13:23:04Z</time>
      </trkpt>
      <trkpt lat="47.25639" lon="-1.58477">
        <ele>24.2</ele>
        <time>2012-01-26T13:23:05Z</time>
      </trkpt>
      <trkpt lat="47.25646" lon="-1.58474">
        <ele>24.5</ele>
        <time>2012-01-26T13:23:11Z</time>
      </trkpt>
      <trkpt lat="47.2565" lon="-1.58471">
        <ele>24.7</ele>
        <time>2012-01-26T13:23:15Z</time>
      </trkpt>
      <trkpt lat="47.25654" lon="-1.58469">
        <ele>24.5</ele>
        <time>2012-01-26T13:23:19Z</time>
      </trkpt>
      <trkpt lat="47.25657" lon="-1.58467">
        <ele>34.5</ele>
        <time>2012-01-26T13:23:22Z</time>
      </trkpt>
      <trkpt lat="47.2566" lon="-1.58465">
        <ele>39.7</ele>
        <time>2012-01-26T13:23:26Z</time>
      </trkpt>
      <trkpt lat="47.25664" lon="-1.58462">
        <ele>41.9</ele>
        <time>2012-01-26T13:23:30Z</time>
      </trkpt>
      <trkpt lat="47.25668" lon="-1.5846">
        <ele>42.2</ele>
        <time>2012-01-26T13:23:34Z</time>
      </trkpt>
      <trkpt lat="47.25672" lon="-1.58457">
        <ele>42.5</ele>
        <time>2012-01-26T13:23:38Z</time>
      </trkpt>
      <trkpt lat="47.25675" lon="-1.58455">
        <ele>42.7</ele>
        <time>2012-01-26T13:23:41Z</time>
      </trkpt>
      <trkpt lat="47.25678" lon="-1.58451">
        <ele>42.7</ele>
        <time>2012-01-26T13:23:44Z</time>
      </trkpt>
      <trkpt lat="47.25681" lon="-1.58449">
        <ele>43</ele>
        <time>2012-01-26T13:23:47Z</time>
      </trkpt>
      <trkpt lat="47.25684" lon="-1.58446">
        <ele>43.4</ele>
        <time>2012-01-26T13:23:51Z</time>
      </trkpt>
      <trkpt lat="47.25688" lon="-1.58442">
        <ele>43.5</ele>
        <time>2012-01-26T13:23:55Z</time>
      </trkpt>
      <trkpt lat="47.2569" lon="-1.5844">
        <ele>42.9</ele>
        <time>2012-01-26T13:23:58Z</time>
      </trkpt>
      <trkpt lat="47.25693" lon="-1.58437">
        <ele>43</ele>
        <time>2012-01-26T13:24:01Z</time>
      </trkpt>
      <trkpt lat="47.25697" lon="-1.58434">
        <ele>43.5</ele>
        <time>2012-01-26T13:24:04Z</time>
      </trkpt>
      <trkpt lat="47.257" lon="-1.58431">
        <ele>43.9</ele>
        <time>2012-01-26T13:24:07Z</time>
      </trkpt>
      <trkpt lat="47.25701" lon="-1.5843">
        <ele>44</ele>
        <time>2012-01-26T13:24:08Z</time>
      </trkpt>
      <trkpt lat="47.25706" lon="-1.58425">
        <ele>43.7</ele>
        <time>2012-01-26T13:24:14Z</time>
      </trkpt>
      <trkpt lat="47.25709" lon="-1.58422">
        <ele>44.2</ele>
        <time>2012-01-26T13:24:17Z</time>
      </trkpt>
      <trkpt lat="47.25712" lon="-1.58418">
        <ele>44</ele>
        <time>2012-01-26T13:24:21Z</time>
      </trkpt>
      <trkpt lat="47.25716" lon="-1.58415">
        <ele>44</ele>
        <time>2012-01-26T13:24:25Z</time>
      </trkpt>
      <trkpt lat="47.25719" lon="-1.58412">
        <ele>44.2</ele>
        <time>2012-01-26T13:24:28Z</time>
      </trkpt>
      <trkpt lat="47.25722" lon="-1.58408">
        <ele>45</ele>
        <time>2012-01-26T13:24:32Z</time>
      </trkpt>
      <trkpt lat="47.25726" lon="-1.58404">
        <ele>45.2</ele>
        <time>2012-01-26T13:24:36Z</time>
      </trkpt>
      <trkpt lat="47.25728" lon="-1.58401">
        <ele>45.4</ele>
        <time>2012-01-26T13:24:39Z</time>
      </trkpt>
      <trkpt lat="47.25731" lon="-1.58397">
        <ele>45.5</ele>
        <time>2012-01-26T13:24:42Z</time>
      </trkpt>
      <trkpt lat="47.25734" lon="-1.58393">
        <ele>45</ele>
        <time>2012-01-26T13:24:46Z</time>
      </trkpt>
      <trkpt lat="47.25738" lon="-1.58389">
        <ele>46.4</ele>
        <time>2012-01-26T13:24:50Z</time>
      </trkpt>
      <trkpt lat="47.2574" lon="-1.58385">
        <ele>45.4</ele>
        <time>2012-01-26T13:24:53Z</time>
      </trkpt>
      <trkpt lat="47.25743" lon="-1.5838">
        <ele>46</ele>
        <time>2012-01-26T13:24:57Z</time>
      </trkpt>
      <trkpt lat="47.25747" lon="-1.58376">
        <ele>46</ele>
        <time>2012-01-26T13:25:01Z</time>
      </trkpt>
      <trkpt lat="47.25749" lon="-1.58373">
        <ele>45.7</ele>
        <time>2012-01-26T13:25:04Z</time>
      </trkpt>
      <trkpt lat="47.25752" lon="-1.58369">
        <ele>45.5</ele>
        <time>2012-01-26T13:25:07Z</time>
      </trkpt>
      <trkpt lat="47.25755" lon="-1.58364">
        <ele>46.2</ele>
        <time>2012-01-26T13:25:11Z</time>
      </trkpt>
      <trkpt lat="47.25755" lon="-1.58363">
        <ele>46.5</ele>
        <time>2012-01-26T13:25:12Z</time>
      </trkpt>
      <trkpt lat="47.2576" lon="-1.58355">
        <ele>46.7</ele>
        <time>2012-01-26T13:25:19Z</time>
      </trkpt>
      <trkpt lat="47.25763" lon="-1.58351">
        <ele>46.9</ele>
        <time>2012-01-26T13:25:23Z</time>
      </trkpt>
      <trkpt lat="47.25766" lon="-1.58347">
        <ele>47.5</ele>
        <time>2012-01-26T13:25:27Z</time>
      </trkpt>
      <trkpt lat="47.25769" lon="-1.58342">
        <ele>47.7</ele>
        <time>2012-01-26T13:25:31Z</time>
      </trkpt>
      <trkpt lat="47.25772" lon="-1.58338">
        <ele>47.4</ele>
        <time>2012-01-26T13:25:35Z</time>
      </trkpt>
      <trkpt lat="47.25775" lon="-1.58334">
        <ele>47.2</ele>
        <time>2012-01-26T13:25:39Z</time>
      </trkpt>
      <trkpt lat="47.25778" lon="-1.5833">
        <ele>47.4</ele>
        <time>2012-01-26T13:25:42Z</time>
      </trkpt>
      <trkpt lat="47.25781" lon="-1.58326">
        <ele>47.5</ele>
        <time>2012-01-26T13:25:46Z</time>
      </trkpt>
      <trkpt lat="47.25783" lon="-1.58322">
        <ele>48</ele>
        <time>2012-01-26T13:25:49Z</time>
      </trkpt>
      <trkpt lat="47.25785" lon="-1.58318">
        <ele>48.2</ele>
        <time>2012-01-26T13:25:52Z</time>
      </trkpt>
      <trkpt lat="47.25787" lon="-1.58313">
        <ele>48.2</ele>
        <time>2012-01-26T13:25:56Z</time>
      </trkpt>
      <trkpt lat="47.2579" lon="-1.58309">
        <ele>48.5</ele>
        <time>2012-01-26T13:25:59Z</time>
      </trkpt>
      <trkpt lat="47.25792" lon="-1.58304">
        <ele>48</ele>
        <time>2012-01-26T13:26:02Z</time>
      </trkpt>
      <trkpt lat="47.25794" lon="-1.583">
        <ele>48.2</ele>
        <time>2012-01-26T13:26:05Z</time>
      </trkpt>
      <trkpt lat="47.25797" lon="-1.58296">
        <ele>48.7</ele>
        <time>2012-01-26T13:26:08Z</time>
      </trkpt>
      <trkpt lat="47.25799" lon="-1.58292">
        <ele>48.9</ele>
        <time>2012-01-26T13:26:11Z</time>
      </trkpt>
      <trkpt lat="47.25802" lon="-1.58288">
        <ele>48.4</ele>
        <time>2012-01-26T13:26:14Z</time>
      </trkpt>
      <trkpt lat="47.25803" lon="-1.58286">
        <ele>48.2</ele>
        <time>2012-01-26T13:26:15Z</time>
      </trkpt>
      <trkpt lat="47.25807" lon="-1.58279">
        <ele>48.5</ele>
        <time>2012-01-26T13:26:20Z</time>
      </trkpt>
      <trkpt lat="47.2581" lon="-1.58274">
        <ele>48.7</ele>
        <time>2012-01-26T13:26:23Z</time>
      </trkpt>
      <trkpt lat="47.25812" lon="-1.58271">
        <ele>48.7</ele>
        <time>2012-01-26T13:26:26Z</time>
      </trkpt>
      <trkpt lat="47.25815" lon="-1.58266">
        <ele>48</ele>
        <time>2012-01-26T13:26:29Z</time>
      </trkpt>
      <trkpt lat="47.25817" lon="-1.58261">
        <ele>47.5</ele>
        <time>2012-01-26T13:26:33Z</time>
      </trkpt>
      <trkpt lat="47.2582" lon="-1.58257">
        <ele>48.4</ele>
        <time>2012-01-26T13:26:36Z</time>
      </trkpt>
      <trkpt lat="47.25823" lon="-1.58253">
        <ele>48.2</ele>
        <time>2012-01-26T13:26:39Z</time>
      </trkpt>
      <trkpt lat="47.25825" lon="-1.58249">
        <ele>48</ele>
        <time>2012-01-26T13:26:42Z</time>
      </trkpt>
      <trkpt lat="47.25828" lon="-1.58245">
        <ele>48.2</ele>
        <time>2012-01-26T13:26:45Z</time>
      </trkpt>
      <trkpt lat="47.25831" lon="-1.58241">
        <ele>48.7</ele>
        <time>2012-01-26T13:26:48Z</time>
      </trkpt>
      <trkpt lat="47.25834" lon="-1.58236">
        <ele>48.5</ele>
        <time>2012-01-26T13:26:51Z</time>
      </trkpt>
      <trkpt lat="47.25836" lon="-1.58231">
        <ele>48.4</ele>
        <time>2012-01-26T13:26:54Z</time>
      </trkpt>
      <trkpt lat="47.25838" lon="-1.58227">
        <ele>48.7</ele>
        <time>2012-01-26T13:26:57Z</time>
      </trkpt>
      <trkpt lat="47.25841" lon="-1.58224">
        <ele>48.5</ele>
        <time>2012-01-26T13:27:00Z</time>
      </trkpt>
      <trkpt lat="47.25843" lon="-1.58219">
        <ele>48.7</ele>
        <time>2012-01-26T13:27:03Z</time>
      </trkpt>
      <trkpt lat="47.25846" lon="-1.58215">
        <ele>48.5</ele>
        <time>2012-01-26T13:27:06Z</time>
      </trkpt>
      <trkpt lat="47.25848" lon="-1.5821">
        <ele>49.2</ele>
        <time>2012-01-26T13:27:10Z</time>
      </trkpt>
      <trkpt lat="47.25851" lon="-1.58206">
        <ele>49.4</ele>
        <time>2012-01-26T13:27:14Z</time>
      </trkpt>
      <trkpt lat="47.25854" lon="-1.58201">
        <ele>49.2</ele>
        <time>2012-01-26T13:27:18Z</time>
      </trkpt>
      <trkpt lat="47.25855" lon="-1.58199">
        <ele>49</ele>
        <time>2012-01-26T13:27:19Z</time>
      </trkpt>
      <trkpt lat="47.25859" lon="-1.58193">
        <ele>48.7</ele>
        <time>2012-01-26T13:27:25Z</time>
      </trkpt>
      <trkpt lat="47.25862" lon="-1.58189">
        <ele>48.7</ele>
        <time>2012-01-26T13:27:28Z</time>
      </trkpt>
      <trkpt lat="47.25864" lon="-1.58185">
        <ele>48.5</ele>
        <time>2012-01-26T13:27:32Z</time>
      </trkpt>
      <trkpt lat="47.25867" lon="-1.5818">
        <ele>48.5</ele>
        <time>2012-01-26T13:27:36Z</time>
      </trkpt>
      <trkpt lat="47.25871" lon="-1.58178">
        <ele>48.9</ele>
        <time>2012-01-26T13:27:42Z</time>
      </trkpt>
      <trkpt lat="47.25875" lon="-1.58182">
        <ele>48.2</ele>
        <time>2012-01-26T13:27:47Z</time>
      </trkpt>
      <trkpt lat="47.25877" lon="-1.58187">
        <ele>48.2</ele>
        <time>2012-01-26T13:27:51Z</time>
      </trkpt>
      <trkpt lat="47.25879" lon="-1.58192">
        <ele>48.7</ele>
        <time>2012-01-26T13:27:55Z</time>
      </trkpt>
      <trkpt lat="47.25882" lon="-1.58197">
        <ele>49</ele>
        <time>2012-01-26T13:27:59Z</time>
      </trkpt>
      <trkpt lat="47.25883" lon="-1.58202">
        <ele>48.7</ele>
        <time>2012-01-26T13:28:02Z</time>
      </trkpt>
      <trkpt lat="47.25884" lon="-1.58208">
        <ele>48.5</ele>
        <time>2012-01-26T13:28:06Z</time>
      </trkpt>
      <trkpt lat="47.25885" lon="-1.58213">
        <ele>48.5</ele>
        <time>2012-01-26T13:28:10Z</time>
      </trkpt>
      <trkpt lat="47.25886" lon="-1.5822">
        <ele>48.5</ele>
        <time>2012-01-26T13:28:14Z</time>
      </trkpt>
      <trkpt lat="47.25888" lon="-1.58225">
        <ele>48.7</ele>
        <time>2012-01-26T13:28:18Z</time>
      </trkpt>
      <trkpt lat="47.25889" lon="-1.58231">
        <ele>48.7</ele>
        <time>2012-01-26T13:28:22Z</time>
      </trkpt>
      <trkpt lat="47.25889" lon="-1.58232">
        <ele>48.5</ele>
        <time>2012-01-26T13:28:23Z</time>
      </trkpt>
      <trkpt lat="47.25891" lon="-1.58242">
        <ele>48.5</ele>
        <time>2012-01-26T13:28:29Z</time>
      </trkpt>
      <trkpt lat="47.25892" lon="-1.58248">
        <ele>48</ele>
        <time>2012-01-26T13:28:33Z</time>
      </trkpt>
      <trkpt lat="47.25893" lon="-1.58254">
        <ele>48.4</ele>
        <time>2012-01-26T13:28:37Z</time>
      </trkpt>
      <trkpt lat="47.25894" lon="-1.5826">
        <ele>48.7</ele>
        <time>2012-01-26T13:28:41Z</time>
      </trkpt>
      <trkpt lat="47.25895" lon="-1.58266">
        <ele>49</ele>
        <time>2012-01-26T13:28:45Z</time>
      </trkpt>
      <trkpt lat="47.25897" lon="-1.58272">
        <ele>48.5</ele>
        <time>2012-01-26T13:28:49Z</time>
      </trkpt>
      <trkpt lat="47.25898" lon="-1.58278">
        <ele>48.9</ele>
        <time>2012-01-26T13:28:53Z</time>
      </trkpt>
      <trkpt lat="47.25899" lon="-1.58283">
        <ele>49</ele>
        <time>2012-01-26T13:28:56Z</time>
      </trkpt>
      <trkpt lat="47.259" lon="-1.58289">
        <ele>48.4</ele>
        <time>2012-01-26T13:29:00Z</time>
      </trkpt>
      <trkpt lat="47.25901" lon="-1.58295">
        <ele>48</ele>
        <time>2012-01-26T13:29:04Z</time>
      </trkpt>
      <trkpt lat="47.25901" lon="-1.58302">
        <ele>47.9</ele>
        <time>2012-01-26T13:29:08Z</time>
      </trkpt>
      <trkpt lat="47.25903" lon="-1.58308">
        <ele>48.2</ele>
        <time>2012-01-26T13:29:12Z</time>
      </trkpt>
      <trkpt lat="47.25903" lon="-1.58314">
        <ele>48.5</ele>
        <time>2012-01-26T13:29:16Z</time>
      </trkpt>
      <trkpt lat="47.25904" lon="-1.58319">
        <ele>48.5</ele>
        <time>2012-01-26T13:29:19Z</time>
      </trkpt>
      <trkpt lat="47.25905" lon="-1.58325">
        <ele>48.2</ele>
        <time>2012-01-26T13:29:22Z</time>
      </trkpt>
      <trkpt lat="47.25905" lon="-1.5833">
        <ele>48.2</ele>
        <time>2012-01-26T13:29:25Z</time>
      </trkpt>
      <trkpt lat="47.25905" lon="-1.58331">
        <ele>48.2</ele>
        <time>2012-01-26T13:29:26Z</time>
      </trkpt>
      <trkpt lat="47.25906" lon="-1.58342">
        <ele>48.7</ele>
        <time>2012-01-26T13:29:33Z</time>
      </trkpt>
      <trkpt lat="47.25907" lon="-1.58348">
        <ele>48.2</ele>
        <time>2012-01-26T13:29:36Z</time>
      </trkpt>
      <trkpt lat="47.25908" lon="-1.58352">
        <ele>48</ele>
        <time>2012-01-26T13:29:39Z</time>
      </trkpt>
      <trkpt lat="47.25909" lon="-1.58358">
        <ele>48.5</ele>
        <time>2012-01-26T13:29:42Z</time>
      </trkpt>
      <trkpt lat="47.2591" lon="-1.58363">
        <ele>48.5</ele>
        <time>2012-01-26T13:29:45Z</time>
      </trkpt>
      <trkpt lat="47.2591" lon="-1.58369">
        <ele>48.4</ele>
        <time>2012-01-26T13:29:48Z</time>
      </trkpt>
      <trkpt lat="47.25911" lon="-1.58375">
        <ele>48.5</ele>
        <time>2012-01-26T13:29:51Z</time>
      </trkpt>
      <trkpt lat="47.25912" lon="-1.58381">
        <ele>48.7</ele>
        <time>2012-01-26T13:29:54Z</time>
      </trkpt>
      <trkpt lat="47.25912" lon="-1.58387">
        <ele>48.9</ele>
        <time>2012-01-26T13:29:57Z</time>
      </trkpt>
      <trkpt lat="47.25913" lon="-1.58392">
        <ele>48.7</ele>
        <time>2012-01-26T13:30:00Z</time>
      </trkpt>
      <trkpt lat="47.25913" lon="-1.58398">
        <ele>48.2</ele>
        <time>2012-01-26T13:30:04Z</time>
      </trkpt>
      <trkpt lat="47.25914" lon="-1.58405">
        <ele>47</ele>
        <time>2012-01-26T13:30:08Z</time>
      </trkpt>
      <trkpt lat="47.25915" lon="-1.5841">
        <ele>46.5</ele>
        <time>2012-01-26T13:30:12Z</time>
      </trkpt>
      <trkpt lat="47.25916" lon="-1.58416">
        <ele>47.2</ele>
        <time>2012-01-26T13:30:16Z</time>
      </trkpt>
      <trkpt lat="47.25916" lon="-1.58422">
        <ele>47.5</ele>
        <time>2012-01-26T13:30:20Z</time>
      </trkpt>
      <trkpt lat="47.25917" lon="-1.58428">
        <ele>48.2</ele>
        <time>2012-01-26T13:30:24Z</time>
      </trkpt>
      <trkpt lat="47.25917" lon="-1.58433">
        <ele>48.2</ele>
        <time>2012-01-26T13:30:27Z</time>
      </trkpt>
      <trkpt lat="47.25918" lon="-1.58434">
        <ele>48</ele>
        <time>2012-01-26T13:30:28Z</time>
      </trkpt>
      <trkpt lat="47.25918" lon="-1.58446">
        <ele>47.9</ele>
        <time>2012-01-26T13:30:35Z</time>
      </trkpt>
      <trkpt lat="47.25919" lon="-1.58452">
        <ele>47.7</ele>
        <time>2012-01-26T13:30:39Z</time>
      </trkpt>
      <trkpt lat="47.2592" lon="-1.58457">
        <ele>47.7</ele>
        <time>2012-01-26T13:30:43Z</time>
      </trkpt>
      <trkpt lat="47.25921" lon="-1.58462">
        <ele>47.9</ele>
        <time>2012-01-26T13:30:46Z</time>
      </trkpt>
      <trkpt lat="47.25922" lon="-1.58468">
        <ele>48</ele>
        <time>2012-01-26T13:30:50Z</time>
      </trkpt>
      <trkpt lat="47.25923" lon="-1.58474">
        <ele>47.7</ele>
        <time>2012-01-26T13:30:54Z</time>
      </trkpt>
      <trkpt lat="47.25924" lon="-1.5848">
        <ele>47.2</ele>
        <time>2012-01-26T13:30:58Z</time>
      </trkpt>
      <trkpt lat="47.25925" lon="-1.58486">
        <ele>46.7</ele>
        <time>2012-01-26T13:31:02Z</time>
      </trkpt>
      <trkpt lat="47.25926" lon="-1.58492">
        <ele>47</ele>
        <time>2012-01-26T13:31:06Z</time>
      </trkpt>
      <trkpt lat="47.25926" lon="-1.58498">
        <ele>47.2</ele>
        <time>2012-01-26T13:31:10Z</time>
      </trkpt>
      <trkpt lat="47.25927" lon="-1.58505">
        <ele>47.2</ele>
        <time>2012-01-26T13:31:14Z</time>
      </trkpt>
      <trkpt lat="47.25928" lon="-1.5851">
        <ele>47.7</ele>
        <time>2012-01-26T13:31:18Z</time>
      </trkpt>
      <trkpt lat="47.2593" lon="-1.58516">
        <ele>47.4</ele>
        <time>2012-01-26T13:31:22Z</time>
      </trkpt>
      <trkpt lat="47.25931" lon="-1.58522">
        <ele>47</ele>
        <time>2012-01-26T13:31:26Z</time>
      </trkpt>
      <trkpt lat="47.25932" lon="-1.58528">
        <ele>46.9</ele>
        <time>2012-01-26T13:31:30Z</time>
      </trkpt>
      <trkpt lat="47.25932" lon="-1.58529">
        <ele>46.9</ele>
        <time>2012-01-26T13:31:31Z</time>
      </trkpt>
      <trkpt lat="47.25934" lon="-1.58539">
        <ele>47.2</ele>
        <time>2012-01-26T13:31:37Z</time>
      </trkpt>
      <trkpt lat="47.25935" lon="-1.58543">
        <ele>47</ele>
        <time>2012-01-26T13:31:40Z</time>
      </trkpt>
      <trkpt lat="47.25935" lon="-1.58549">
        <ele>46.9</ele>
        <time>2012-01-26T13:31:43Z</time>
      </trkpt>
      <trkpt lat="47.25937" lon="-1.58553">
        <ele>46.4</ele>
        <time>2012-01-26T13:31:46Z</time>
      </trkpt>
      <trkpt lat="47.25938" lon="-1.58559">
        <ele>46.2</ele>
        <time>2012-01-26T13:31:49Z</time>
      </trkpt>
      <trkpt lat="47.25938" lon="-1.58564">
        <ele>46.7</ele>
        <time>2012-01-26T13:31:52Z</time>
      </trkpt>
      <trkpt lat="47.25939" lon="-1.58569">
        <ele>47</ele>
        <time>2012-01-26T13:31:55Z</time>
      </trkpt>
      <trkpt lat="47.2594" lon="-1.58575">
        <ele>46.7</ele>
        <time>2012-01-26T13:31:58Z</time>
      </trkpt>
      <trkpt lat="47.25941" lon="-1.5858">
        <ele>46.7</ele>
        <time>2012-01-26T13:32:01Z</time>
      </trkpt>
      <trkpt lat="47.25942" lon="-1.58585">
        <ele>46.9</ele>
        <time>2012-01-26T13:32:04Z</time>
      </trkpt>
      <trkpt lat="47.25942" lon="-1.58591">
        <ele>46.5</ele>
        <time>2012-01-26T13:32:07Z</time>
      </trkpt>
      <trkpt lat="47.25942" lon="-1.58598">
        <ele>47</ele>
        <time>2012-01-26T13:32:10Z</time>
      </trkpt>
      <trkpt lat="47.25943" lon="-1.58604">
        <ele>47.2</ele>
        <time>2012-01-26T13:32:13Z</time>
      </trkpt>
      <trkpt lat="47.25943" lon="-1.5861">
        <ele>47</ele>
        <time>2012-01-26T13:32:16Z</time>
      </trkpt>
      <trkpt lat="47.25943" lon="-1.58615">
        <ele>47.2</ele>
        <time>2012-01-26T13:32:18Z</time>
      </trkpt>
      <trkpt lat="47.25944" lon="-1.58621">
        <ele>47.4</ele>
        <time>2012-01-26T13:32:21Z</time>
      </trkpt>
      <trkpt lat="47.25945" lon="-1.58626">
        <ele>47.2</ele>
        <time>2012-01-26T13:32:24Z</time>
      </trkpt>
      <trkpt lat="47.25946" lon="-1.58632">
        <ele>47.2</ele>
        <time>2012-01-26T13:32:27Z</time>
      </trkpt>
      <trkpt lat="47.25947" lon="-1.58637">
        <ele>47</ele>
        <time>2012-01-26T13:32:30Z</time>
      </trkpt>
      <trkpt lat="47.25948" lon="-1.58642">
        <ele>46.7</ele>
        <time>2012-01-26T13:32:33Z</time>
      </trkpt>
      <trkpt lat="47.25948" lon="-1.58644">
        <ele>46.5</ele>
        <time>2012-01-26T13:32:34Z</time>
      </trkpt>
      <trkpt lat="47.25949" lon="-1.58654">
        <ele>46.7</ele>
        <time>2012-01-26T13:32:40Z</time>
      </trkpt>
      <trkpt lat="47.2595" lon="-1.5866">
        <ele>47</ele>
        <time>2012-01-26T13:32:44Z</time>
      </trkpt>
      <trkpt lat="47.25951" lon="-1.58665">
        <ele>46.7</ele>
        <time>2012-01-26T13:32:48Z</time>
      </trkpt>
      <trkpt lat="47.25952" lon="-1.58671">
        <ele>46.2</ele>
        <time>2012-01-26T13:32:52Z</time>
      </trkpt>
      <trkpt lat="47.25952" lon="-1.58676">
        <ele>46</ele>
        <time>2012-01-26T13:32:56Z</time>
      </trkpt>
      <trkpt lat="47.25953" lon="-1.58682">
        <ele>45.7</ele>
        <time>2012-01-26T13:33:00Z</time>
      </trkpt>
      <trkpt lat="47.25955" lon="-1.58687">
        <ele>46.5</ele>
        <time>2012-01-26T13:33:04Z</time>
      </trkpt>
      <trkpt lat="47.25956" lon="-1.58692">
        <ele>46.7</ele>
        <time>2012-01-26T13:33:07Z</time>
      </trkpt>
      <trkpt lat="47.25956" lon="-1.58697">
        <ele>47</ele>
        <time>2012-01-26T13:33:10Z</time>
      </trkpt>
      <trkpt lat="47.25957" lon="-1.58703">
        <ele>46.9</ele>
        <time>2012-01-26T13:33:14Z</time>
      </trkpt>
      <trkpt lat="47.25958" lon="-1.58708">
        <ele>47</ele>
        <time>2012-01-26T13:33:17Z</time>
      </trkpt>
      <trkpt lat="47.25959" lon="-1.58714">
        <ele>46.5</ele>
        <time>2012-01-26T13:33:20Z</time>
      </trkpt>
      <trkpt lat="47.25961" lon="-1.58719">
        <ele>46.4</ele>
        <time>2012-01-26T13:33:23Z</time>
      </trkpt>
      <trkpt lat="47.25962" lon="-1.58724">
        <ele>45.9</ele>
        <time>2012-01-26T13:33:26Z</time>
      </trkpt>
      <trkpt lat="47.25963" lon="-1.5873">
        <ele>46.2</ele>
        <time>2012-01-26T13:33:29Z</time>
      </trkpt>
      <trkpt lat="47.25964" lon="-1.58736">
        <ele>46.2</ele>
        <time>2012-01-26T13:33:33Z</time>
      </trkpt>
      <trkpt lat="47.25965" lon="-1.58742">
        <ele>45.5</ele>
        <time>2012-01-26T13:33:37Z</time>
      </trkpt>
      <trkpt lat="47.25965" lon="-1.58744">
        <ele>45.5</ele>
        <time>2012-01-26T13:33:38Z</time>
      </trkpt>
      <trkpt lat="47.25966" lon="-1.58754">
        <ele>45.5</ele>
        <time>2012-01-26T13:33:45Z</time>
      </trkpt>
      <trkpt lat="47.25966" lon="-1.5876">
        <ele>45.7</ele>
        <time>2012-01-26T13:33:49Z</time>
      </trkpt>
      <trkpt lat="47.25967" lon="-1.58767">
        <ele>45.7</ele>
        <time>2012-01-26T13:33:53Z</time>
      </trkpt>
      <trkpt lat="47.25967" lon="-1.58773">
        <ele>45.2</ele>
        <time>2012-01-26T13:33:57Z</time>
      </trkpt>
      <trkpt lat="47.25968" lon="-1.58779">
        <ele>45.4</ele>
        <time>2012-01-26T13:34:00Z</time>
      </trkpt>
      <trkpt lat="47.25969" lon="-1.58783">
        <ele>45.2</ele>
        <time>2012-01-26T13:34:03Z</time>
      </trkpt>
      <trkpt lat="47.2597" lon="-1.58789">
        <ele>44.7</ele>
        <time>2012-01-26T13:34:06Z</time>
      </trkpt>
      <trkpt lat="47.2597" lon="-1.58795">
        <ele>44.5</ele>
        <time>2012-01-26T13:34:10Z</time>
      </trkpt>
      <trkpt lat="47.25971" lon="-1.588">
        <ele>43.9</ele>
        <time>2012-01-26T13:34:13Z</time>
      </trkpt>
      <trkpt lat="47.25971" lon="-1.58806">
        <ele>43.7</ele>
        <time>2012-01-26T13:34:17Z</time>
      </trkpt>
      <trkpt lat="47.25972" lon="-1.58811">
        <ele>43.7</ele>
        <time>2012-01-26T13:34:20Z</time>
      </trkpt>
      <trkpt lat="47.25974" lon="-1.58817">
        <ele>43.9</ele>
        <time>2012-01-26T13:34:24Z</time>
      </trkpt>
      <trkpt lat="47.25975" lon="-1.58823">
        <ele>43.7</ele>
        <time>2012-01-26T13:34:29Z</time>
      </trkpt>
      <trkpt lat="47.25976" lon="-1.58829">
        <ele>43.9</ele>
        <time>2012-01-26T13:34:33Z</time>
      </trkpt>
      <trkpt lat="47.25978" lon="-1.58834">
        <ele>43.9</ele>
        <time>2012-01-26T13:34:37Z</time>
      </trkpt>
      <trkpt lat="47.2598" lon="-1.58838">
        <ele>43.7</ele>
        <time>2012-01-26T13:34:40Z</time>
      </trkpt>
      <trkpt lat="47.25981" lon="-1.5884">
        <ele>43.7</ele>
        <time>2012-01-26T13:34:41Z</time>
      </trkpt>
      <trkpt lat="47.25986" lon="-1.58847">
        <ele>44</ele>
        <time>2012-01-26T13:34:47Z</time>
      </trkpt>
      <trkpt lat="47.25989" lon="-1.58849">
        <ele>44</ele>
        <time>2012-01-26T13:34:50Z</time>
      </trkpt>
      <trkpt lat="47.25991" lon="-1.58853">
        <ele>44.5</ele>
        <time>2012-01-26T13:34:53Z</time>
      </trkpt>
      <trkpt lat="47.25994" lon="-1.58856">
        <ele>44</ele>
        <time>2012-01-26T13:34:56Z</time>
      </trkpt>
      <trkpt lat="47.25997" lon="-1.58859">
        <ele>43.7</ele>
        <time>2012-01-26T13:34:59Z</time>
      </trkpt>
      <trkpt lat="47.26001" lon="-1.58861">
        <ele>42.9</ele>
        <time>2012-01-26T13:35:02Z</time>
      </trkpt>
      <trkpt lat="47.26004" lon="-1.58865">
        <ele>43.5</ele>
        <time>2012-01-26T13:35:06Z</time>
      </trkpt>
      <trkpt lat="47.26008" lon="-1.58868">
        <ele>43.5</ele>
        <time>2012-01-26T13:35:10Z</time>
      </trkpt>
      <trkpt lat="47.26012" lon="-1.58871">
        <ele>43.5</ele>
        <time>2012-01-26T13:35:14Z</time>
      </trkpt>
      <trkpt lat="47.26015" lon="-1.58873">
        <ele>44</ele>
        <time>2012-01-26T13:35:18Z</time>
      </trkpt>
      <trkpt lat="47.26019" lon="-1.58875">
        <ele>44.2</ele>
        <time>2012-01-26T13:35:21Z</time>
      </trkpt>
      <trkpt lat="47.26023" lon="-1.58876">
        <ele>43.2</ele>
        <time>2012-01-26T13:35:26Z</time>
      </trkpt>
      <trkpt lat="47.26027" lon="-1.58875">
        <ele>43.5</ele>
        <time>2012-01-26T13:35:31Z</time>
      </trkpt>
      <trkpt lat="47.26031" lon="-1.58875">
        <ele>45</ele>
        <time>2012-01-26T13:35:35Z</time>
      </trkpt>
      <trkpt lat="47.26035" lon="-1.58875">
        <ele>45.5</ele>
        <time>2012-01-26T13:35:38Z</time>
      </trkpt>
      <trkpt lat="47.26038" lon="-1.58873">
        <ele>45</ele>
        <time>2012-01-26T13:35:41Z</time>
      </trkpt>
      <trkpt lat="47.26039" lon="-1.58872">
        <ele>45</ele>
        <time>2012-01-26T13:35:42Z</time>
      </trkpt>
      <trkpt lat="47.26044" lon="-1.58867">
        <ele>45.2</ele>
        <time>2012-01-26T13:35:47Z</time>
      </trkpt>
      <trkpt lat="47.26046" lon="-1.58864">
        <ele>45.5</ele>
        <time>2012-01-26T13:35:50Z</time>
      </trkpt>
      <trkpt lat="47.2605" lon="-1.5886">
        <ele>45.4</ele>
        <time>2012-01-26T13:35:54Z</time>
      </trkpt>
      <trkpt lat="47.26052" lon="-1.58856">
        <ele>45.5</ele>
        <time>2012-01-26T13:35:57Z</time>
      </trkpt>
      <trkpt lat="47.26056" lon="-1.58852">
        <ele>46</ele>
        <time>2012-01-26T13:36:00Z</time>
      </trkpt>
      <trkpt lat="47.26059" lon="-1.58848">
        <ele>45.7</ele>
        <time>2012-01-26T13:36:04Z</time>
      </trkpt>
      <trkpt lat="47.26061" lon="-1.58844">
        <ele>45.5</ele>
        <time>2012-01-26T13:36:08Z</time>
      </trkpt>
      <trkpt lat="47.26064" lon="-1.58838">
        <ele>46.4</ele>
        <time>2012-01-26T13:36:13Z</time>
      </trkpt>
      <trkpt lat="47.26065" lon="-1.58834">
        <ele>46.2</ele>
        <time>2012-01-26T13:36:17Z</time>
      </trkpt>
      <trkpt lat="47.26067" lon="-1.5883">
        <ele>46.2</ele>
        <time>2012-01-26T13:36:20Z</time>
      </trkpt>
      <trkpt lat="47.2607" lon="-1.58826">
        <ele>45.7</ele>
        <time>2012-01-26T13:36:23Z</time>
      </trkpt>
      <trkpt lat="47.26073" lon="-1.58823">
        <ele>46</ele>
        <time>2012-01-26T13:36:27Z</time>
      </trkpt>
      <trkpt lat="47.26077" lon="-1.58825">
        <ele>45.7</ele>
        <time>2012-01-26T13:36:33Z</time>
      </trkpt>
      <trkpt lat="47.2608" lon="-1.58831">
        <ele>46</ele>
        <time>2012-01-26T13:36:38Z</time>
      </trkpt>
      <trkpt lat="47.26082" lon="-1.58836">
        <ele>44.9</ele>
        <time>2012-01-26T13:36:44Z</time>
      </trkpt>
      <trkpt lat="47.26082" lon="-1.58838">
        <ele>44.7</ele>
        <time>2012-01-26T13:36:45Z</time>
      </trkpt>
      <trkpt lat="47.26084" lon="-1.58848">
        <ele>43.7</ele>
        <time>2012-01-26T13:36:53Z</time>
      </trkpt>
      <trkpt lat="47.26085" lon="-1.58853">
        <ele>43.5</ele>
        <time>2012-01-26T13:36:57Z</time>
      </trkpt>
      <trkpt lat="47.26086" lon="-1.58858">
        <ele>43.9</ele>
        <time>2012-01-26T13:37:01Z</time>
      </trkpt>
      <trkpt lat="47.26087" lon="-1.58864">
        <ele>42.9</ele>
        <time>2012-01-26T13:37:06Z</time>
      </trkpt>
      <trkpt lat="47.26087" lon="-1.5887">
        <ele>42.7</ele>
        <time>2012-01-26T13:37:10Z</time>
      </trkpt>
      <trkpt lat="47.26088" lon="-1.58876">
        <ele>43.5</ele>
        <time>2012-01-26T13:37:13Z</time>
      </trkpt>
      <trkpt lat="47.26088" lon="-1.58881">
        <ele>43.2</ele>
        <time>2012-01-26T13:37:16Z</time>
      </trkpt>
      <trkpt lat="47.26089" lon="-1.58887">
        <ele>42.5</ele>
        <time>2012-01-26T13:37:19Z</time>
      </trkpt>
      <trkpt lat="47.2609" lon="-1.58893">
        <ele>42.5</ele>
        <time>2012-01-26T13:37:22Z</time>
      </trkpt>
      <trkpt lat="47.26091" lon="-1.58898">
        <ele>42</ele>
        <time>2012-01-26T13:37:25Z</time>
      </trkpt>
      <trkpt lat="47.26092" lon="-1.58904">
        <ele>41.7</ele>
        <time>2012-01-26T13:37:28Z</time>
      </trkpt>
      <trkpt lat="47.26092" lon="-1.58909">
        <ele>41.5</ele>
        <time>2012-01-26T13:37:31Z</time>
      </trkpt>
      <trkpt lat="47.26094" lon="-1.58914">
        <ele>41.9</ele>
        <time>2012-01-26T13:37:34Z</time>
      </trkpt>
      <trkpt lat="47.26095" lon="-1.58919">
        <ele>41.5</ele>
        <time>2012-01-26T13:37:37Z</time>
      </trkpt>
      <trkpt lat="47.26096" lon="-1.58925">
        <ele>41.2</ele>
        <time>2012-01-26T13:37:41Z</time>
      </trkpt>
      <trkpt lat="47.26097" lon="-1.58931">
        <ele>40.7</ele>
        <time>2012-01-26T13:37:45Z</time>
      </trkpt>
      <trkpt lat="47.26098" lon="-1.58937">
        <ele>40.2</ele>
        <time>2012-01-26T13:37:49Z</time>
      </trkpt>
      <trkpt lat="47.26098" lon="-1.58938">
        <ele>40.2</ele>
        <time>2012-01-26T13:37:50Z</time>
      </trkpt>
      <trkpt lat="47.261" lon="-1.58949">
        <ele>39.4</ele>
        <time>2012-01-26T13:37:57Z</time>
      </trkpt>
      <trkpt lat="47.26101" lon="-1.58954">
        <ele>39.7</ele>
        <time>2012-01-26T13:38:01Z</time>
      </trkpt>
      <trkpt lat="47.26102" lon="-1.5896">
        <ele>40.2</ele>
        <time>2012-01-26T13:38:05Z</time>
      </trkpt>
      <trkpt lat="47.26104" lon="-1.58966">
        <ele>39.9</ele>
        <time>2012-01-26T13:38:09Z</time>
      </trkpt>
      <trkpt lat="47.26105" lon="-1.58971">
        <ele>39.5</ele>
        <time>2012-01-26T13:38:12Z</time>
      </trkpt>
      <trkpt lat="47.26106" lon="-1.58976">
        <ele>39.2</ele>
        <time>2012-01-26T13:38:15Z</time>
      </trkpt>
      <trkpt lat="47.26107" lon="-1.58982">
        <ele>39.2</ele>
        <time>2012-01-26T13:38:18Z</time>
      </trkpt>
      <trkpt lat="47.26108" lon="-1.58987">
        <ele>39.2</ele>
        <time>2012-01-26T13:38:21Z</time>
      </trkpt>
      <trkpt lat="47.26109" lon="-1.58992">
        <ele>39.4</ele>
        <time>2012-01-26T13:38:24Z</time>
      </trkpt>
      <trkpt lat="47.2611" lon="-1.58997">
        <ele>39.2</ele>
        <time>2012-01-26T13:38:27Z</time>
      </trkpt>
      <trkpt lat="47.26111" lon="-1.59002">
        <ele>39</ele>
        <time>2012-01-26T13:38:30Z</time>
      </trkpt>
      <trkpt lat="47.26112" lon="-1.59007">
        <ele>38.2</ele>
        <time>2012-01-26T13:38:33Z</time>
      </trkpt>
      <trkpt lat="47.26113" lon="-1.59013">
        <ele>38.4</ele>
        <time>2012-01-26T13:38:37Z</time>
      </trkpt>
      <trkpt lat="47.26114" lon="-1.59019">
        <ele>38.7</ele>
        <time>2012-01-26T13:38:40Z</time>
      </trkpt>
      <trkpt lat="47.26115" lon="-1.59024">
        <ele>38.9</ele>
        <time>2012-01-26T13:38:43Z</time>
      </trkpt>
      <trkpt lat="47.26116" lon="-1.59029">
        <ele>39.2</ele>
        <time>2012-01-26T13:38:46Z</time>
      </trkpt>
      <trkpt lat="47.26117" lon="-1.59034">
        <ele>38.5</ele>
        <time>2012-01-26T13:38:49Z</time>
      </trkpt>
      <trkpt lat="47.26118" lon="-1.5904">
        <ele>37.7</ele>
        <time>2012-01-26T13:38:52Z</time>
      </trkpt>
      <trkpt lat="47.26118" lon="-1.59041">
        <ele>38</ele>
        <time>2012-01-26T13:38:53Z</time>
      </trkpt>
      <trkpt lat="47.2612" lon="-1.5905">
        <ele>38</ele>
        <time>2012-01-26T13:38:58Z</time>
      </trkpt>
      <trkpt lat="47.26121" lon="-1.59055">
        <ele>38.2</ele>
        <time>2012-01-26T13:39:01Z</time>
      </trkpt>
      <trkpt lat="47.26123" lon="-1.5906">
        <ele>38</ele>
        <time>2012-01-26T13:39:04Z</time>
      </trkpt>
      <trkpt lat="47.26124" lon="-1.59065">
        <ele>38.5</ele>
        <time>2012-01-26T13:39:07Z</time>
      </trkpt>
      <trkpt lat="47.26125" lon="-1.5907">
        <ele>39</ele>
        <time>2012-01-26T13:39:10Z</time>
      </trkpt>
      <trkpt lat="47.26126" lon="-1.59075">
        <ele>38.2</ele>
        <time>2012-01-26T13:39:13Z</time>
      </trkpt>
      <trkpt lat="47.26124" lon="-1.5908">
        <ele>38.2</ele>
        <time>2012-01-26T13:39:16Z</time>
      </trkpt>
      <trkpt lat="47.26124" lon="-1.59085">
        <ele>38.2</ele>
        <time>2012-01-26T13:39:18Z</time>
      </trkpt>
      <trkpt lat="47.26124" lon="-1.59091">
        <ele>38.5</ele>
        <time>2012-01-26T13:39:21Z</time>
      </trkpt>
      <trkpt lat="47.26125" lon="-1.59097">
        <ele>38.5</ele>
        <time>2012-01-26T13:39:24Z</time>
      </trkpt>
      <trkpt lat="47.26127" lon="-1.59102">
        <ele>37.9</ele>
        <time>2012-01-26T13:39:27Z</time>
      </trkpt>
      <trkpt lat="47.26129" lon="-1.59108">
        <ele>37.5</ele>
        <time>2012-01-26T13:39:31Z</time>
      </trkpt>
      <trkpt lat="47.26132" lon="-1.59112">
        <ele>38</ele>
        <time>2012-01-26T13:39:35Z</time>
      </trkpt>
      <trkpt lat="47.26134" lon="-1.59116">
        <ele>38.2</ele>
        <time>2012-01-26T13:39:38Z</time>
      </trkpt>
      <trkpt lat="47.26135" lon="-1.59121">
        <ele>38.5</ele>
        <time>2012-01-26T13:39:41Z</time>
      </trkpt>
      <trkpt lat="47.26137" lon="-1.59126">
        <ele>38.2</ele>
        <time>2012-01-26T13:39:45Z</time>
      </trkpt>
      <trkpt lat="47.26139" lon="-1.59132">
        <ele>38.5</ele>
        <time>2012-01-26T13:39:49Z</time>
      </trkpt>
      <trkpt lat="47.26141" lon="-1.59138">
        <ele>38.7</ele>
        <time>2012-01-26T13:39:53Z</time>
      </trkpt>
      <trkpt lat="47.26141" lon="-1.59139">
        <ele>38.4</ele>
        <time>2012-01-26T13:39:54Z</time>
      </trkpt>
      <trkpt lat="47.26144" lon="-1.59149">
        <ele>38</ele>
        <time>2012-01-26T13:40:01Z</time>
      </trkpt>
      <trkpt lat="47.26146" lon="-1.59153">
        <ele>38.4</ele>
        <time>2012-01-26T13:40:04Z</time>
      </trkpt>
      <trkpt lat="47.26147" lon="-1.59158">
        <ele>38.5</ele>
        <time>2012-01-26T13:40:07Z</time>
      </trkpt>
      <trkpt lat="47.26149" lon="-1.59164">
        <ele>39.2</ele>
        <time>2012-01-26T13:40:11Z</time>
      </trkpt>
      <trkpt lat="47.26151" lon="-1.5917">
        <ele>39</ele>
        <time>2012-01-26T13:40:15Z</time>
      </trkpt>
      <trkpt lat="47.26153" lon="-1.59175">
        <ele>38.4</ele>
        <time>2012-01-26T13:40:18Z</time>
      </trkpt>
      <trkpt lat="47.26154" lon="-1.5918">
        <ele>39</ele>
        <time>2012-01-26T13:40:21Z</time>
      </trkpt>
      <trkpt lat="47.26156" lon="-1.59184">
        <ele>38.9</ele>
        <time>2012-01-26T13:40:24Z</time>
      </trkpt>
      <trkpt lat="47.26158" lon="-1.59189">
        <ele>39.5</ele>
        <time>2012-01-26T13:40:27Z</time>
      </trkpt>
      <trkpt lat="47.26159" lon="-1.59194">
        <ele>39.5</ele>
        <time>2012-01-26T13:40:30Z</time>
      </trkpt>
      <trkpt lat="47.26161" lon="-1.59198">
        <ele>39.4</ele>
        <time>2012-01-26T13:40:33Z</time>
      </trkpt>
      <trkpt lat="47.26163" lon="-1.59204">
        <ele>38.7</ele>
        <time>2012-01-26T13:40:38Z</time>
      </trkpt>
      <trkpt lat="47.26164" lon="-1.5921">
        <ele>38.9</ele>
        <time>2012-01-26T13:40:42Z</time>
      </trkpt>
      <trkpt lat="47.26166" lon="-1.59215">
        <ele>38.9</ele>
        <time>2012-01-26T13:40:46Z</time>
      </trkpt>
      <trkpt lat="47.26168" lon="-1.59219">
        <ele>38.9</ele>
        <time>2012-01-26T13:40:49Z</time>
      </trkpt>
      <trkpt lat="47.2617" lon="-1.59224">
        <ele>39</ele>
        <time>2012-01-26T13:40:52Z</time>
      </trkpt>
      <trkpt lat="47.26171" lon="-1.59228">
        <ele>39</ele>
        <time>2012-01-26T13:40:55Z</time>
      </trkpt>
      <trkpt lat="47.26172" lon="-1.5923">
        <ele>39</ele>
        <time>2012-01-26T13:40:56Z</time>
      </trkpt>
      <trkpt lat="47.26175" lon="-1.59239">
        <ele>38.4</ele>
        <time>2012-01-26T13:41:02Z</time>
      </trkpt>
      <trkpt lat="47.26177" lon="-1.59245">
        <ele>38.7</ele>
        <time>2012-01-26T13:41:06Z</time>
      </trkpt>
      <trkpt lat="47.26179" lon="-1.59249">
        <ele>38</ele>
        <time>2012-01-26T13:41:09Z</time>
      </trkpt>
      <trkpt lat="47.26181" lon="-1.59253">
        <ele>37.7</ele>
        <time>2012-01-26T13:41:12Z</time>
      </trkpt>
      <trkpt lat="47.26183" lon="-1.59259">
        <ele>38.4</ele>
        <time>2012-01-26T13:41:16Z</time>
      </trkpt>
      <trkpt lat="47.26185" lon="-1.59265">
        <ele>38</ele>
        <time>2012-01-26T13:41:20Z</time>
      </trkpt>
      <trkpt lat="47.26186" lon="-1.5927">
        <ele>38.2</ele>
        <time>2012-01-26T13:41:23Z</time>
      </trkpt>
      <trkpt lat="47.26188" lon="-1.59275">
        <ele>38</ele>
        <time>2012-01-26T13:41:26Z</time>
      </trkpt>
      <trkpt lat="47.26189" lon="-1.59279">
        <ele>37.9</ele>
        <time>2012-01-26T13:41:29Z</time>
      </trkpt>
      <trkpt lat="47.26191" lon="-1.59284">
        <ele>38</ele>
        <time>2012-01-26T13:41:32Z</time>
      </trkpt>
      <trkpt lat="47.26192" lon="-1.59289">
        <ele>37.2</ele>
        <time>2012-01-26T13:41:35Z</time>
      </trkpt>
      <trkpt lat="47.26194" lon="-1.59294">
        <ele>37.5</ele>
        <time>2012-01-26T13:41:38Z</time>
      </trkpt>
      <trkpt lat="47.26196" lon="-1.59299">
        <ele>37</ele>
        <time>2012-01-26T13:41:41Z</time>
      </trkpt>
      <trkpt lat="47.26197" lon="-1.59303">
        <ele>37</ele>
        <time>2012-01-26T13:41:44Z</time>
      </trkpt>
      <trkpt lat="47.262" lon="-1.59309">
        <ele>37.2</ele>
        <time>2012-01-26T13:41:48Z</time>
      </trkpt>
      <trkpt lat="47.26202" lon="-1.59313">
        <ele>37</ele>
        <time>2012-01-26T13:41:51Z</time>
      </trkpt>
      <trkpt lat="47.26204" lon="-1.59318">
        <ele>37.4</ele>
        <time>2012-01-26T13:41:54Z</time>
      </trkpt>
      <trkpt lat="47.26206" lon="-1.59322">
        <ele>37</ele>
        <time>2012-01-26T13:41:57Z</time>
      </trkpt>
      <trkpt lat="47.26207" lon="-1.59323">
        <ele>37</ele>
        <time>2012-01-26T13:41:58Z</time>
      </trkpt>
      <trkpt lat="47.2621" lon="-1.59332">
        <ele>37</ele>
        <time>2012-01-26T13:42:03Z</time>
      </trkpt>
      <trkpt lat="47.26212" lon="-1.59336">
        <ele>36.5</ele>
        <time>2012-01-26T13:42:06Z</time>
      </trkpt>
      <trkpt lat="47.26214" lon="-1.5934">
        <ele>36.7</ele>
        <time>2012-01-26T13:42:09Z</time>
      </trkpt>
      <trkpt lat="47.26216" lon="-1.59345">
        <ele>37</ele>
        <time>2012-01-26T13:42:12Z</time>
      </trkpt>
      <trkpt lat="47.26217" lon="-1.59349">
        <ele>36.7</ele>
        <time>2012-01-26T13:42:15Z</time>
      </trkpt>
      <trkpt lat="47.2622" lon="-1.59355">
        <ele>36</ele>
        <time>2012-01-26T13:42:19Z</time>
      </trkpt>
      <trkpt lat="47.26221" lon="-1.59359">
        <ele>36</ele>
        <time>2012-01-26T13:42:22Z</time>
      </trkpt>
      <trkpt lat="47.26224" lon="-1.59364">
        <ele>35.9</ele>
        <time>2012-01-26T13:42:25Z</time>
      </trkpt>
      <trkpt lat="47.26226" lon="-1.59368">
        <ele>35.7</ele>
        <time>2012-01-26T13:42:28Z</time>
      </trkpt>
      <trkpt lat="47.26228" lon="-1.59372">
        <ele>35.7</ele>
        <time>2012-01-26T13:42:31Z</time>
      </trkpt>
      <trkpt lat="47.26231" lon="-1.59376">
        <ele>35.9</ele>
        <time>2012-01-26T13:42:34Z</time>
      </trkpt>
      <trkpt lat="47.26232" lon="-1.59381">
        <ele>35.9</ele>
        <time>2012-01-26T13:42:37Z</time>
      </trkpt>
      <trkpt lat="47.26234" lon="-1.59386">
        <ele>35.9</ele>
        <time>2012-01-26T13:42:40Z</time>
      </trkpt>
      <trkpt lat="47.26236" lon="-1.59391">
        <ele>36</ele>
        <time>2012-01-26T13:42:43Z</time>
      </trkpt>
      <trkpt lat="47.26237" lon="-1.59396">
        <ele>35.7</ele>
        <time>2012-01-26T13:42:46Z</time>
      </trkpt>
      <trkpt lat="47.26238" lon="-1.59401">
        <ele>35.4</ele>
        <time>2012-01-26T13:42:49Z</time>
      </trkpt>
      <trkpt lat="47.2624" lon="-1.59406">
        <ele>34.9</ele>
        <time>2012-01-26T13:42:52Z</time>
      </trkpt>
      <trkpt lat="47.26242" lon="-1.59411">
        <ele>34.2</ele>
        <time>2012-01-26T13:42:55Z</time>
      </trkpt>
      <trkpt lat="47.26244" lon="-1.59415">
        <ele>35.2</ele>
        <time>2012-01-26T13:42:58Z</time>
      </trkpt>
      <trkpt lat="47.26245" lon="-1.59416">
        <ele>34.9</ele>
        <time>2012-01-26T13:42:59Z</time>
      </trkpt>
      <trkpt lat="47.2625" lon="-1.59422">
        <ele>34.7</ele>
        <time>2012-01-26T13:43:06Z</time>
      </trkpt>
      <trkpt lat="47.26253" lon="-1.59426">
        <ele>34.7</ele>
        <time>2012-01-26T13:43:10Z</time>
      </trkpt>
      <trkpt lat="47.26255" lon="-1.5943">
        <ele>34.5</ele>
        <time>2012-01-26T13:43:13Z</time>
      </trkpt>
      <trkpt lat="47.26258" lon="-1.59433">
        <ele>34.7</ele>
        <time>2012-01-26T13:43:16Z</time>
      </trkpt>
      <trkpt lat="47.26261" lon="-1.59437">
        <ele>34.4</ele>
        <time>2012-01-26T13:43:20Z</time>
      </trkpt>
      <trkpt lat="47.26264" lon="-1.59443">
        <ele>34.5</ele>
        <time>2012-01-26T13:43:24Z</time>
      </trkpt>
      <trkpt lat="47.26267" lon="-1.59447">
        <ele>34</ele>
        <time>2012-01-26T13:43:28Z</time>
      </trkpt>
      <trkpt lat="47.26269" lon="-1.59452">
        <ele>33.7</ele>
        <time>2012-01-26T13:43:32Z</time>
      </trkpt>
      <trkpt lat="47.26272" lon="-1.59457">
        <ele>34.4</ele>
        <time>2012-01-26T13:43:36Z</time>
      </trkpt>
      <trkpt lat="47.26274" lon="-1.59461">
        <ele>33.9</ele>
        <time>2012-01-26T13:43:39Z</time>
      </trkpt>
      <trkpt lat="47.26277" lon="-1.59465">
        <ele>33.7</ele>
        <time>2012-01-26T13:43:42Z</time>
      </trkpt>
      <trkpt lat="47.26279" lon="-1.5947">
        <ele>34</ele>
        <time>2012-01-26T13:43:46Z</time>
      </trkpt>
      <trkpt lat="47.26282" lon="-1.59474">
        <ele>33.7</ele>
        <time>2012-01-26T13:43:50Z</time>
      </trkpt>
      <trkpt lat="47.26286" lon="-1.59478">
        <ele>33.2</ele>
        <time>2012-01-26T13:43:54Z</time>
      </trkpt>
      <trkpt lat="47.26289" lon="-1.59483">
        <ele>32.9</ele>
        <time>2012-01-26T13:43:58Z</time>
      </trkpt>
      <trkpt lat="47.26291" lon="-1.59486">
        <ele>32.7</ele>
        <time>2012-01-26T13:44:01Z</time>
      </trkpt>
      <trkpt lat="47.26292" lon="-1.59488">
        <ele>32.7</ele>
        <time>2012-01-26T13:44:02Z</time>
      </trkpt>
      <trkpt lat="47.26296" lon="-1.59495">
        <ele>33</ele>
        <time>2012-01-26T13:44:08Z</time>
      </trkpt>
      <trkpt lat="47.26298" lon="-1.595">
        <ele>32.7</ele>
        <time>2012-01-26T13:44:11Z</time>
      </trkpt>
      <trkpt lat="47.263" lon="-1.59504">
        <ele>32.7</ele>
        <time>2012-01-26T13:44:14Z</time>
      </trkpt>
      <trkpt lat="47.26303" lon="-1.59509">
        <ele>32.2</ele>
        <time>2012-01-26T13:44:18Z</time>
      </trkpt>
      <trkpt lat="47.26305" lon="-1.59513">
        <ele>32.5</ele>
        <time>2012-01-26T13:44:21Z</time>
      </trkpt>
      <trkpt lat="47.26307" lon="-1.59517">
        <ele>32.5</ele>
        <time>2012-01-26T13:44:24Z</time>
      </trkpt>
      <trkpt lat="47.26309" lon="-1.59521">
        <ele>32.5</ele>
        <time>2012-01-26T13:44:27Z</time>
      </trkpt>
      <trkpt lat="47.26311" lon="-1.59525">
        <ele>33</ele>
        <time>2012-01-26T13:44:30Z</time>
      </trkpt>
      <trkpt lat="47.26313" lon="-1.59529">
        <ele>31.7</ele>
        <time>2012-01-26T13:44:33Z</time>
      </trkpt>
      <trkpt lat="47.26315" lon="-1.59534">
        <ele>31.7</ele>
        <time>2012-01-26T13:44:36Z</time>
      </trkpt>
      <trkpt lat="47.26317" lon="-1.59538">
        <ele>32</ele>
        <time>2012-01-26T13:44:39Z</time>
      </trkpt>
      <trkpt lat="47.2632" lon="-1.59542">
        <ele>31.8</ele>
        <time>2012-01-26T13:44:42Z</time>
      </trkpt>
      <trkpt lat="47.26323" lon="-1.59545">
        <ele>32</ele>
        <time>2012-01-26T13:44:45Z</time>
      </trkpt>
      <trkpt lat="47.26325" lon="-1.59549">
        <ele>32</ele>
        <time>2012-01-26T13:44:48Z</time>
      </trkpt>
      <trkpt lat="47.26327" lon="-1.59553">
        <ele>31.8</ele>
        <time>2012-01-26T13:44:51Z</time>
      </trkpt>
      <trkpt lat="47.26329" lon="-1.59556">
        <ele>31.7</ele>
        <time>2012-01-26T13:44:54Z</time>
      </trkpt>
      <trkpt lat="47.26332" lon="-1.5956">
        <ele>31.6</ele>
        <time>2012-01-26T13:44:57Z</time>
      </trkpt>
      <trkpt lat="47.26334" lon="-1.59564">
        <ele>31.3</ele>
        <time>2012-01-26T13:45:00Z</time>
      </trkpt>
      <trkpt lat="47.26336" lon="-1.59568">
        <ele>31.5</ele>
        <time>2012-01-26T13:45:03Z</time>
      </trkpt>
      <trkpt lat="47.26337" lon="-1.59569">
        <ele>31.5</ele>
        <time>2012-01-26T13:45:04Z</time>
      </trkpt>
      <trkpt lat="47.26341" lon="-1.59576">
        <ele>31</ele>
        <time>2012-01-26T13:45:09Z</time>
      </trkpt>
      <trkpt lat="47.26343" lon="-1.5958">
        <ele>30.8</ele>
        <time>2012-01-26T13:45:12Z</time>
      </trkpt>
      <trkpt lat="47.26345" lon="-1.59584">
        <ele>31</ele>
        <time>2012-01-26T13:45:15Z</time>
      </trkpt>
      <trkpt lat="47.26348" lon="-1.59589">
        <ele>30.7</ele>
        <time>2012-01-26T13:45:18Z</time>
      </trkpt>
      <trkpt lat="47.2635" lon="-1.59593">
        <ele>31</ele>
        <time>2012-01-26T13:45:21Z</time>
      </trkpt>
      <trkpt lat="47.26351" lon="-1.59598">
        <ele>30.5</ele>
        <time>2012-01-26T13:45:24Z</time>
      </trkpt>
      <trkpt lat="47.26354" lon="-1.59602">
        <ele>30.5</ele>
        <time>2012-01-26T13:45:27Z</time>
      </trkpt>
      <trkpt lat="47.26357" lon="-1.59606">
        <ele>30.3</ele>
        <time>2012-01-26T13:45:30Z</time>
      </trkpt>
      <trkpt lat="47.26359" lon="-1.59611">
        <ele>30.5</ele>
        <time>2012-01-26T13:45:33Z</time>
      </trkpt>
      <trkpt lat="47.26362" lon="-1.59615">
        <ele>30.3</ele>
        <time>2012-01-26T13:45:36Z</time>
      </trkpt>
      <trkpt lat="47.26364" lon="-1.59619">
        <ele>29.8</ele>
        <time>2012-01-26T13:45:39Z</time>
      </trkpt>
      <trkpt lat="47.26366" lon="-1.59623">
        <ele>29.7</ele>
        <time>2012-01-26T13:45:42Z</time>
      </trkpt>
      <trkpt lat="47.26369" lon="-1.59627">
        <ele>29.8</ele>
        <time>2012-01-26T13:45:45Z</time>
      </trkpt>
      <trkpt lat="47.26371" lon="-1.59632">
        <ele>29.6</ele>
        <time>2012-01-26T13:45:49Z</time>
      </trkpt>
      <trkpt lat="47.26374" lon="-1.59637">
        <ele>29.5</ele>
        <time>2012-01-26T13:45:53Z</time>
      </trkpt>
      <trkpt lat="47.26378" lon="-1.59637">
        <ele>30</ele>
        <time>2012-01-26T13:45:58Z</time>
      </trkpt>
      <trkpt lat="47.26381" lon="-1.59634">
        <ele>29.2</ele>
        <time>2012-01-26T13:46:02Z</time>
      </trkpt>
      <trkpt lat="47.26384" lon="-1.59631">
        <ele>29.2</ele>
        <time>2012-01-26T13:46:05Z</time>
      </trkpt>
      <trkpt lat="47.26385" lon="-1.5963">
        <ele>29.3</ele>
        <time>2012-01-26T13:46:06Z</time>
      </trkpt>
      <trkpt lat="47.26392" lon="-1.59627">
        <ele>29.3</ele>
        <time>2012-01-26T13:46:13Z</time>
      </trkpt>
      <trkpt lat="47.26395" lon="-1.5963">
        <ele>29.7</ele>
        <time>2012-01-26T13:46:16Z</time>
      </trkpt>
      <trkpt lat="47.26397" lon="-1.59634">
        <ele>29.7</ele>
        <time>2012-01-26T13:46:19Z</time>
      </trkpt>
      <trkpt lat="47.264" lon="-1.59639">
        <ele>29.6</ele>
        <time>2012-01-26T13:46:23Z</time>
      </trkpt>
      <trkpt lat="47.26402" lon="-1.59643">
        <ele>29.2</ele>
        <time>2012-01-26T13:46:26Z</time>
      </trkpt>
      <trkpt lat="47.26404" lon="-1.59648">
        <ele>29.2</ele>
        <time>2012-01-26T13:46:29Z</time>
      </trkpt>
      <trkpt lat="47.26406" lon="-1.59653">
        <ele>29.2</ele>
        <time>2012-01-26T13:46:32Z</time>
      </trkpt>
      <trkpt lat="47.26408" lon="-1.59659">
        <ele>29.1</ele>
        <time>2012-01-26T13:46:35Z</time>
      </trkpt>
      <trkpt lat="47.26409" lon="-1.59664">
        <ele>29.2</ele>
        <time>2012-01-26T13:46:38Z</time>
      </trkpt>
      <trkpt lat="47.26411" lon="-1.5967">
        <ele>30.1</ele>
        <time>2012-01-26T13:46:41Z</time>
      </trkpt>
      <trkpt lat="47.26413" lon="-1.59676">
        <ele>29.7</ele>
        <time>2012-01-26T13:46:44Z</time>
      </trkpt>
      <trkpt lat="47.26414" lon="-1.59681">
        <ele>29.7</ele>
        <time>2012-01-26T13:46:47Z</time>
      </trkpt>
      <trkpt lat="47.26416" lon="-1.59687">
        <ele>29.7</ele>
        <time>2012-01-26T13:46:51Z</time>
      </trkpt>
      <trkpt lat="47.26417" lon="-1.59693">
        <ele>29.7</ele>
        <time>2012-01-26T13:46:55Z</time>
      </trkpt>
      <trkpt lat="47.26419" lon="-1.59698">
        <ele>30.2</ele>
        <time>2012-01-26T13:46:59Z</time>
      </trkpt>
      <trkpt lat="47.2642" lon="-1.59703">
        <ele>30.5</ele>
        <time>2012-01-26T13:47:02Z</time>
      </trkpt>
      <trkpt lat="47.26421" lon="-1.59708">
        <ele>30.5</ele>
        <time>2012-01-26T13:47:05Z</time>
      </trkpt>
      <trkpt lat="47.26424" lon="-1.59712">
        <ele>30.3</ele>
        <time>2012-01-26T13:47:08Z</time>
      </trkpt>
      <trkpt lat="47.26425" lon="-1.59714">
        <ele>30.2</ele>
        <time>2012-01-26T13:47:09Z</time>
      </trkpt>
      <trkpt lat="47.26429" lon="-1.5972">
        <ele>30.1</ele>
        <time>2012-01-26T13:47:14Z</time>
      </trkpt>
      <trkpt lat="47.26433" lon="-1.59723">
        <ele>30.2</ele>
        <time>2012-01-26T13:47:17Z</time>
      </trkpt>
      <trkpt lat="47.26436" lon="-1.59725">
        <ele>30.5</ele>
        <time>2012-01-26T13:47:20Z</time>
      </trkpt>
      <trkpt lat="47.26439" lon="-1.59725">
        <ele>30.7</ele>
        <time>2012-01-26T13:47:22Z</time>
      </trkpt>
      <trkpt lat="47.26443" lon="-1.59725">
        <ele>30.8</ele>
        <time>2012-01-26T13:47:25Z</time>
      </trkpt>
      <trkpt lat="47.26446" lon="-1.59724">
        <ele>30.5</ele>
        <time>2012-01-26T13:47:28Z</time>
      </trkpt>
      <trkpt lat="47.26449" lon="-1.59725">
        <ele>30.3</ele>
        <time>2012-01-26T13:47:30Z</time>
      </trkpt>
      <trkpt lat="47.26453" lon="-1.59727">
        <ele>30.6</ele>
        <time>2012-01-26T13:47:32Z</time>
      </trkpt>
      <trkpt lat="47.26457" lon="-1.59729">
        <ele>30.6</ele>
        <time>2012-01-26T13:47:35Z</time>
      </trkpt>
      <trkpt lat="47.2646" lon="-1.59733">
        <ele>30.8</ele>
        <time>2012-01-26T13:47:39Z</time>
      </trkpt>
      <trkpt lat="47.26462" lon="-1.59738">
        <ele>31.5</ele>
        <time>2012-01-26T13:47:43Z</time>
      </trkpt>
      <trkpt lat="47.26464" lon="-1.59743">
        <ele>31.7</ele>
        <time>2012-01-26T13:47:47Z</time>
      </trkpt>
      <trkpt lat="47.26466" lon="-1.59748">
        <ele>31.8</ele>
        <time>2012-01-26T13:47:51Z</time>
      </trkpt>
      <trkpt lat="47.26469" lon="-1.59752">
        <ele>31.7</ele>
        <time>2012-01-26T13:47:55Z</time>
      </trkpt>
      <trkpt lat="47.26472" lon="-1.59756">
        <ele>32.2</ele>
        <time>2012-01-26T13:48:00Z</time>
      </trkpt>
      <trkpt lat="47.26474" lon="-1.59761">
        <ele>31.8</ele>
        <time>2012-01-26T13:48:03Z</time>
      </trkpt>
      <trkpt lat="47.26476" lon="-1.59766">
        <ele>32.5</ele>
        <time>2012-01-26T13:48:07Z</time>
      </trkpt>
      <trkpt lat="47.26479" lon="-1.59771">
        <ele>32.9</ele>
        <time>2012-01-26T13:48:11Z</time>
      </trkpt>
      <trkpt lat="47.26479" lon="-1.59772">
        <ele>32.7</ele>
        <time>2012-01-26T13:48:12Z</time>
      </trkpt>
      <trkpt lat="47.26484" lon="-1.5978">
        <ele>32.5</ele>
        <time>2012-01-26T13:48:19Z</time>
      </trkpt>
      <trkpt lat="47.26486" lon="-1.59784">
        <ele>32.5</ele>
        <time>2012-01-26T13:48:23Z</time>
      </trkpt>
      <trkpt lat="47.26489" lon="-1.59789">
        <ele>33.5</ele>
        <time>2012-01-26T13:48:27Z</time>
      </trkpt>
      <trkpt lat="47.26491" lon="-1.59793">
        <ele>32.7</ele>
        <time>2012-01-26T13:48:30Z</time>
      </trkpt>
      <trkpt lat="47.26494" lon="-1.59797">
        <ele>33.7</ele>
        <time>2012-01-26T13:48:34Z</time>
      </trkpt>
      <trkpt lat="47.26497" lon="-1.59801">
        <ele>33.2</ele>
        <time>2012-01-26T13:48:38Z</time>
      </trkpt>
      <trkpt lat="47.265" lon="-1.59805">
        <ele>33.7</ele>
        <time>2012-01-26T13:48:42Z</time>
      </trkpt>
      <trkpt lat="47.26502" lon="-1.59809">
        <ele>33.9</ele>
        <time>2012-01-26T13:48:46Z</time>
      </trkpt>
      <trkpt lat="47.26505" lon="-1.59813">
        <ele>34.2</ele>
        <time>2012-01-26T13:48:50Z</time>
      </trkpt>
      <trkpt lat="47.26508" lon="-1.59817">
        <ele>34.5</ele>
        <time>2012-01-26T13:48:54Z</time>
      </trkpt>
      <trkpt lat="47.26512" lon="-1.59821">
        <ele>34.7</ele>
        <time>2012-01-26T13:48:59Z</time>
      </trkpt>
      <trkpt lat="47.26515" lon="-1.59825">
        <ele>34.5</ele>
        <time>2012-01-26T13:49:03Z</time>
      </trkpt>
      <trkpt lat="47.26517" lon="-1.59829">
        <ele>34.7</ele>
        <time>2012-01-26T13:49:06Z</time>
      </trkpt>
      <trkpt lat="47.2652" lon="-1.59833">
        <ele>35.5</ele>
        <time>2012-01-26T13:49:10Z</time>
      </trkpt>
      <trkpt lat="47.26523" lon="-1.59837">
        <ele>36.4</ele>
        <time>2012-01-26T13:49:14Z</time>
      </trkpt>
      <trkpt lat="47.26524" lon="-1.59838">
        <ele>36.5</ele>
        <time>2012-01-26T13:49:15Z</time>
      </trkpt>
      <trkpt lat="47.26528" lon="-1.59845">
        <ele>36.9</ele>
        <time>2012-01-26T13:49:22Z</time>
      </trkpt>
      <trkpt lat="47.26531" lon="-1.59849">
        <ele>36.9</ele>
        <time>2012-01-26T13:49:26Z</time>
      </trkpt>
      <trkpt lat="47.26534" lon="-1.59853">
        <ele>36.7</ele>
        <time>2012-01-26T13:49:30Z</time>
      </trkpt>
      <trkpt lat="47.26537" lon="-1.59856">
        <ele>36.7</ele>
        <time>2012-01-26T13:49:33Z</time>
      </trkpt>
      <trkpt lat="47.2654" lon="-1.5986">
        <ele>37</ele>
        <time>2012-01-26T13:49:37Z</time>
      </trkpt>
      <trkpt lat="47.26543" lon="-1.59863">
        <ele>37.2</ele>
        <time>2012-01-26T13:49:41Z</time>
      </trkpt>
      <trkpt lat="47.26547" lon="-1.59867">
        <ele>37.2</ele>
        <time>2012-01-26T13:49:45Z</time>
      </trkpt>
      <trkpt lat="47.2655" lon="-1.59871">
        <ele>38</ele>
        <time>2012-01-26T13:49:49Z</time>
      </trkpt>
      <trkpt lat="47.26552" lon="-1.59875">
        <ele>38</ele>
        <time>2012-01-26T13:49:53Z</time>
      </trkpt>
      <trkpt lat="47.26555" lon="-1.59878">
        <ele>38.4</ele>
        <time>2012-01-26T13:49:56Z</time>
      </trkpt>
      <trkpt lat="47.26558" lon="-1.59882">
        <ele>38.5</ele>
        <time>2012-01-26T13:50:00Z</time>
      </trkpt>
      <trkpt lat="47.26562" lon="-1.59885">
        <ele>38.9</ele>
        <time>2012-01-26T13:50:04Z</time>
      </trkpt>
      <trkpt lat="47.26565" lon="-1.59888">
        <ele>39.5</ele>
        <time>2012-01-26T13:50:08Z</time>
      </trkpt>
      <trkpt lat="47.26569" lon="-1.59892">
        <ele>39.7</ele>
        <time>2012-01-26T13:50:12Z</time>
      </trkpt>
      <trkpt lat="47.26572" lon="-1.59896">
        <ele>40</ele>
        <time>2012-01-26T13:50:16Z</time>
      </trkpt>
      <trkpt lat="47.26573" lon="-1.59897">
        <ele>40.2</ele>
        <time>2012-01-26T13:50:17Z</time>
      </trkpt>
      <trkpt lat="47.26579" lon="-1.59903">
        <ele>40.4</ele>
        <time>2012-01-26T13:50:24Z</time>
      </trkpt>
      <trkpt lat="47.26582" lon="-1.59906">
        <ele>40.2</ele>
        <time>2012-01-26T13:50:28Z</time>
      </trkpt>
      <trkpt lat="47.26585" lon="-1.5991">
        <ele>40.4</ele>
        <time>2012-01-26T13:50:32Z</time>
      </trkpt>
      <trkpt lat="47.26588" lon="-1.59915">
        <ele>40.7</ele>
        <time>2012-01-26T13:50:36Z</time>
      </trkpt>
      <trkpt lat="47.26591" lon="-1.59918">
        <ele>41</ele>
        <time>2012-01-26T13:50:40Z</time>
      </trkpt>
      <trkpt lat="47.26595" lon="-1.59922">
        <ele>41</ele>
        <time>2012-01-26T13:50:45Z</time>
      </trkpt>
      <trkpt lat="47.26598" lon="-1.59926">
        <ele>41.5</ele>
        <time>2012-01-26T13:50:49Z</time>
      </trkpt>
      <trkpt lat="47.26602" lon="-1.59929">
        <ele>42</ele>
        <time>2012-01-26T13:50:53Z</time>
      </trkpt>
      <trkpt lat="47.26605" lon="-1.59933">
        <ele>42.4</ele>
        <time>2012-01-26T13:50:57Z</time>
      </trkpt>
      <trkpt lat="47.26609" lon="-1.59937">
        <ele>42.5</ele>
        <time>2012-01-26T13:51:01Z</time>
      </trkpt>
      <trkpt lat="47.26612" lon="-1.5994">
        <ele>42.7</ele>
        <time>2012-01-26T13:51:05Z</time>
      </trkpt>
      <trkpt lat="47.26615" lon="-1.59944">
        <ele>43.2</ele>
        <time>2012-01-26T13:51:09Z</time>
      </trkpt>
      <trkpt lat="47.26618" lon="-1.59948">
        <ele>43</ele>
        <time>2012-01-26T13:51:12Z</time>
      </trkpt>
      <trkpt lat="47.2662" lon="-1.59951">
        <ele>43.7</ele>
        <time>2012-01-26T13:51:15Z</time>
      </trkpt>
      <trkpt lat="47.26623" lon="-1.59955">
        <ele>43.2</ele>
        <time>2012-01-26T13:51:18Z</time>
      </trkpt>
      <trkpt lat="47.26623" lon="-1.59956">
        <ele>43</ele>
        <time>2012-01-26T13:51:19Z</time>
      </trkpt>
      <trkpt lat="47.26629" lon="-1.59963">
        <ele>44.2</ele>
        <time>2012-01-26T13:51:26Z</time>
      </trkpt>
      <trkpt lat="47.26632" lon="-1.59967">
        <ele>44.2</ele>
        <time>2012-01-26T13:51:30Z</time>
      </trkpt>
      <trkpt lat="47.26634" lon="-1.59971">
        <ele>44.2</ele>
        <time>2012-01-26T13:51:33Z</time>
      </trkpt>
      <trkpt lat="47.26637" lon="-1.59976">
        <ele>44.2</ele>
        <time>2012-01-26T13:51:37Z</time>
      </trkpt>
      <trkpt lat="47.26639" lon="-1.5998">
        <ele>44.7</ele>
        <time>2012-01-26T13:51:41Z</time>
      </trkpt>
      <trkpt lat="47.26642" lon="-1.59985">
        <ele>44.9</ele>
        <time>2012-01-26T13:51:45Z</time>
      </trkpt>
      <trkpt lat="47.26645" lon="-1.59989">
        <ele>45.2</ele>
        <time>2012-01-26T13:51:49Z</time>
      </trkpt>
      <trkpt lat="47.26648" lon="-1.59994">
        <ele>45.9</ele>
        <time>2012-01-26T13:51:53Z</time>
      </trkpt>
      <trkpt lat="47.26651" lon="-1.59997">
        <ele>46.4</ele>
        <time>2012-01-26T13:51:56Z</time>
      </trkpt>
      <trkpt lat="47.26653" lon="-1.6">
        <ele>46.2</ele>
        <time>2012-01-26T13:51:59Z</time>
      </trkpt>
      <trkpt lat="47.26655" lon="-1.60004">
        <ele>46</ele>
        <time>2012-01-26T13:52:02Z</time>
      </trkpt>
      <trkpt lat="47.26659" lon="-1.60008">
        <ele>46.5</ele>
        <time>2012-01-26T13:52:06Z</time>
      </trkpt>
      <trkpt lat="47.26661" lon="-1.60011">
        <ele>46.7</ele>
        <time>2012-01-26T13:52:09Z</time>
      </trkpt>
      <trkpt lat="47.26664" lon="-1.60015">
        <ele>46.9</ele>
        <time>2012-01-26T13:52:13Z</time>
      </trkpt>
      <trkpt lat="47.26668" lon="-1.60019">
        <ele>47.7</ele>
        <time>2012-01-26T13:52:17Z</time>
      </trkpt>
      <trkpt lat="47.26672" lon="-1.6002">
        <ele>47.5</ele>
        <time>2012-01-26T13:52:22Z</time>
      </trkpt>
      <trkpt lat="47.26673" lon="-1.60021">
        <ele>47.4</ele>
        <time>2012-01-26T13:52:23Z</time>
      </trkpt>
      <trkpt lat="47.26679" lon="-1.60025">
        <ele>47.5</ele>
        <time>2012-01-26T13:52:32Z</time>
      </trkpt>
      <trkpt lat="47.26682" lon="-1.60029">
        <ele>47.7</ele>
        <time>2012-01-26T13:52:37Z</time>
      </trkpt>
      <trkpt lat="47.26685" lon="-1.60033">
        <ele>48.4</ele>
        <time>2012-01-26T13:52:42Z</time>
      </trkpt>
      <trkpt lat="47.26688" lon="-1.60036">
        <ele>48.2</ele>
        <time>2012-01-26T13:52:46Z</time>
      </trkpt>
      <trkpt lat="47.26691" lon="-1.6004">
        <ele>48.5</ele>
        <time>2012-01-26T13:52:50Z</time>
      </trkpt>
      <trkpt lat="47.26694" lon="-1.60044">
        <ele>48.4</ele>
        <time>2012-01-26T13:52:54Z</time>
      </trkpt>
      <trkpt lat="47.26697" lon="-1.60048">
        <ele>48.2</ele>
        <time>2012-01-26T13:52:57Z</time>
      </trkpt>
      <trkpt lat="47.26699" lon="-1.60053">
        <ele>48.2</ele>
        <time>2012-01-26T13:53:00Z</time>
      </trkpt>
      <trkpt lat="47.26702" lon="-1.60057">
        <ele>48.5</ele>
        <time>2012-01-26T13:53:03Z</time>
      </trkpt>
      <trkpt lat="47.26705" lon="-1.6006">
        <ele>48.5</ele>
        <time>2012-01-26T13:53:06Z</time>
      </trkpt>
      <trkpt lat="47.26708" lon="-1.60063">
        <ele>48.2</ele>
        <time>2012-01-26T13:53:09Z</time>
      </trkpt>
      <trkpt lat="47.26711" lon="-1.60068">
        <ele>48.2</ele>
        <time>2012-01-26T13:53:12Z</time>
      </trkpt>
      <trkpt lat="47.26713" lon="-1.60072">
        <ele>48.4</ele>
        <time>2012-01-26T13:53:15Z</time>
      </trkpt>
      <trkpt lat="47.26716" lon="-1.60077">
        <ele>48.2</ele>
        <time>2012-01-26T13:53:19Z</time>
      </trkpt>
      <trkpt lat="47.26718" lon="-1.60083">
        <ele>49.4</ele>
        <time>2012-01-26T13:53:25Z</time>
      </trkpt>
      <trkpt lat="47.26718" lon="-1.60084">
        <ele>49.5</ele>
        <time>2012-01-26T13:53:26Z</time>
      </trkpt>
      <trkpt lat="47.26719" lon="-1.60095">
        <ele>48.7</ele>
        <time>2012-01-26T13:53:33Z</time>
      </trkpt>
      <trkpt lat="47.2672" lon="-1.601">
        <ele>49.7</ele>
        <time>2012-01-26T13:53:36Z</time>
      </trkpt>
      <trkpt lat="47.2672" lon="-1.60105">
        <ele>49.7</ele>
        <time>2012-01-26T13:53:39Z</time>
      </trkpt>
      <trkpt lat="47.26721" lon="-1.60111">
        <ele>49.5</ele>
        <time>2012-01-26T13:53:42Z</time>
      </trkpt>
      <trkpt lat="47.26719" lon="-1.60115">
        <ele>49.7</ele>
        <time>2012-01-26T13:53:45Z</time>
      </trkpt>
      <trkpt lat="47.26717" lon="-1.6012">
        <ele>50.2</ele>
        <time>2012-01-26T13:53:48Z</time>
      </trkpt>
      <trkpt lat="47.26715" lon="-1.60125">
        <ele>49.7</ele>
        <time>2012-01-26T13:53:51Z</time>
      </trkpt>
      <trkpt lat="47.26714" lon="-1.60131">
        <ele>49.9</ele>
        <time>2012-01-26T13:53:55Z</time>
      </trkpt>
      <trkpt lat="47.26715" lon="-1.60137">
        <ele>49.9</ele>
        <time>2012-01-26T13:53:59Z</time>
      </trkpt>
      <trkpt lat="47.26717" lon="-1.60142">
        <ele>50.2</ele>
        <time>2012-01-26T13:54:02Z</time>
      </trkpt>
      <trkpt lat="47.2672" lon="-1.60146">
        <ele>50</ele>
        <time>2012-01-26T13:54:05Z</time>
      </trkpt>
      <trkpt lat="47.26723" lon="-1.60149">
        <ele>50.5</ele>
        <time>2012-01-26T13:54:08Z</time>
      </trkpt>
      <trkpt lat="47.26725" lon="-1.60153">
        <ele>50.7</ele>
        <time>2012-01-26T13:54:11Z</time>
      </trkpt>
      <trkpt lat="47.26728" lon="-1.60157">
        <ele>50.5</ele>
        <time>2012-01-26T13:54:14Z</time>
      </trkpt>
      <trkpt lat="47.2673" lon="-1.60161">
        <ele>50.5</ele>
        <time>2012-01-26T13:54:17Z</time>
      </trkpt>
      <trkpt lat="47.26733" lon="-1.60166">
        <ele>50.5</ele>
        <time>2012-01-26T13:54:20Z</time>
      </trkpt>
      <trkpt lat="47.26735" lon="-1.6017">
        <ele>50.7</ele>
        <time>2012-01-26T13:54:23Z</time>
      </trkpt>
      <trkpt lat="47.26737" lon="-1.60174">
        <ele>51</ele>
        <time>2012-01-26T13:54:26Z</time>
      </trkpt>
      <trkpt lat="47.26738" lon="-1.60175">
        <ele>51</ele>
        <time>2012-01-26T13:54:27Z</time>
      </trkpt>
      <trkpt lat="47.26741" lon="-1.60185">
        <ele>50.5</ele>
        <time>2012-01-26T13:54:34Z</time>
      </trkpt>
      <trkpt lat="47.26742" lon="-1.6019">
        <ele>50.2</ele>
        <time>2012-01-26T13:54:38Z</time>
      </trkpt>
      <trkpt lat="47.26745" lon="-1.60196">
        <ele>51</ele>
        <time>2012-01-26T13:54:42Z</time>
      </trkpt>
      <trkpt lat="47.26747" lon="-1.60201">
        <ele>50.5</ele>
        <time>2012-01-26T13:54:46Z</time>
      </trkpt>
      <trkpt lat="47.2675" lon="-1.60206">
        <ele>50.5</ele>
        <time>2012-01-26T13:54:50Z</time>
      </trkpt>
      <trkpt lat="47.26752" lon="-1.60211">
        <ele>50.7</ele>
        <time>2012-01-26T13:54:54Z</time>
      </trkpt>
      <trkpt lat="47.26753" lon="-1.60217">
        <ele>50.5</ele>
        <time>2012-01-26T13:54:59Z</time>
      </trkpt>
      <trkpt lat="47.26755" lon="-1.60223">
        <ele>51.2</ele>
        <time>2012-01-26T13:55:04Z</time>
      </trkpt>
      <trkpt lat="47.26756" lon="-1.60228">
        <ele>50.7</ele>
        <time>2012-01-26T13:55:08Z</time>
      </trkpt>
      <trkpt lat="47.26758" lon="-1.60233">
        <ele>50.5</ele>
        <time>2012-01-26T13:55:12Z</time>
      </trkpt>
      <trkpt lat="47.2676" lon="-1.60238">
        <ele>51.2</ele>
        <time>2012-01-26T13:55:16Z</time>
      </trkpt>
      <trkpt lat="47.26761" lon="-1.60244">
        <ele>51</ele>
        <time>2012-01-26T13:55:20Z</time>
      </trkpt>
      <trkpt lat="47.26762" lon="-1.6025">
        <ele>51.2</ele>
        <time>2012-01-26T13:55:24Z</time>
      </trkpt>
      <trkpt lat="47.26763" lon="-1.60256">
        <ele>51.5</ele>
        <time>2012-01-26T13:55:28Z</time>
      </trkpt>
      <trkpt lat="47.26763" lon="-1.60257">
        <ele>51.5</ele>
        <time>2012-01-26T13:55:29Z</time>
      </trkpt>
      <trkpt lat="47.26764" lon="-1.60268">
        <ele>51.5</ele>
        <time>2012-01-26T13:55:36Z</time>
      </trkpt>
      <trkpt lat="47.26765" lon="-1.60273">
        <ele>51.2</ele>
        <time>2012-01-26T13:55:39Z</time>
      </trkpt>
      <trkpt lat="47.26766" lon="-1.60279">
        <ele>51</ele>
        <time>2012-01-26T13:55:43Z</time>
      </trkpt>
      <trkpt lat="47.26767" lon="-1.60284">
        <ele>51.7</ele>
        <time>2012-01-26T13:55:46Z</time>
      </trkpt>
      <trkpt lat="47.26768" lon="-1.60289">
        <ele>52</ele>
        <time>2012-01-26T13:55:49Z</time>
      </trkpt>
      <trkpt lat="47.2677" lon="-1.60294">
        <ele>51.4</ele>
        <time>2012-01-26T13:55:52Z</time>
      </trkpt>
      <trkpt lat="47.2677" lon="-1.60299">
        <ele>50.9</ele>
        <time>2012-01-26T13:55:55Z</time>
      </trkpt>
      <trkpt lat="47.26771" lon="-1.60304">
        <ele>51</ele>
        <time>2012-01-26T13:55:58Z</time>
      </trkpt>
      <trkpt lat="47.26772" lon="-1.60309">
        <ele>51.5</ele>
        <time>2012-01-26T13:56:01Z</time>
      </trkpt>
      <trkpt lat="47.26773" lon="-1.60315">
        <ele>51.7</ele>
        <time>2012-01-26T13:56:05Z</time>
      </trkpt>
      <trkpt lat="47.26774" lon="-1.60321">
        <ele>51.5</ele>
        <time>2012-01-26T13:56:09Z</time>
      </trkpt>
      <trkpt lat="47.26776" lon="-1.60326">
        <ele>51.5</ele>
        <time>2012-01-26T13:56:12Z</time>
      </trkpt>
      <trkpt lat="47.26777" lon="-1.60331">
        <ele>52</ele>
        <time>2012-01-26T13:56:16Z</time>
      </trkpt>
      <trkpt lat="47.26778" lon="-1.60336">
        <ele>52.2</ele>
        <time>2012-01-26T13:56:19Z</time>
      </trkpt>
      <trkpt lat="47.26779" lon="-1.60341">
        <ele>52</ele>
        <time>2012-01-26T13:56:22Z</time>
      </trkpt>
      <trkpt lat="47.2678" lon="-1.60347">
        <ele>52.2</ele>
        <time>2012-01-26T13:56:25Z</time>
      </trkpt>
      <trkpt lat="47.26781" lon="-1.60352">
        <ele>52.2</ele>
        <time>2012-01-26T13:56:28Z</time>
      </trkpt>
      <trkpt lat="47.26782" lon="-1.60357">
        <ele>52</ele>
        <time>2012-01-26T13:56:31Z</time>
      </trkpt>
      <trkpt lat="47.26782" lon="-1.60359">
        <ele>52</ele>
        <time>2012-01-26T13:56:32Z</time>
      </trkpt>
      <trkpt lat="47.26784" lon="-1.60369">
        <ele>53.2</ele>
        <time>2012-01-26T13:56:39Z</time>
      </trkpt>
      <trkpt lat="47.26785" lon="-1.60375">
        <ele>53</ele>
        <time>2012-01-26T13:56:43Z</time>
      </trkpt>
      <trkpt lat="47.26786" lon="-1.6038">
        <ele>52.9</ele>
        <time>2012-01-26T13:56:46Z</time>
      </trkpt>
      <trkpt lat="47.26787" lon="-1.60386">
        <ele>52.7</ele>
        <time>2012-01-26T13:56:50Z</time>
      </trkpt>
      <trkpt lat="47.26788" lon="-1.60391">
        <ele>52.7</ele>
        <time>2012-01-26T13:56:53Z</time>
      </trkpt>
      <trkpt lat="47.26789" lon="-1.60396">
        <ele>52.7</ele>
        <time>2012-01-26T13:56:56Z</time>
      </trkpt>
      <trkpt lat="47.2679" lon="-1.60402">
        <ele>52.7</ele>
        <time>2012-01-26T13:57:00Z</time>
      </trkpt>
      <trkpt lat="47.26792" lon="-1.60408">
        <ele>52.7</ele>
        <time>2012-01-26T13:57:04Z</time>
      </trkpt>
      <trkpt lat="47.26793" lon="-1.60414">
        <ele>53</ele>
        <time>2012-01-26T13:57:08Z</time>
      </trkpt>
      <trkpt lat="47.26795" lon="-1.6042">
        <ele>53.2</ele>
        <time>2012-01-26T13:57:12Z</time>
      </trkpt>
      <trkpt lat="47.26796" lon="-1.60426">
        <ele>52.7</ele>
        <time>2012-01-26T13:57:16Z</time>
      </trkpt>
      <trkpt lat="47.26797" lon="-1.60431">
        <ele>52.9</ele>
        <time>2012-01-26T13:57:20Z</time>
      </trkpt>
      <trkpt lat="47.26798" lon="-1.60437">
        <ele>52.5</ele>
        <time>2012-01-26T13:57:23Z</time>
      </trkpt>
      <trkpt lat="47.26799" lon="-1.60442">
        <ele>53</ele>
        <time>2012-01-26T13:57:26Z</time>
      </trkpt>
      <trkpt lat="47.268" lon="-1.60447">
        <ele>53</ele>
        <time>2012-01-26T13:57:29Z</time>
      </trkpt>
      <trkpt lat="47.26801" lon="-1.60452">
        <ele>52.9</ele>
        <time>2012-01-26T13:57:32Z</time>
      </trkpt>
      <trkpt lat="47.26801" lon="-1.60453">
        <ele>52.7</ele>
        <time>2012-01-26T13:57:33Z</time>
      </trkpt>
      <trkpt lat="47.26803" lon="-1.60463">
        <ele>53.4</ele>
        <time>2012-01-26T13:57:39Z</time>
      </trkpt>
      <trkpt lat="47.26804" lon="-1.60469">
        <ele>53.7</ele>
        <time>2012-01-26T13:57:43Z</time>
      </trkpt>
      <trkpt lat="47.26805" lon="-1.60475">
        <ele>54</ele>
        <time>2012-01-26T13:57:47Z</time>
      </trkpt>
      <trkpt lat="47.26806" lon="-1.60481">
        <ele>53.2</ele>
        <time>2012-01-26T13:57:51Z</time>
      </trkpt>
      <trkpt lat="47.26807" lon="-1.60487">
        <ele>53.7</ele>
        <time>2012-01-26T13:57:55Z</time>
      </trkpt>
      <trkpt lat="47.26808" lon="-1.60493">
        <ele>53.7</ele>
        <time>2012-01-26T13:57:59Z</time>
      </trkpt>
      <trkpt lat="47.2681" lon="-1.60498">
        <ele>53.7</ele>
        <time>2012-01-26T13:58:02Z</time>
      </trkpt>
      <trkpt lat="47.26811" lon="-1.60504">
        <ele>54</ele>
        <time>2012-01-26T13:58:06Z</time>
      </trkpt>
      <trkpt lat="47.26812" lon="-1.6051">
        <ele>54</ele>
        <time>2012-01-26T13:58:10Z</time>
      </trkpt>
      <trkpt lat="47.26813" lon="-1.60515">
        <ele>54</ele>
        <time>2012-01-26T13:58:14Z</time>
      </trkpt>
      <trkpt lat="47.26814" lon="-1.60522">
        <ele>53.7</ele>
        <time>2012-01-26T13:58:18Z</time>
      </trkpt>
      <trkpt lat="47.26815" lon="-1.60527">
        <ele>54</ele>
        <time>2012-01-26T13:58:22Z</time>
      </trkpt>
      <trkpt lat="47.26816" lon="-1.60534">
        <ele>53.7</ele>
        <time>2012-01-26T13:58:26Z</time>
      </trkpt>
      <trkpt lat="47.26817" lon="-1.60539">
        <ele>53.2</ele>
        <time>2012-01-26T13:58:29Z</time>
      </trkpt>
      <trkpt lat="47.26818" lon="-1.60544">
        <ele>53.4</ele>
        <time>2012-01-26T13:58:32Z</time>
      </trkpt>
      <trkpt lat="47.26819" lon="-1.6055">
        <ele>54</ele>
        <time>2012-01-26T13:58:36Z</time>
      </trkpt>
      <trkpt lat="47.26819" lon="-1.60552">
        <ele>54</ele>
        <time>2012-01-26T13:58:37Z</time>
      </trkpt>
      <trkpt lat="47.26821" lon="-1.60561">
        <ele>53.5</ele>
        <time>2012-01-26T13:58:43Z</time>
      </trkpt>
      <trkpt lat="47.26822" lon="-1.60567">
        <ele>54</ele>
        <time>2012-01-26T13:58:46Z</time>
      </trkpt>
      <trkpt lat="47.26823" lon="-1.60573">
        <ele>54.4</ele>
        <time>2012-01-26T13:58:49Z</time>
      </trkpt>
      <trkpt lat="47.26823" lon="-1.60579">
        <ele>54.2</ele>
        <time>2012-01-26T13:58:52Z</time>
      </trkpt>
      <trkpt lat="47.26823" lon="-1.60585">
        <ele>53.9</ele>
        <time>2012-01-26T13:58:55Z</time>
      </trkpt>
      <trkpt lat="47.26824" lon="-1.6059">
        <ele>53.7</ele>
        <time>2012-01-26T13:58:58Z</time>
      </trkpt>
      <trkpt lat="47.26825" lon="-1.60596">
        <ele>53.4</ele>
        <time>2012-01-26T13:59:02Z</time>
      </trkpt>
      <trkpt lat="47.26826" lon="-1.60601">
        <ele>53.4</ele>
        <time>2012-01-26T13:59:05Z</time>
      </trkpt>
      <trkpt lat="47.26828" lon="-1.60607">
        <ele>54</ele>
        <time>2012-01-26T13:59:09Z</time>
      </trkpt>
      <trkpt lat="47.26832" lon="-1.60611">
        <ele>53.9</ele>
        <time>2012-01-26T13:59:13Z</time>
      </trkpt>
      <trkpt lat="47.26835" lon="-1.60612">
        <ele>54</ele>
        <time>2012-01-26T13:59:17Z</time>
      </trkpt>
      <trkpt lat="47.26839" lon="-1.60614">
        <ele>53.2</ele>
        <time>2012-01-26T13:59:21Z</time>
      </trkpt>
      <trkpt lat="47.26843" lon="-1.60615">
        <ele>53.2</ele>
        <time>2012-01-26T13:59:26Z</time>
      </trkpt>
      <trkpt lat="47.26847" lon="-1.60616">
        <ele>53.5</ele>
        <time>2012-01-26T13:59:31Z</time>
      </trkpt>
      <trkpt lat="47.26851" lon="-1.60617">
        <ele>54</ele>
        <time>2012-01-26T13:59:34Z</time>
      </trkpt>
      <trkpt lat="47.26855" lon="-1.60617">
        <ele>53.2</ele>
        <time>2012-01-26T13:59:38Z</time>
      </trkpt>
      <trkpt lat="47.26856" lon="-1.60616">
        <ele>53</ele>
        <time>2012-01-26T13:59:39Z</time>
      </trkpt>
      <trkpt lat="47.26863" lon="-1.60615">
        <ele>53.7</ele>
        <time>2012-01-26T13:59:46Z</time>
      </trkpt>
      <trkpt lat="47.26866" lon="-1.60614">
        <ele>54</ele>
        <time>2012-01-26T13:59:50Z</time>
      </trkpt>
      <trkpt lat="47.2687" lon="-1.60613">
        <ele>53.7</ele>
        <time>2012-01-26T13:59:53Z</time>
      </trkpt>
      <trkpt lat="47.26873" lon="-1.60611">
        <ele>53.5</ele>
        <time>2012-01-26T13:59:56Z</time>
      </trkpt>
      <trkpt lat="47.26877" lon="-1.6061">
        <ele>53.5</ele>
        <time>2012-01-26T14:00:00Z</time>
      </trkpt>
      <trkpt lat="47.26881" lon="-1.60609">
        <ele>53.5</ele>
        <time>2012-01-26T14:00:04Z</time>
      </trkpt>
      <trkpt lat="47.26884" lon="-1.60608">
        <ele>53.7</ele>
        <time>2012-01-26T14:00:07Z</time>
      </trkpt>
      <trkpt lat="47.26887" lon="-1.60606">
        <ele>53.2</ele>
        <time>2012-01-26T14:00:10Z</time>
      </trkpt>
      <trkpt lat="47.26891" lon="-1.60605">
        <ele>53</ele>
        <time>2012-01-26T14:00:13Z</time>
      </trkpt>
      <trkpt lat="47.26895" lon="-1.60604">
        <ele>53.5</ele>
        <time>2012-01-26T14:00:17Z</time>
      </trkpt>
      <trkpt lat="47.26899" lon="-1.60603">
        <ele>53.5</ele>
        <time>2012-01-26T14:00:21Z</time>
      </trkpt>
      <trkpt lat="47.26903" lon="-1.60602">
        <ele>53.2</ele>
        <time>2012-01-26T14:00:25Z</time>
      </trkpt>
      <trkpt lat="47.26907" lon="-1.60601">
        <ele>53.7</ele>
        <time>2012-01-26T14:00:29Z</time>
      </trkpt>
      <trkpt lat="47.26911" lon="-1.60599">
        <ele>53.9</ele>
        <time>2012-01-26T14:00:33Z</time>
      </trkpt>
      <trkpt lat="47.26915" lon="-1.60599">
        <ele>53.9</ele>
        <time>2012-01-26T14:00:36Z</time>
      </trkpt>
      <trkpt lat="47.26918" lon="-1.60598">
        <ele>54</ele>
        <time>2012-01-26T14:00:39Z</time>
      </trkpt>
      <trkpt lat="47.2692" lon="-1.60597">
        <ele>54.2</ele>
        <time>2012-01-26T14:00:40Z</time>
      </trkpt>
      <trkpt lat="47.26926" lon="-1.60595">
        <ele>53.7</ele>
        <time>2012-01-26T14:00:46Z</time>
      </trkpt>
      <trkpt lat="47.2693" lon="-1.60594">
        <ele>53.2</ele>
        <time>2012-01-26T14:00:49Z</time>
      </trkpt>
      <trkpt lat="47.26934" lon="-1.60593">
        <ele>52.9</ele>
        <time>2012-01-26T14:00:53Z</time>
      </trkpt>
      <trkpt lat="47.26938" lon="-1.60592">
        <ele>53.2</ele>
        <time>2012-01-26T14:00:56Z</time>
      </trkpt>
      <trkpt lat="47.26942" lon="-1.60591">
        <ele>53.2</ele>
        <time>2012-01-26T14:00:59Z</time>
      </trkpt>
      <trkpt lat="47.26946" lon="-1.6059">
        <ele>53.2</ele>
        <time>2012-01-26T14:01:02Z</time>
      </trkpt>
      <trkpt lat="47.26949" lon="-1.60589">
        <ele>53.5</ele>
        <time>2012-01-26T14:01:05Z</time>
      </trkpt>
      <trkpt lat="47.26954" lon="-1.60588">
        <ele>53.2</ele>
        <time>2012-01-26T14:01:09Z</time>
      </trkpt>
      <trkpt lat="47.26957" lon="-1.60587">
        <ele>53.7</ele>
        <time>2012-01-26T14:01:13Z</time>
      </trkpt>
      <trkpt lat="47.26961" lon="-1.60586">
        <ele>53.4</ele>
        <time>2012-01-26T14:01:17Z</time>
      </trkpt>
      <trkpt lat="47.26965" lon="-1.60585">
        <ele>53.5</ele>
        <time>2012-01-26T14:01:21Z</time>
      </trkpt>
      <trkpt lat="47.2697" lon="-1.60583">
        <ele>53.4</ele>
        <time>2012-01-26T14:01:24Z</time>
      </trkpt>
      <trkpt lat="47.26973" lon="-1.60582">
        <ele>53.5</ele>
        <time>2012-01-26T14:01:27Z</time>
      </trkpt>
      <trkpt lat="47.26977" lon="-1.60581">
        <ele>53.4</ele>
        <time>2012-01-26T14:01:30Z</time>
      </trkpt>
      <trkpt lat="47.2698" lon="-1.60579">
        <ele>53.4</ele>
        <time>2012-01-26T14:01:33Z</time>
      </trkpt>
      <trkpt lat="47.26984" lon="-1.60578">
        <ele>53.2</ele>
        <time>2012-01-26T14:01:37Z</time>
      </trkpt>
      <trkpt lat="47.26988" lon="-1.60577">
        <ele>52.9</ele>
        <time>2012-01-26T14:01:41Z</time>
      </trkpt>
      <trkpt lat="47.26989" lon="-1.60576">
        <ele>53</ele>
        <time>2012-01-26T14:01:42Z</time>
      </trkpt>
      <trkpt lat="47.26996" lon="-1.60573">
        <ele>53.7</ele>
        <time>2012-01-26T14:01:49Z</time>
      </trkpt>
      <trkpt lat="47.27" lon="-1.60572">
        <ele>53.7</ele>
        <time>2012-01-26T14:01:53Z</time>
      </trkpt>
      <trkpt lat="47.27005" lon="-1.60571">
        <ele>53.9</ele>
        <time>2012-01-26T14:01:58Z</time>
      </trkpt>
      <trkpt lat="47.27009" lon="-1.60569">
        <ele>53.9</ele>
        <time>2012-01-26T14:02:02Z</time>
      </trkpt>
      <trkpt lat="47.27012" lon="-1.60568">
        <ele>53.5</ele>
        <time>2012-01-26T14:02:05Z</time>
      </trkpt>
      <trkpt lat="47.27016" lon="-1.60567">
        <ele>53.2</ele>
        <time>2012-01-26T14:02:08Z</time>
      </trkpt>
      <trkpt lat="47.2702" lon="-1.60565">
        <ele>53.2</ele>
        <time>2012-01-26T14:02:12Z</time>
      </trkpt>
      <trkpt lat="47.27023" lon="-1.60564">
        <ele>54</ele>
        <time>2012-01-26T14:02:15Z</time>
      </trkpt>
      <trkpt lat="47.27028" lon="-1.60563">
        <ele>54.4</ele>
        <time>2012-01-26T14:02:19Z</time>
      </trkpt>
      <trkpt lat="47.27031" lon="-1.60562">
        <ele>53.7</ele>
        <time>2012-01-26T14:02:22Z</time>
      </trkpt>
      <trkpt lat="47.27035" lon="-1.60561">
        <ele>53.9</ele>
        <time>2012-01-26T14:02:25Z</time>
      </trkpt>
      <trkpt lat="47.27039" lon="-1.6056">
        <ele>53.7</ele>
        <time>2012-01-26T14:02:28Z</time>
      </trkpt>
      <trkpt lat="47.27042" lon="-1.60559">
        <ele>53.5</ele>
        <time>2012-01-26T14:02:32Z</time>
      </trkpt>
      <trkpt lat="47.27046" lon="-1.60558">
        <ele>53.5</ele>
        <time>2012-01-26T14:02:36Z</time>
      </trkpt>
      <trkpt lat="47.2705" lon="-1.60556">
        <ele>53.5</ele>
        <time>2012-01-26T14:02:40Z</time>
      </trkpt>
      <trkpt lat="47.27054" lon="-1.60555">
        <ele>53.2</ele>
        <time>2012-01-26T14:02:44Z</time>
      </trkpt>
      <trkpt lat="47.27055" lon="-1.60554">
        <ele>53</ele>
        <time>2012-01-26T14:02:45Z</time>
      </trkpt>
      <trkpt lat="47.27062" lon="-1.60552">
        <ele>53.5</ele>
        <time>2012-01-26T14:02:51Z</time>
      </trkpt>
      <trkpt lat="47.27067" lon="-1.60551">
        <ele>53</ele>
        <time>2012-01-26T14:02:55Z</time>
      </trkpt>
      <trkpt lat="47.27071" lon="-1.60549">
        <ele>53.2</ele>
        <time>2012-01-26T14:02:59Z</time>
      </trkpt>
      <trkpt lat="47.27074" lon="-1.60548">
        <ele>53</ele>
        <time>2012-01-26T14:03:02Z</time>
      </trkpt>
      <trkpt lat="47.27077" lon="-1.60547">
        <ele>53</ele>
        <time>2012-01-26T14:03:05Z</time>
      </trkpt>
      <trkpt lat="47.27081" lon="-1.60545">
        <ele>53.2</ele>
        <time>2012-01-26T14:03:08Z</time>
      </trkpt>
      <trkpt lat="47.27085" lon="-1.60544">
        <ele>53.5</ele>
        <time>2012-01-26T14:03:11Z</time>
      </trkpt>
      <trkpt lat="47.27088" lon="-1.60543">
        <ele>53.5</ele>
        <time>2012-01-26T14:03:14Z</time>
      </trkpt>
      <trkpt lat="47.27092" lon="-1.60542">
        <ele>53.5</ele>
        <time>2012-01-26T14:03:17Z</time>
      </trkpt>
      <trkpt lat="47.27096" lon="-1.60541">
        <ele>53.5</ele>
        <time>2012-01-26T14:03:20Z</time>
      </trkpt>
      <trkpt lat="47.271" lon="-1.6054">
        <ele>53.5</ele>
        <time>2012-01-26T14:03:23Z</time>
      </trkpt>
      <trkpt lat="47.27104" lon="-1.60539">
        <ele>53.9</ele>
        <time>2012-01-26T14:03:26Z</time>
      </trkpt>
      <trkpt lat="47.27108" lon="-1.60538">
        <ele>53.9</ele>
        <time>2012-01-26T14:03:29Z</time>
      </trkpt>
      <trkpt lat="47.27111" lon="-1.60537">
        <ele>54</ele>
        <time>2012-01-26T14:03:32Z</time>
      </trkpt>
      <trkpt lat="47.27115" lon="-1.60536">
        <ele>53.5</ele>
        <time>2012-01-26T14:03:35Z</time>
      </trkpt>
      <trkpt lat="47.27119" lon="-1.60535">
        <ele>53.7</ele>
        <time>2012-01-26T14:03:39Z</time>
      </trkpt>
      <trkpt lat="47.27123" lon="-1.60533">
        <ele>54.2</ele>
        <time>2012-01-26T14:03:43Z</time>
      </trkpt>
      <trkpt lat="47.27126" lon="-1.60532">
        <ele>53.9</ele>
        <time>2012-01-26T14:03:46Z</time>
      </trkpt>
      <trkpt lat="47.27128" lon="-1.60532">
        <ele>54</ele>
        <time>2012-01-26T14:03:47Z</time>
      </trkpt>
      <trkpt lat="47.27134" lon="-1.60529">
        <ele>54</ele>
        <time>2012-01-26T14:03:53Z</time>
      </trkpt>
      <trkpt lat="47.27137" lon="-1.60529">
        <ele>54.2</ele>
        <time>2012-01-26T14:03:56Z</time>
      </trkpt>
      <trkpt lat="47.27141" lon="-1.60528">
        <ele>54.2</ele>
        <time>2012-01-26T14:03:59Z</time>
      </trkpt>
      <trkpt lat="47.27145" lon="-1.60526">
        <ele>53.7</ele>
        <time>2012-01-26T14:04:02Z</time>
      </trkpt>
      <trkpt lat="47.27149" lon="-1.60524">
        <ele>53.5</ele>
        <time>2012-01-26T14:04:05Z</time>
      </trkpt>
      <trkpt lat="47.27153" lon="-1.60523">
        <ele>53.7</ele>
        <time>2012-01-26T14:04:08Z</time>
      </trkpt>
      <trkpt lat="47.27156" lon="-1.60522">
        <ele>53.9</ele>
        <time>2012-01-26T14:04:11Z</time>
      </trkpt>
      <trkpt lat="47.2716" lon="-1.60521">
        <ele>53.7</ele>
        <time>2012-01-26T14:04:14Z</time>
      </trkpt>
      <trkpt lat="47.27163" lon="-1.60519">
        <ele>54</ele>
        <time>2012-01-26T14:04:17Z</time>
      </trkpt>
      <trkpt lat="47.27168" lon="-1.60518">
        <ele>53.7</ele>
        <time>2012-01-26T14:04:21Z</time>
      </trkpt>
      <trkpt lat="47.27172" lon="-1.60517">
        <ele>53.5</ele>
        <time>2012-01-26T14:04:25Z</time>
      </trkpt>
      <trkpt lat="47.27176" lon="-1.60516">
        <ele>53.7</ele>
        <time>2012-01-26T14:04:29Z</time>
      </trkpt>
      <trkpt lat="47.27179" lon="-1.60515">
        <ele>53.9</ele>
        <time>2012-01-26T14:04:32Z</time>
      </trkpt>
      <trkpt lat="47.27183" lon="-1.60514">
        <ele>54</ele>
        <time>2012-01-26T14:04:35Z</time>
      </trkpt>
      <trkpt lat="47.27187" lon="-1.60513">
        <ele>54</ele>
        <time>2012-01-26T14:04:38Z</time>
      </trkpt>
      <trkpt lat="47.27191" lon="-1.60512">
        <ele>54</ele>
        <time>2012-01-26T14:04:42Z</time>
      </trkpt>
      <trkpt lat="47.27195" lon="-1.6051">
        <ele>54.4</ele>
        <time>2012-01-26T14:04:45Z</time>
      </trkpt>
      <trkpt lat="47.27198" lon="-1.60509">
        <ele>54.5</ele>
        <time>2012-01-26T14:04:48Z</time>
      </trkpt>
      <trkpt lat="47.27199" lon="-1.60509">
        <ele>54.5</ele>
        <time>2012-01-26T14:04:49Z</time>
      </trkpt>
      <trkpt lat="47.27207" lon="-1.60506">
        <ele>54.4</ele>
        <time>2012-01-26T14:04:55Z</time>
      </trkpt>
      <trkpt lat="47.2721" lon="-1.60505">
        <ele>53.7</ele>
        <time>2012-01-26T14:04:58Z</time>
      </trkpt>
      <trkpt lat="47.27214" lon="-1.60503">
        <ele>53.7</ele>
        <time>2012-01-26T14:05:02Z</time>
      </trkpt>
      <trkpt lat="47.27219" lon="-1.60502">
        <ele>53.2</ele>
        <time>2012-01-26T14:05:06Z</time>
      </trkpt>
      <trkpt lat="47.27222" lon="-1.60501">
        <ele>53.7</ele>
        <time>2012-01-26T14:05:09Z</time>
      </trkpt>
      <trkpt lat="47.27226" lon="-1.605">
        <ele>53.4</ele>
        <time>2012-01-26T14:05:12Z</time>
      </trkpt>
      <trkpt lat="47.2723" lon="-1.60499">
        <ele>53.2</ele>
        <time>2012-01-26T14:05:15Z</time>
      </trkpt>
      <trkpt lat="47.27233" lon="-1.60498">
        <ele>53.7</ele>
        <time>2012-01-26T14:05:18Z</time>
      </trkpt>
      <trkpt lat="47.27237" lon="-1.60497">
        <ele>53.7</ele>
        <time>2012-01-26T14:05:22Z</time>
      </trkpt>
      <trkpt lat="47.2724" lon="-1.60495">
        <ele>54.4</ele>
        <time>2012-01-26T14:05:25Z</time>
      </trkpt>
      <trkpt lat="47.27244" lon="-1.60494">
        <ele>54.7</ele>
        <time>2012-01-26T14:05:28Z</time>
      </trkpt>
      <trkpt lat="47.27248" lon="-1.60492">
        <ele>54.7</ele>
        <time>2012-01-26T14:05:31Z</time>
      </trkpt>
      <trkpt lat="47.27252" lon="-1.6049">
        <ele>53.9</ele>
        <time>2012-01-26T14:05:34Z</time>
      </trkpt>
      <trkpt lat="47.27256" lon="-1.60489">
        <ele>53.5</ele>
        <time>2012-01-26T14:05:37Z</time>
      </trkpt>
      <trkpt lat="47.2726" lon="-1.60488">
        <ele>53.7</ele>
        <time>2012-01-26T14:05:41Z</time>
      </trkpt>
      <trkpt lat="47.27263" lon="-1.60487">
        <ele>54.2</ele>
        <time>2012-01-26T14:05:44Z</time>
      </trkpt>
      <trkpt lat="47.27267" lon="-1.60486">
        <ele>54</ele>
        <time>2012-01-26T14:05:47Z</time>
      </trkpt>
      <trkpt lat="47.27271" lon="-1.60485">
        <ele>53.5</ele>
        <time>2012-01-26T14:05:50Z</time>
      </trkpt>
      <trkpt lat="47.27272" lon="-1.60484">
        <ele>53.7</ele>
        <time>2012-01-26T14:05:51Z</time>
      </trkpt>
      <trkpt lat="47.27278" lon="-1.60482">
        <ele>53.7</ele>
        <time>2012-01-26T14:05:56Z</time>
      </trkpt>
      <trkpt lat="47.27282" lon="-1.60481">
        <ele>53.9</ele>
        <time>2012-01-26T14:06:00Z</time>
      </trkpt>
      <trkpt lat="47.27286" lon="-1.60479">
        <ele>54.5</ele>
        <time>2012-01-26T14:06:03Z</time>
      </trkpt>
      <trkpt lat="47.27289" lon="-1.60478">
        <ele>55</ele>
        <time>2012-01-26T14:06:06Z</time>
      </trkpt>
      <trkpt lat="47.27293" lon="-1.60477">
        <ele>55.2</ele>
        <time>2012-01-26T14:06:09Z</time>
      </trkpt>
      <trkpt lat="47.27296" lon="-1.60476">
        <ele>55</ele>
        <time>2012-01-26T14:06:12Z</time>
      </trkpt>
      <trkpt lat="47.273" lon="-1.60474">
        <ele>54.7</ele>
        <time>2012-01-26T14:06:15Z</time>
      </trkpt>
      <trkpt lat="47.27304" lon="-1.60473">
        <ele>55</ele>
        <time>2012-01-26T14:06:18Z</time>
      </trkpt>
      <trkpt lat="47.27308" lon="-1.60472">
        <ele>54.9</ele>
        <time>2012-01-26T14:06:21Z</time>
      </trkpt>
      <trkpt lat="47.27312" lon="-1.60471">
        <ele>54.7</ele>
        <time>2012-01-26T14:06:25Z</time>
      </trkpt>
      <trkpt lat="47.27316" lon="-1.6047">
        <ele>54.9</ele>
        <time>2012-01-26T14:06:29Z</time>
      </trkpt>
      <trkpt lat="47.2732" lon="-1.60469">
        <ele>55.2</ele>
        <time>2012-01-26T14:06:32Z</time>
      </trkpt>
      <trkpt lat="47.27324" lon="-1.60468">
        <ele>55.7</ele>
        <time>2012-01-26T14:06:35Z</time>
      </trkpt>
      <trkpt lat="47.27327" lon="-1.60467">
        <ele>55.7</ele>
        <time>2012-01-26T14:06:39Z</time>
      </trkpt>
      <trkpt lat="47.27331" lon="-1.60466">
        <ele>54.7</ele>
        <time>2012-01-26T14:06:43Z</time>
      </trkpt>
      <trkpt lat="47.27335" lon="-1.60464">
        <ele>55.2</ele>
        <time>2012-01-26T14:06:47Z</time>
      </trkpt>
      <trkpt lat="47.27339" lon="-1.60463">
        <ele>55.2</ele>
        <time>2012-01-26T14:06:50Z</time>
      </trkpt>
      <trkpt lat="47.27342" lon="-1.60462">
        <ele>55.5</ele>
        <time>2012-01-26T14:06:53Z</time>
      </trkpt>
      <trkpt lat="47.27344" lon="-1.60461">
        <ele>55.7</ele>
        <time>2012-01-26T14:06:54Z</time>
      </trkpt>
      <trkpt lat="47.27349" lon="-1.60459">
        <ele>55.7</ele>
        <time>2012-01-26T14:06:58Z</time>
      </trkpt>
      <trkpt lat="47.27354" lon="-1.60458">
        <ele>55.9</ele>
        <time>2012-01-26T14:07:02Z</time>
      </trkpt>
      <trkpt lat="47.27358" lon="-1.60457">
        <ele>56</ele>
        <time>2012-01-26T14:07:06Z</time>
      </trkpt>
      <trkpt lat="47.27361" lon="-1.60456">
        <ele>55.7</ele>
        <time>2012-01-26T14:07:09Z</time>
      </trkpt>
      <trkpt lat="47.27365" lon="-1.60455">
        <ele>55.5</ele>
        <time>2012-01-26T14:07:12Z</time>
      </trkpt>
      <trkpt lat="47.27369" lon="-1.60454">
        <ele>55.5</ele>
        <time>2012-01-26T14:07:15Z</time>
      </trkpt>
      <trkpt lat="47.27373" lon="-1.60453">
        <ele>55.9</ele>
        <time>2012-01-26T14:07:19Z</time>
      </trkpt>
      <trkpt lat="47.27377" lon="-1.60451">
        <ele>56.5</ele>
        <time>2012-01-26T14:07:23Z</time>
      </trkpt>
      <trkpt lat="47.27381" lon="-1.6045">
        <ele>56.7</ele>
        <time>2012-01-26T14:07:26Z</time>
      </trkpt>
      <trkpt lat="47.27384" lon="-1.60449">
        <ele>56.2</ele>
        <time>2012-01-26T14:07:28Z</time>
      </trkpt>
      <trkpt lat="47.27388" lon="-1.60448">
        <ele>56.2</ele>
        <time>2012-01-26T14:07:31Z</time>
      </trkpt>
      <trkpt lat="47.27392" lon="-1.60446">
        <ele>56.5</ele>
        <time>2012-01-26T14:07:34Z</time>
      </trkpt>
      <trkpt lat="47.27395" lon="-1.60445">
        <ele>56.5</ele>
        <time>2012-01-26T14:07:37Z</time>
      </trkpt>
      <trkpt lat="47.27399" lon="-1.60443">
        <ele>56.2</ele>
        <time>2012-01-26T14:07:40Z</time>
      </trkpt>
      <trkpt lat="47.27403" lon="-1.60442">
        <ele>56</ele>
        <time>2012-01-26T14:07:44Z</time>
      </trkpt>
      <trkpt lat="47.27407" lon="-1.60441">
        <ele>56.7</ele>
        <time>2012-01-26T14:07:48Z</time>
      </trkpt>
      <trkpt lat="47.2741" lon="-1.60439">
        <ele>56.2</ele>
        <time>2012-01-26T14:07:52Z</time>
      </trkpt>
      <trkpt lat="47.27414" lon="-1.60438">
        <ele>56.5</ele>
        <time>2012-01-26T14:07:56Z</time>
      </trkpt>
      <trkpt lat="47.27415" lon="-1.60438">
        <ele>56.5</ele>
        <time>2012-01-26T14:07:57Z</time>
      </trkpt>
      <trkpt lat="47.27422" lon="-1.60435">
        <ele>55.9</ele>
        <time>2012-01-26T14:08:04Z</time>
      </trkpt>
      <trkpt lat="47.27426" lon="-1.60434">
        <ele>55.7</ele>
        <time>2012-01-26T14:08:07Z</time>
      </trkpt>
      <trkpt lat="47.2743" lon="-1.60433">
        <ele>55.7</ele>
        <time>2012-01-26T14:08:11Z</time>
      </trkpt>
      <trkpt lat="47.27434" lon="-1.60432">
        <ele>56.2</ele>
        <time>2012-01-26T14:08:16Z</time>
      </trkpt>
      <trkpt lat="47.27438" lon="-1.60431">
        <ele>55.7</ele>
        <time>2012-01-26T14:08:20Z</time>
      </trkpt>
      <trkpt lat="47.27441" lon="-1.6043">
        <ele>56</ele>
        <time>2012-01-26T14:08:24Z</time>
      </trkpt>
      <trkpt lat="47.27445" lon="-1.6043">
        <ele>56.2</ele>
        <time>2012-01-26T14:08:28Z</time>
      </trkpt>
      <trkpt lat="47.27448" lon="-1.60428">
        <ele>56</ele>
        <time>2012-01-26T14:08:31Z</time>
      </trkpt>
      <trkpt lat="47.27452" lon="-1.60427">
        <ele>55.9</ele>
        <time>2012-01-26T14:08:34Z</time>
      </trkpt>
      <trkpt lat="47.27455" lon="-1.60426">
        <ele>56</ele>
        <time>2012-01-26T14:08:38Z</time>
      </trkpt>
      <trkpt lat="47.27459" lon="-1.60424">
        <ele>56</ele>
        <time>2012-01-26T14:08:41Z</time>
      </trkpt>
      <trkpt lat="47.27463" lon="-1.60423">
        <ele>56.2</ele>
        <time>2012-01-26T14:08:44Z</time>
      </trkpt>
      <trkpt lat="47.27467" lon="-1.60422">
        <ele>56</ele>
        <time>2012-01-26T14:08:48Z</time>
      </trkpt>
      <trkpt lat="47.27471" lon="-1.6042">
        <ele>56.7</ele>
        <time>2012-01-26T14:08:52Z</time>
      </trkpt>
      <trkpt lat="47.27474" lon="-1.60419">
        <ele>56.5</ele>
        <time>2012-01-26T14:08:56Z</time>
      </trkpt>
      <trkpt lat="47.27478" lon="-1.60417">
        <ele>56.5</ele>
        <time>2012-01-26T14:08:59Z</time>
      </trkpt>
      <trkpt lat="47.27479" lon="-1.60416">
        <ele>56.5</ele>
        <time>2012-01-26T14:09:00Z</time>
      </trkpt>
      <trkpt lat="47.27485" lon="-1.60414">
        <ele>56</ele>
        <time>2012-01-26T14:09:06Z</time>
      </trkpt>
      <trkpt lat="47.27488" lon="-1.60413">
        <ele>55.7</ele>
        <time>2012-01-26T14:09:09Z</time>
      </trkpt>
      <trkpt lat="47.27492" lon="-1.60412">
        <ele>55.9</ele>
        <time>2012-01-26T14:09:12Z</time>
      </trkpt>
      <trkpt lat="47.27496" lon="-1.60411">
        <ele>56.4</ele>
        <time>2012-01-26T14:09:16Z</time>
      </trkpt>
      <trkpt lat="47.275" lon="-1.6041">
        <ele>56.5</ele>
        <time>2012-01-26T14:09:20Z</time>
      </trkpt>
      <trkpt lat="47.27504" lon="-1.60409">
        <ele>56</ele>
        <time>2012-01-26T14:09:23Z</time>
      </trkpt>
      <trkpt lat="47.27506" lon="-1.60408">
        <ele>55.7</ele>
        <time>2012-01-26T14:09:25Z</time>
      </trkpt>
      <trkpt lat="47.27509" lon="-1.60407">
        <ele>55.5</ele>
        <time>2012-01-26T14:09:27Z</time>
      </trkpt>
      <trkpt lat="47.27514" lon="-1.60405">
        <ele>55.5</ele>
        <time>2012-01-26T14:09:30Z</time>
      </trkpt>
      <trkpt lat="47.27517" lon="-1.60405">
        <ele>55.7</ele>
        <time>2012-01-26T14:09:34Z</time>
      </trkpt>
      <trkpt lat="47.2752" lon="-1.60404">
        <ele>56</ele>
        <time>2012-01-26T14:09:37Z</time>
      </trkpt>
      <trkpt lat="47.27524" lon="-1.60403">
        <ele>56.2</ele>
        <time>2012-01-26T14:09:40Z</time>
      </trkpt>
      <trkpt lat="47.27528" lon="-1.60401">
        <ele>56.2</ele>
        <time>2012-01-26T14:09:44Z</time>
      </trkpt>
      <trkpt lat="47.27532" lon="-1.604">
        <ele>56.2</ele>
        <time>2012-01-26T14:09:50Z</time>
      </trkpt>
      <trkpt lat="47.27536" lon="-1.60397">
        <ele>56</ele>
        <time>2012-01-26T14:09:57Z</time>
      </trkpt>
      <trkpt lat="47.2754" lon="-1.60395">
        <ele>55.9</ele>
        <time>2012-01-26T14:10:02Z</time>
      </trkpt>
      <trkpt lat="47.27541" lon="-1.60395">
        <ele>56</ele>
        <time>2012-01-26T14:10:03Z</time>
      </trkpt>
      <trkpt lat="47.27548" lon="-1.60393">
        <ele>56.4</ele>
        <time>2012-01-26T14:10:12Z</time>
      </trkpt>
      <trkpt lat="47.27552" lon="-1.60393">
        <ele>56.5</ele>
        <time>2012-01-26T14:10:16Z</time>
      </trkpt>
      <trkpt lat="47.27556" lon="-1.60391">
        <ele>56.7</ele>
        <time>2012-01-26T14:10:20Z</time>
      </trkpt>
      <trkpt lat="47.2756" lon="-1.6039">
        <ele>56.5</ele>
        <time>2012-01-26T14:10:25Z</time>
      </trkpt>
      <trkpt lat="47.27564" lon="-1.60389">
        <ele>56.4</ele>
        <time>2012-01-26T14:10:29Z</time>
      </trkpt>
      <trkpt lat="47.27567" lon="-1.60388">
        <ele>56.4</ele>
        <time>2012-01-26T14:10:32Z</time>
      </trkpt>
      <trkpt lat="47.27571" lon="-1.60386">
        <ele>56.4</ele>
        <time>2012-01-26T14:10:35Z</time>
      </trkpt>
      <trkpt lat="47.27575" lon="-1.60385">
        <ele>56</ele>
        <time>2012-01-26T14:10:39Z</time>
      </trkpt>
      <trkpt lat="47.27579" lon="-1.60384">
        <ele>56</ele>
        <time>2012-01-26T14:10:43Z</time>
      </trkpt>
      <trkpt lat="47.27583" lon="-1.60382">
        <ele>56.5</ele>
        <time>2012-01-26T14:10:47Z</time>
      </trkpt>
      <trkpt lat="47.27588" lon="-1.6038">
        <ele>56.5</ele>
        <time>2012-01-26T14:10:50Z</time>
      </trkpt>
      <trkpt lat="47.27592" lon="-1.60379">
        <ele>56.2</ele>
        <time>2012-01-26T14:10:53Z</time>
      </trkpt>
      <trkpt lat="47.27595" lon="-1.60378">
        <ele>56.5</ele>
        <time>2012-01-26T14:10:56Z</time>
      </trkpt>
      <trkpt lat="47.27598" lon="-1.60378">
        <ele>56.5</ele>
        <time>2012-01-26T14:10:58Z</time>
      </trkpt>
      <trkpt lat="47.27602" lon="-1.60376">
        <ele>56.7</ele>
        <time>2012-01-26T14:11:02Z</time>
      </trkpt>
      <trkpt lat="47.27606" lon="-1.60375">
        <ele>56.5</ele>
        <time>2012-01-26T14:11:06Z</time>
      </trkpt>
      <trkpt lat="47.27607" lon="-1.60375">
        <ele>56.7</ele>
        <time>2012-01-26T14:11:07Z</time>
      </trkpt>
      <trkpt lat="47.27614" lon="-1.60372">
        <ele>56.5</ele>
        <time>2012-01-26T14:11:14Z</time>
      </trkpt>
      <trkpt lat="47.27618" lon="-1.60371">
        <ele>56.4</ele>
        <time>2012-01-26T14:11:17Z</time>
      </trkpt>
      <trkpt lat="47.27622" lon="-1.60369">
        <ele>56.5</ele>
        <time>2012-01-26T14:11:20Z</time>
      </trkpt>
      <trkpt lat="47.27625" lon="-1.60368">
        <ele>56.4</ele>
        <time>2012-01-26T14:11:24Z</time>
      </trkpt>
      <trkpt lat="47.2763" lon="-1.60368">
        <ele>56.2</ele>
        <time>2012-01-26T14:11:28Z</time>
      </trkpt>
      <trkpt lat="47.27634" lon="-1.60366">
        <ele>56</ele>
        <time>2012-01-26T14:11:32Z</time>
      </trkpt>
      <trkpt lat="47.27638" lon="-1.60365">
        <ele>56.5</ele>
        <time>2012-01-26T14:11:36Z</time>
      </trkpt>
      <trkpt lat="47.27643" lon="-1.60365">
        <ele>56.9</ele>
        <time>2012-01-26T14:11:40Z</time>
      </trkpt>
      <trkpt lat="47.27647" lon="-1.60366">
        <ele>57.2</ele>
        <time>2012-01-26T14:11:43Z</time>
      </trkpt>
      <trkpt lat="47.2765" lon="-1.60367">
        <ele>57.2</ele>
        <time>2012-01-26T14:11:46Z</time>
      </trkpt>
      <trkpt lat="47.27653" lon="-1.60369">
        <ele>57.2</ele>
        <time>2012-01-26T14:11:49Z</time>
      </trkpt>
      <trkpt lat="47.27656" lon="-1.60372">
        <ele>57.2</ele>
        <time>2012-01-26T14:11:52Z</time>
      </trkpt>
      <trkpt lat="47.27659" lon="-1.60377">
        <ele>57.2</ele>
        <time>2012-01-26T14:11:56Z</time>
      </trkpt>
      <trkpt lat="47.2766" lon="-1.60382">
        <ele>56.5</ele>
        <time>2012-01-26T14:11:59Z</time>
      </trkpt>
      <trkpt lat="47.27662" lon="-1.60388">
        <ele>56.4</ele>
        <time>2012-01-26T14:12:03Z</time>
      </trkpt>
      <trkpt lat="47.27663" lon="-1.60394">
        <ele>56.7</ele>
        <time>2012-01-26T14:12:07Z</time>
      </trkpt>
      <trkpt lat="47.27663" lon="-1.60395">
        <ele>56.5</ele>
        <time>2012-01-26T14:12:08Z</time>
      </trkpt>
      <trkpt lat="47.27665" lon="-1.60405">
        <ele>56</ele>
        <time>2012-01-26T14:12:14Z</time>
      </trkpt>
      <trkpt lat="47.27667" lon="-1.6041">
        <ele>56</ele>
        <time>2012-01-26T14:12:19Z</time>
      </trkpt>
      <trkpt lat="47.27668" lon="-1.60416">
        <ele>56.2</ele>
        <time>2012-01-26T14:12:23Z</time>
      </trkpt>
      <trkpt lat="47.27669" lon="-1.60422">
        <ele>55.5</ele>
        <time>2012-01-26T14:12:27Z</time>
      </trkpt>
      <trkpt lat="47.2767" lon="-1.60427">
        <ele>55.5</ele>
        <time>2012-01-26T14:12:31Z</time>
      </trkpt>
      <trkpt lat="47.27671" lon="-1.60433">
        <ele>54.7</ele>
        <time>2012-01-26T14:12:36Z</time>
      </trkpt>
      <trkpt lat="47.27672" lon="-1.60438">
        <ele>55</ele>
        <time>2012-01-26T14:12:40Z</time>
      </trkpt>
      <trkpt lat="47.27673" lon="-1.60443">
        <ele>55.2</ele>
        <time>2012-01-26T14:12:44Z</time>
      </trkpt>
      <trkpt lat="47.27675" lon="-1.60449">
        <ele>55</ele>
        <time>2012-01-26T14:12:48Z</time>
      </trkpt>
      <trkpt lat="47.27676" lon="-1.60455">
        <ele>54.4</ele>
        <time>2012-01-26T14:12:52Z</time>
      </trkpt>
      <trkpt lat="47.27677" lon="-1.6046">
        <ele>54.9</ele>
        <time>2012-01-26T14:12:56Z</time>
      </trkpt>
      <trkpt lat="47.27678" lon="-1.60466">
        <ele>55.2</ele>
        <time>2012-01-26T14:13:00Z</time>
      </trkpt>
      <trkpt lat="47.27679" lon="-1.60472">
        <ele>55</ele>
        <time>2012-01-26T14:13:04Z</time>
      </trkpt>
      <trkpt lat="47.2768" lon="-1.60477">
        <ele>55</ele>
        <time>2012-01-26T14:13:07Z</time>
      </trkpt>
      <trkpt lat="47.2768" lon="-1.60482">
        <ele>55.2</ele>
        <time>2012-01-26T14:13:10Z</time>
      </trkpt>
      <trkpt lat="47.2768" lon="-1.60484">
        <ele>55.2</ele>
        <time>2012-01-26T14:13:11Z</time>
      </trkpt>
      <trkpt lat="47.27681" lon="-1.60494">
        <ele>54</ele>
        <time>2012-01-26T14:13:17Z</time>
      </trkpt>
      <trkpt lat="47.27681" lon="-1.605">
        <ele>54.5</ele>
        <time>2012-01-26T14:13:21Z</time>
      </trkpt>
      <trkpt lat="47.27682" lon="-1.60505">
        <ele>54.4</ele>
        <time>2012-01-26T14:13:25Z</time>
      </trkpt>
      <trkpt lat="47.27683" lon="-1.60511">
        <ele>54.5</ele>
        <time>2012-01-26T14:13:29Z</time>
      </trkpt>
      <trkpt lat="47.27683" lon="-1.60517">
        <ele>54.9</ele>
        <time>2012-01-26T14:13:33Z</time>
      </trkpt>
      <trkpt lat="47.27684" lon="-1.60523">
        <ele>54</ele>
        <time>2012-01-26T14:13:37Z</time>
      </trkpt>
      <trkpt lat="47.27685" lon="-1.60529">
        <ele>54</ele>
        <time>2012-01-26T14:13:41Z</time>
      </trkpt>
      <trkpt lat="47.27686" lon="-1.60534">
        <ele>54</ele>
        <time>2012-01-26T14:13:45Z</time>
      </trkpt>
      <trkpt lat="47.27687" lon="-1.60539">
        <ele>54.7</ele>
        <time>2012-01-26T14:13:49Z</time>
      </trkpt>
      <trkpt lat="47.27689" lon="-1.60545">
        <ele>55</ele>
        <time>2012-01-26T14:13:53Z</time>
      </trkpt>
      <trkpt lat="47.2769" lon="-1.6055">
        <ele>54.5</ele>
        <time>2012-01-26T14:13:57Z</time>
      </trkpt>
      <trkpt lat="47.27691" lon="-1.60555">
        <ele>54.5</ele>
        <time>2012-01-26T14:14:02Z</time>
      </trkpt>
      <trkpt lat="47.27692" lon="-1.60561">
        <ele>53.5</ele>
        <time>2012-01-26T14:14:07Z</time>
      </trkpt>
      <trkpt lat="47.27693" lon="-1.60566">
        <ele>53.7</ele>
        <time>2012-01-26T14:14:12Z</time>
      </trkpt>
      <trkpt lat="47.27694" lon="-1.60568">
        <ele>53.5</ele>
        <time>2012-01-26T14:14:13Z</time>
      </trkpt>
      <trkpt lat="47.27695" lon="-1.60578">
        <ele>53.5</ele>
        <time>2012-01-26T14:14:22Z</time>
      </trkpt>
      <trkpt lat="47.27696" lon="-1.60583">
        <ele>47</ele>
        <time>2012-01-26T14:14:26Z</time>
      </trkpt>
      <trkpt lat="47.27698" lon="-1.60588">
        <ele>42</ele>
        <time>2012-01-26T14:14:30Z</time>
      </trkpt>
      <trkpt lat="47.27699" lon="-1.60594">
        <ele>40</ele>
        <time>2012-01-26T14:14:34Z</time>
      </trkpt>
      <trkpt lat="47.277" lon="-1.60599">
        <ele>40</ele>
        <time>2012-01-26T14:14:37Z</time>
      </trkpt>
      <trkpt lat="47.27701" lon="-1.60605">
        <ele>39.7</ele>
        <time>2012-01-26T14:14:42Z</time>
      </trkpt>
      <trkpt lat="47.27703" lon="-1.60611">
        <ele>38.9</ele>
        <time>2012-01-26T14:14:46Z</time>
      </trkpt>
      <trkpt lat="47.27705" lon="-1.60616">
        <ele>39.7</ele>
        <time>2012-01-26T14:14:50Z</time>
      </trkpt>
      <trkpt lat="47.27706" lon="-1.60621">
        <ele>39.5</ele>
        <time>2012-01-26T14:14:54Z</time>
      </trkpt>
      <trkpt lat="47.27708" lon="-1.60627">
        <ele>39.2</ele>
        <time>2012-01-26T14:14:58Z</time>
      </trkpt>
      <trkpt lat="47.27708" lon="-1.60633">
        <ele>38.4</ele>
        <time>2012-01-26T14:15:02Z</time>
      </trkpt>
      <trkpt lat="47.2771" lon="-1.60638">
        <ele>38</ele>
        <time>2012-01-26T14:15:06Z</time>
      </trkpt>
      <trkpt lat="47.27711" lon="-1.60644">
        <ele>38.5</ele>
        <time>2012-01-26T14:15:11Z</time>
      </trkpt>
      <trkpt lat="47.27712" lon="-1.60649">
        <ele>38.7</ele>
        <time>2012-01-26T14:15:15Z</time>
      </trkpt>
      <trkpt lat="47.27713" lon="-1.6065">
        <ele>38.9</ele>
        <time>2012-01-26T14:15:16Z</time>
      </trkpt>
      <trkpt lat="47.27716" lon="-1.6066">
        <ele>38.2</ele>
        <time>2012-01-26T14:15:23Z</time>
      </trkpt>
      <trkpt lat="47.27718" lon="-1.60665">
        <ele>38.2</ele>
        <time>2012-01-26T14:15:27Z</time>
      </trkpt>
      <trkpt lat="47.27721" lon="-1.6067">
        <ele>38</ele>
        <time>2012-01-26T14:15:31Z</time>
      </trkpt>
      <trkpt lat="47.27723" lon="-1.60674">
        <ele>38.4</ele>
        <time>2012-01-26T14:15:35Z</time>
      </trkpt>
      <trkpt lat="47.27725" lon="-1.60679">
        <ele>37.7</ele>
        <time>2012-01-26T14:15:39Z</time>
      </trkpt>
      <trkpt lat="47.27728" lon="-1.60683">
        <ele>37</ele>
        <time>2012-01-26T14:15:43Z</time>
      </trkpt>
      <trkpt lat="47.2773" lon="-1.60687">
        <ele>37</ele>
        <time>2012-01-26T14:15:46Z</time>
      </trkpt>
      <trkpt lat="47.27732" lon="-1.60692">
        <ele>37</ele>
        <time>2012-01-26T14:15:50Z</time>
      </trkpt>
      <trkpt lat="47.27734" lon="-1.60698">
        <ele>37</ele>
        <time>2012-01-26T14:15:54Z</time>
      </trkpt>
      <trkpt lat="47.27736" lon="-1.60703">
        <ele>37</ele>
        <time>2012-01-26T14:15:58Z</time>
      </trkpt>
      <trkpt lat="47.27739" lon="-1.60708">
        <ele>37.5</ele>
        <time>2012-01-26T14:16:02Z</time>
      </trkpt>
      <trkpt lat="47.27741" lon="-1.60713">
        <ele>37.5</ele>
        <time>2012-01-26T14:16:05Z</time>
      </trkpt>
      <trkpt lat="47.27744" lon="-1.60716">
        <ele>37.2</ele>
        <time>2012-01-26T14:16:08Z</time>
      </trkpt>
      <trkpt lat="47.27747" lon="-1.60721">
        <ele>37.2</ele>
        <time>2012-01-26T14:16:12Z</time>
      </trkpt>
      <trkpt lat="47.2775" lon="-1.60726">
        <ele>37.2</ele>
        <time>2012-01-26T14:16:16Z</time>
      </trkpt>
      <trkpt lat="47.27751" lon="-1.60727">
        <ele>37</ele>
        <time>2012-01-26T14:16:17Z</time>
      </trkpt>
      <trkpt lat="47.27755" lon="-1.60735">
        <ele>37</ele>
        <time>2012-01-26T14:16:23Z</time>
      </trkpt>
      <trkpt lat="47.27757" lon="-1.6074">
        <ele>37.2</ele>
        <time>2012-01-26T14:16:27Z</time>
      </trkpt>
      <trkpt lat="47.27759" lon="-1.60744">
        <ele>37</ele>
        <time>2012-01-26T14:16:30Z</time>
      </trkpt>
      <trkpt lat="47.27762" lon="-1.60749">
        <ele>36.7</ele>
        <time>2012-01-26T14:16:33Z</time>
      </trkpt>
      <trkpt lat="47.27764" lon="-1.60753">
        <ele>36.7</ele>
        <time>2012-01-26T14:16:36Z</time>
      </trkpt>
      <trkpt lat="47.27766" lon="-1.60757">
        <ele>36.5</ele>
        <time>2012-01-26T14:16:39Z</time>
      </trkpt>
      <trkpt lat="47.27768" lon="-1.60762">
        <ele>36.5</ele>
        <time>2012-01-26T14:16:42Z</time>
      </trkpt>
      <trkpt lat="47.2777" lon="-1.60767">
        <ele>36.7</ele>
        <time>2012-01-26T14:16:46Z</time>
      </trkpt>
      <trkpt lat="47.27771" lon="-1.60773">
        <ele>36.9</ele>
        <time>2012-01-26T14:16:50Z</time>
      </trkpt>
      <trkpt lat="47.27773" lon="-1.60778">
        <ele>37.2</ele>
        <time>2012-01-26T14:16:54Z</time>
      </trkpt>
      <trkpt lat="47.27775" lon="-1.60783">
        <ele>36.4</ele>
        <time>2012-01-26T14:16:57Z</time>
      </trkpt>
      <trkpt lat="47.27777" lon="-1.60788">
        <ele>36</ele>
        <time>2012-01-26T14:17:01Z</time>
      </trkpt>
      <trkpt lat="47.27779" lon="-1.60792">
        <ele>35.9</ele>
        <time>2012-01-26T14:17:04Z</time>
      </trkpt>
      <trkpt lat="47.27782" lon="-1.60797">
        <ele>36.5</ele>
        <time>2012-01-26T14:17:08Z</time>
      </trkpt>
      <trkpt lat="47.27784" lon="-1.60802">
        <ele>36.7</ele>
        <time>2012-01-26T14:17:11Z</time>
      </trkpt>
      <trkpt lat="47.27786" lon="-1.60807">
        <ele>36.5</ele>
        <time>2012-01-26T14:17:14Z</time>
      </trkpt>
      <trkpt lat="47.27789" lon="-1.60812">
        <ele>36.7</ele>
        <time>2012-01-26T14:17:18Z</time>
      </trkpt>
      <trkpt lat="47.27789" lon="-1.60813">
        <ele>36.7</ele>
        <time>2012-01-26T14:17:19Z</time>
      </trkpt>
      <trkpt lat="47.27792" lon="-1.60821">
        <ele>36.9</ele>
        <time>2012-01-26T14:17:24Z</time>
      </trkpt>
      <trkpt lat="47.27794" lon="-1.60825">
        <ele>36.7</ele>
        <time>2012-01-26T14:17:27Z</time>
      </trkpt>
      <trkpt lat="47.27797" lon="-1.60829">
        <ele>36.2</ele>
        <time>2012-01-26T14:17:30Z</time>
      </trkpt>
      <trkpt lat="47.27799" lon="-1.60834">
        <ele>36.4</ele>
        <time>2012-01-26T14:17:34Z</time>
      </trkpt>
      <trkpt lat="47.27802" lon="-1.60838">
        <ele>36.9</ele>
        <time>2012-01-26T14:17:38Z</time>
      </trkpt>
      <trkpt lat="47.27805" lon="-1.60842">
        <ele>35.7</ele>
        <time>2012-01-26T14:17:42Z</time>
      </trkpt>
      <trkpt lat="47.27807" lon="-1.60847">
        <ele>36.9</ele>
        <time>2012-01-26T14:17:46Z</time>
      </trkpt>
      <trkpt lat="47.27809" lon="-1.60851">
        <ele>37</ele>
        <time>2012-01-26T14:17:49Z</time>
      </trkpt>
      <trkpt lat="47.27812" lon="-1.60854">
        <ele>36.7</ele>
        <time>2012-01-26T14:17:52Z</time>
      </trkpt>
      <trkpt lat="47.27814" lon="-1.60859">
        <ele>37</ele>
        <time>2012-01-26T14:17:56Z</time>
      </trkpt>
      <trkpt lat="47.27817" lon="-1.60863">
        <ele>36.9</ele>
        <time>2012-01-26T14:17:59Z</time>
      </trkpt>
      <trkpt lat="47.27819" lon="-1.60866">
        <ele>36.7</ele>
        <time>2012-01-26T14:18:02Z</time>
      </trkpt>
      <trkpt lat="47.27822" lon="-1.6087">
        <ele>36.7</ele>
        <time>2012-01-26T14:18:05Z</time>
      </trkpt>
      <trkpt lat="47.27824" lon="-1.60875">
        <ele>37</ele>
        <time>2012-01-26T14:18:08Z</time>
      </trkpt>
      <trkpt lat="47.27826" lon="-1.60879">
        <ele>36.7</ele>
        <time>2012-01-26T14:18:11Z</time>
      </trkpt>
      <trkpt lat="47.27828" lon="-1.60883">
        <ele>37.7</ele>
        <time>2012-01-26T14:18:14Z</time>
      </trkpt>
      <trkpt lat="47.2783" lon="-1.60887">
        <ele>37.5</ele>
        <time>2012-01-26T14:18:17Z</time>
      </trkpt>
      <trkpt lat="47.27833" lon="-1.60891">
        <ele>37.9</ele>
        <time>2012-01-26T14:18:20Z</time>
      </trkpt>
      <trkpt lat="47.27833" lon="-1.60892">
        <ele>37.7</ele>
        <time>2012-01-26T14:18:21Z</time>
      </trkpt>
      <trkpt lat="47.27838" lon="-1.609">
        <ele>37.9</ele>
        <time>2012-01-26T14:18:27Z</time>
      </trkpt>
      <trkpt lat="47.2784" lon="-1.60904">
        <ele>37.4</ele>
        <time>2012-01-26T14:18:31Z</time>
      </trkpt>
      <trkpt lat="47.27842" lon="-1.60909">
        <ele>37.5</ele>
        <time>2012-01-26T14:18:35Z</time>
      </trkpt>
      <trkpt lat="47.27844" lon="-1.60915">
        <ele>37.7</ele>
        <time>2012-01-26T14:18:39Z</time>
      </trkpt>
      <trkpt lat="47.27847" lon="-1.60919">
        <ele>38</ele>
        <time>2012-01-26T14:18:43Z</time>
      </trkpt>
      <trkpt lat="47.27849" lon="-1.60922">
        <ele>38.2</ele>
        <time>2012-01-26T14:18:46Z</time>
      </trkpt>
      <trkpt lat="47.27852" lon="-1.60927">
        <ele>37.5</ele>
        <time>2012-01-26T14:18:49Z</time>
      </trkpt>
      <trkpt lat="47.27853" lon="-1.60932">
        <ele>37.9</ele>
        <time>2012-01-26T14:18:54Z</time>
      </trkpt>
      <trkpt lat="47.27856" lon="-1.60937">
        <ele>38.2</ele>
        <time>2012-01-26T14:18:58Z</time>
      </trkpt>
      <trkpt lat="47.27859" lon="-1.60941">
        <ele>38.2</ele>
        <time>2012-01-26T14:19:01Z</time>
      </trkpt>
      <trkpt lat="47.27861" lon="-1.60944">
        <ele>38.5</ele>
        <time>2012-01-26T14:19:04Z</time>
      </trkpt>
      <trkpt lat="47.27864" lon="-1.60949">
        <ele>39.2</ele>
        <time>2012-01-26T14:19:07Z</time>
      </trkpt>
      <trkpt lat="47.27866" lon="-1.60952">
        <ele>39.2</ele>
        <time>2012-01-26T14:19:10Z</time>
      </trkpt>
      <trkpt lat="47.27868" lon="-1.60957">
        <ele>39</ele>
        <time>2012-01-26T14:19:13Z</time>
      </trkpt>
      <trkpt lat="47.27871" lon="-1.60961">
        <ele>39.2</ele>
        <time>2012-01-26T14:19:16Z</time>
      </trkpt>
      <trkpt lat="47.27873" lon="-1.60965">
        <ele>39.5</ele>
        <time>2012-01-26T14:19:19Z</time>
      </trkpt>
      <trkpt lat="47.27875" lon="-1.6097">
        <ele>39.5</ele>
        <time>2012-01-26T14:19:23Z</time>
      </trkpt>
      <trkpt lat="47.27876" lon="-1.60971">
        <ele>39.2</ele>
        <time>2012-01-26T14:19:24Z</time>
      </trkpt>
      <trkpt lat="47.27881" lon="-1.60977">
        <ele>40</ele>
        <time>2012-01-26T14:19:29Z</time>
      </trkpt>
      <trkpt lat="47.27882" lon="-1.60982">
        <ele>40</ele>
        <time>2012-01-26T14:19:32Z</time>
      </trkpt>
      <trkpt lat="47.27885" lon="-1.60986">
        <ele>40</ele>
        <time>2012-01-26T14:19:35Z</time>
      </trkpt>
      <trkpt lat="47.27887" lon="-1.6099">
        <ele>40.2</ele>
        <time>2012-01-26T14:19:38Z</time>
      </trkpt>
      <trkpt lat="47.27891" lon="-1.60993">
        <ele>40.7</ele>
        <time>2012-01-26T14:19:41Z</time>
      </trkpt>
      <trkpt lat="47.27893" lon="-1.60997">
        <ele>41.2</ele>
        <time>2012-01-26T14:19:44Z</time>
      </trkpt>
      <trkpt lat="47.27896" lon="-1.61001">
        <ele>40.9</ele>
        <time>2012-01-26T14:19:47Z</time>
      </trkpt>
      <trkpt lat="47.27898" lon="-1.61005">
        <ele>40.7</ele>
        <time>2012-01-26T14:19:50Z</time>
      </trkpt>
      <trkpt lat="47.27901" lon="-1.61008">
        <ele>41</ele>
        <time>2012-01-26T14:19:53Z</time>
      </trkpt>
      <trkpt lat="47.27904" lon="-1.61012">
        <ele>40.9</ele>
        <time>2012-01-26T14:19:56Z</time>
      </trkpt>
      <trkpt lat="47.27907" lon="-1.61017">
        <ele>41.2</ele>
        <time>2012-01-26T14:20:00Z</time>
      </trkpt>
      <trkpt lat="47.27909" lon="-1.61022">
        <ele>41.7</ele>
        <time>2012-01-26T14:20:04Z</time>
      </trkpt>
      <trkpt lat="47.27911" lon="-1.61027">
        <ele>41.7</ele>
        <time>2012-01-26T14:20:08Z</time>
      </trkpt>
      <trkpt lat="47.27912" lon="-1.61033">
        <ele>42</ele>
        <time>2012-01-26T14:20:12Z</time>
      </trkpt>
      <trkpt lat="47.27914" lon="-1.61037">
        <ele>42</ele>
        <time>2012-01-26T14:20:15Z</time>
      </trkpt>
      <trkpt lat="47.27916" lon="-1.61041">
        <ele>41.9</ele>
        <time>2012-01-26T14:20:18Z</time>
      </trkpt>
      <trkpt lat="47.27919" lon="-1.61045">
        <ele>42.4</ele>
        <time>2012-01-26T14:20:21Z</time>
      </trkpt>
      <trkpt lat="47.27921" lon="-1.61049">
        <ele>42.5</ele>
        <time>2012-01-26T14:20:24Z</time>
      </trkpt>
      <trkpt lat="47.27922" lon="-1.61051">
        <ele>42.5</ele>
        <time>2012-01-26T14:20:25Z</time>
      </trkpt>
      <trkpt lat="47.27926" lon="-1.61057">
        <ele>43</ele>
        <time>2012-01-26T14:20:30Z</time>
      </trkpt>
      <trkpt lat="47.27929" lon="-1.61061">
        <ele>43.2</ele>
        <time>2012-01-26T14:20:33Z</time>
      </trkpt>
      <trkpt lat="47.27932" lon="-1.61064">
        <ele>42.9</ele>
        <time>2012-01-26T14:20:36Z</time>
      </trkpt>
      <trkpt lat="47.27936" lon="-1.61067">
        <ele>43.2</ele>
        <time>2012-01-26T14:20:39Z</time>
      </trkpt>
      <trkpt lat="47.27939" lon="-1.61071">
        <ele>43.4</ele>
        <time>2012-01-26T14:20:42Z</time>
      </trkpt>
      <trkpt lat="47.27942" lon="-1.61075">
        <ele>43.2</ele>
        <time>2012-01-26T14:20:46Z</time>
      </trkpt>
      <trkpt lat="47.27944" lon="-1.61079">
        <ele>43.2</ele>
        <time>2012-01-26T14:20:48Z</time>
      </trkpt>
      <trkpt lat="47.27947" lon="-1.61083">
        <ele>43</ele>
        <time>2012-01-26T14:20:50Z</time>
      </trkpt>
      <trkpt lat="47.2795" lon="-1.61087">
        <ele>43.7</ele>
        <time>2012-01-26T14:20:52Z</time>
      </trkpt>
      <trkpt lat="47.27953" lon="-1.611">
        <ele>43.9</ele>
        <time>2012-01-26T14:20:53Z</time>
      </trkpt>
      <trkpt lat="47.27953" lon="-1.61105">
        <ele>43.5</ele>
        <time>2012-01-26T14:20:54Z</time>
      </trkpt>
      <trkpt lat="47.27956" lon="-1.61109">
        <ele>42.7</ele>
        <time>2012-01-26T14:20:57Z</time>
      </trkpt>
      <trkpt lat="47.27959" lon="-1.61113">
        <ele>43.9</ele>
        <time>2012-01-26T14:21:01Z</time>
      </trkpt>
      <trkpt lat="47.27963" lon="-1.61116">
        <ele>44.2</ele>
        <time>2012-01-26T14:21:05Z</time>
      </trkpt>
      <trkpt lat="47.27966" lon="-1.61119">
        <ele>44.5</ele>
        <time>2012-01-26T14:21:09Z</time>
      </trkpt>
      <trkpt lat="47.27968" lon="-1.61124">
        <ele>45.9</ele>
        <time>2012-01-26T14:21:13Z</time>
      </trkpt>
      <trkpt lat="47.27969" lon="-1.6113">
        <ele>45.5</ele>
        <time>2012-01-26T14:21:20Z</time>
      </trkpt>
      <trkpt lat="47.27973" lon="-1.61134">
        <ele>46</ele>
        <time>2012-01-26T14:21:25Z</time>
      </trkpt>
      <trkpt lat="47.27974" lon="-1.61135">
        <ele>46.2</ele>
        <time>2012-01-26T14:21:26Z</time>
      </trkpt>
      <trkpt lat="47.27978" lon="-1.61144">
        <ele>46.7</ele>
        <time>2012-01-26T14:21:36Z</time>
      </trkpt>
      <trkpt lat="47.2798" lon="-1.61148">
        <ele>47.2</ele>
        <time>2012-01-26T14:21:41Z</time>
      </trkpt>
      <trkpt lat="47.27982" lon="-1.61153">
        <ele>46.4</ele>
        <time>2012-01-26T14:21:45Z</time>
      </trkpt>
      <trkpt lat="47.27984" lon="-1.61158">
        <ele>46.9</ele>
        <time>2012-01-26T14:21:49Z</time>
      </trkpt>
      <trkpt lat="47.27987" lon="-1.61162">
        <ele>46.4</ele>
        <time>2012-01-26T14:21:53Z</time>
      </trkpt>
      <trkpt lat="47.27988" lon="-1.61167">
        <ele>46.7</ele>
        <time>2012-01-26T14:21:57Z</time>
      </trkpt>
      <trkpt lat="47.2799" lon="-1.61173">
        <ele>47.4</ele>
        <time>2012-01-26T14:22:01Z</time>
      </trkpt>
      <trkpt lat="47.27992" lon="-1.61177">
        <ele>47.5</ele>
        <time>2012-01-26T14:22:04Z</time>
      </trkpt>
      <trkpt lat="47.27995" lon="-1.61181">
        <ele>48</ele>
        <time>2012-01-26T14:22:07Z</time>
      </trkpt>
      <trkpt lat="47.27997" lon="-1.61187">
        <ele>47.7</ele>
        <time>2012-01-26T14:22:11Z</time>
      </trkpt>
      <trkpt lat="47.27999" lon="-1.61193">
        <ele>48.2</ele>
        <time>2012-01-26T14:22:15Z</time>
      </trkpt>
      <trkpt lat="47.28" lon="-1.61198">
        <ele>48.2</ele>
        <time>2012-01-26T14:22:19Z</time>
      </trkpt>
      <trkpt lat="47.28002" lon="-1.61204">
        <ele>48.7</ele>
        <time>2012-01-26T14:22:23Z</time>
      </trkpt>
      <trkpt lat="47.28004" lon="-1.61209">
        <ele>49</ele>
        <time>2012-01-26T14:22:27Z</time>
      </trkpt>
      <trkpt lat="47.28004" lon="-1.61211">
        <ele>48.7</ele>
        <time>2012-01-26T14:22:28Z</time>
      </trkpt>
      <trkpt lat="47.28006" lon="-1.6122">
        <ele>49.7</ele>
        <time>2012-01-26T14:22:34Z</time>
      </trkpt>
      <trkpt lat="47.28008" lon="-1.61225">
        <ele>49.7</ele>
        <time>2012-01-26T14:22:38Z</time>
      </trkpt>
      <trkpt lat="47.2801" lon="-1.6123">
        <ele>49.5</ele>
        <time>2012-01-26T14:22:42Z</time>
      </trkpt>
      <trkpt lat="47.28012" lon="-1.61235">
        <ele>49.7</ele>
        <time>2012-01-26T14:22:46Z</time>
      </trkpt>
      <trkpt lat="47.28013" lon="-1.6124">
        <ele>49.7</ele>
        <time>2012-01-26T14:22:49Z</time>
      </trkpt>
      <trkpt lat="47.28014" lon="-1.61245">
        <ele>50.4</ele>
        <time>2012-01-26T14:22:52Z</time>
      </trkpt>
      <trkpt lat="47.28016" lon="-1.61251">
        <ele>50.4</ele>
        <time>2012-01-26T14:22:56Z</time>
      </trkpt>
      <trkpt lat="47.28017" lon="-1.61257">
        <ele>49.9</ele>
        <time>2012-01-26T14:23:00Z</time>
      </trkpt>
      <trkpt lat="47.28018" lon="-1.61263">
        <ele>51</ele>
        <time>2012-01-26T14:23:04Z</time>
      </trkpt>
      <trkpt lat="47.28019" lon="-1.61269">
        <ele>50.7</ele>
        <time>2012-01-26T14:23:08Z</time>
      </trkpt>
      <trkpt lat="47.2802" lon="-1.61274">
        <ele>51.2</ele>
        <time>2012-01-26T14:23:11Z</time>
      </trkpt>
      <trkpt lat="47.28021" lon="-1.61279">
        <ele>51.5</ele>
        <time>2012-01-26T14:23:15Z</time>
      </trkpt>
      <trkpt lat="47.28022" lon="-1.61285">
        <ele>51.7</ele>
        <time>2012-01-26T14:23:18Z</time>
      </trkpt>
      <trkpt lat="47.28023" lon="-1.61291">
        <ele>51.9</ele>
        <time>2012-01-26T14:23:22Z</time>
      </trkpt>
      <trkpt lat="47.28024" lon="-1.61296">
        <ele>51.7</ele>
        <time>2012-01-26T14:23:25Z</time>
      </trkpt>
      <trkpt lat="47.28025" lon="-1.61302">
        <ele>52</ele>
        <time>2012-01-26T14:23:28Z</time>
      </trkpt>
      <trkpt lat="47.28026" lon="-1.61303">
        <ele>52.2</ele>
        <time>2012-01-26T14:23:29Z</time>
      </trkpt>
      <trkpt lat="47.28028" lon="-1.61312">
        <ele>52</ele>
        <time>2012-01-26T14:23:35Z</time>
      </trkpt>
      <trkpt lat="47.28029" lon="-1.61318">
        <ele>52.5</ele>
        <time>2012-01-26T14:23:39Z</time>
      </trkpt>
      <trkpt lat="47.2803" lon="-1.61324">
        <ele>52.2</ele>
        <time>2012-01-26T14:23:43Z</time>
      </trkpt>
      <trkpt lat="47.2803" lon="-1.6133">
        <ele>52.7</ele>
        <time>2012-01-26T14:23:46Z</time>
      </trkpt>
      <trkpt lat="47.28031" lon="-1.61336">
        <ele>52.7</ele>
        <time>2012-01-26T14:23:50Z</time>
      </trkpt>
      <trkpt lat="47.28032" lon="-1.61341">
        <ele>52.7</ele>
        <time>2012-01-26T14:23:53Z</time>
      </trkpt>
      <trkpt lat="47.28033" lon="-1.61347">
        <ele>53</ele>
        <time>2012-01-26T14:23:57Z</time>
      </trkpt>
      <trkpt lat="47.28032" lon="-1.61353">
        <ele>53.2</ele>
        <time>2012-01-26T14:24:01Z</time>
      </trkpt>
      <trkpt lat="47.28033" lon="-1.61358">
        <ele>53.2</ele>
        <time>2012-01-26T14:24:04Z</time>
      </trkpt>
      <trkpt lat="47.28033" lon="-1.61363">
        <ele>53.5</ele>
        <time>2012-01-26T14:24:07Z</time>
      </trkpt>
      <trkpt lat="47.28034" lon="-1.61369">
        <ele>53.4</ele>
        <time>2012-01-26T14:24:10Z</time>
      </trkpt>
      <trkpt lat="47.28035" lon="-1.61375">
        <ele>54.2</ele>
        <time>2012-01-26T14:24:14Z</time>
      </trkpt>
      <trkpt lat="47.28036" lon="-1.6138">
        <ele>54</ele>
        <time>2012-01-26T14:24:17Z</time>
      </trkpt>
      <trkpt lat="47.28037" lon="-1.61386">
        <ele>54</ele>
        <time>2012-01-26T14:24:21Z</time>
      </trkpt>
      <trkpt lat="47.28038" lon="-1.61392">
        <ele>53.9</ele>
        <time>2012-01-26T14:24:25Z</time>
      </trkpt>
      <trkpt lat="47.28039" lon="-1.61398">
        <ele>54</ele>
        <time>2012-01-26T14:24:29Z</time>
      </trkpt>
      <trkpt lat="47.28039" lon="-1.614">
        <ele>54</ele>
        <time>2012-01-26T14:24:30Z</time>
      </trkpt>
      <trkpt lat="47.28041" lon="-1.61409">
        <ele>54.2</ele>
        <time>2012-01-26T14:24:36Z</time>
      </trkpt>
      <trkpt lat="47.28041" lon="-1.61416">
        <ele>54.4</ele>
        <time>2012-01-26T14:24:40Z</time>
      </trkpt>
      <trkpt lat="47.28042" lon="-1.61422">
        <ele>54.9</ele>
        <time>2012-01-26T14:24:44Z</time>
      </trkpt>
      <trkpt lat="47.28042" lon="-1.61427">
        <ele>54.9</ele>
        <time>2012-01-26T14:24:47Z</time>
      </trkpt>
      <trkpt lat="47.28043" lon="-1.61434">
        <ele>54.7</ele>
        <time>2012-01-26T14:24:51Z</time>
      </trkpt>
      <trkpt lat="47.28043" lon="-1.61439">
        <ele>54.2</ele>
        <time>2012-01-26T14:24:55Z</time>
      </trkpt>
      <trkpt lat="47.28043" lon="-1.61445">
        <ele>54.5</ele>
        <time>2012-01-26T14:24:58Z</time>
      </trkpt>
      <trkpt lat="47.28043" lon="-1.6145">
        <ele>54.2</ele>
        <time>2012-01-26T14:25:01Z</time>
      </trkpt>
      <trkpt lat="47.28041" lon="-1.61456">
        <ele>54.2</ele>
        <time>2012-01-26T14:25:04Z</time>
      </trkpt>
      <trkpt lat="47.2804" lon="-1.6146">
        <ele>54.2</ele>
        <time>2012-01-26T14:25:07Z</time>
      </trkpt>
      <trkpt lat="47.28038" lon="-1.61466">
        <ele>54.5</ele>
        <time>2012-01-26T14:25:11Z</time>
      </trkpt>
      <trkpt lat="47.28035" lon="-1.61471">
        <ele>54.7</ele>
        <time>2012-01-26T14:25:16Z</time>
      </trkpt>
      <trkpt lat="47.28032" lon="-1.61475">
        <ele>54.7</ele>
        <time>2012-01-26T14:25:20Z</time>
      </trkpt>
      <trkpt lat="47.28028" lon="-1.61478">
        <ele>55.5</ele>
        <time>2012-01-26T14:25:25Z</time>
      </trkpt>
      <trkpt lat="47.28024" lon="-1.61479">
        <ele>54.7</ele>
        <time>2012-01-26T14:25:28Z</time>
      </trkpt>
      <trkpt lat="47.28021" lon="-1.61482">
        <ele>55</ele>
        <time>2012-01-26T14:25:32Z</time>
      </trkpt>
      <trkpt lat="47.2802" lon="-1.61483">
        <ele>54.9</ele>
        <time>2012-01-26T14:25:33Z</time>
      </trkpt>
      <trkpt lat="47.28014" lon="-1.61487">
        <ele>54.7</ele>
        <time>2012-01-26T14:25:40Z</time>
      </trkpt>
      <trkpt lat="47.2801" lon="-1.6149">
        <ele>54.7</ele>
        <time>2012-01-26T14:25:43Z</time>
      </trkpt>
      <trkpt lat="47.28007" lon="-1.61492">
        <ele>55</ele>
        <time>2012-01-26T14:25:46Z</time>
      </trkpt>
      <trkpt lat="47.28003" lon="-1.61494">
        <ele>54.9</ele>
        <time>2012-01-26T14:25:49Z</time>
      </trkpt>
      <trkpt lat="47.28" lon="-1.61497">
        <ele>54.5</ele>
        <time>2012-01-26T14:25:53Z</time>
      </trkpt>
      <trkpt lat="47.27996" lon="-1.61499">
        <ele>54.5</ele>
        <time>2012-01-26T14:25:57Z</time>
      </trkpt>
      <trkpt lat="47.27992" lon="-1.615">
        <ele>54.7</ele>
        <time>2012-01-26T14:26:01Z</time>
      </trkpt>
      <trkpt lat="47.27988" lon="-1.61502">
        <ele>53.5</ele>
        <time>2012-01-26T14:26:06Z</time>
      </trkpt>
      <trkpt lat="47.27984" lon="-1.61503">
        <ele>53.7</ele>
        <time>2012-01-26T14:26:11Z</time>
      </trkpt>
      <trkpt lat="47.2798" lon="-1.61503">
        <ele>53.7</ele>
        <time>2012-01-26T14:26:15Z</time>
      </trkpt>
      <trkpt lat="47.27976" lon="-1.61503">
        <ele>53.5</ele>
        <time>2012-01-26T14:26:19Z</time>
      </trkpt>
      <trkpt lat="47.27971" lon="-1.61502">
        <ele>53.2</ele>
        <time>2012-01-26T14:26:23Z</time>
      </trkpt>
      <trkpt lat="47.27968" lon="-1.615">
        <ele>53.5</ele>
        <time>2012-01-26T14:26:26Z</time>
      </trkpt>
      <trkpt lat="47.27964" lon="-1.61498">
        <ele>53.7</ele>
        <time>2012-01-26T14:26:29Z</time>
      </trkpt>
      <trkpt lat="47.2796" lon="-1.61496">
        <ele>53.5</ele>
        <time>2012-01-26T14:26:32Z</time>
      </trkpt>
      <trkpt lat="47.27956" lon="-1.61494">
        <ele>53.2</ele>
        <time>2012-01-26T14:26:35Z</time>
      </trkpt>
      <trkpt lat="47.27955" lon="-1.61493">
        <ele>53.2</ele>
        <time>2012-01-26T14:26:36Z</time>
      </trkpt>
      <trkpt lat="47.27948" lon="-1.61491">
        <ele>53</ele>
        <time>2012-01-26T14:26:42Z</time>
      </trkpt>
      <trkpt lat="47.27944" lon="-1.61489">
        <ele>52.2</ele>
        <time>2012-01-26T14:26:46Z</time>
      </trkpt>
      <trkpt lat="47.2794" lon="-1.61488">
        <ele>52</ele>
        <time>2012-01-26T14:26:49Z</time>
      </trkpt>
      <trkpt lat="47.27936" lon="-1.61487">
        <ele>51.5</ele>
        <time>2012-01-26T14:26:52Z</time>
      </trkpt>
      <trkpt lat="47.27933" lon="-1.61485">
        <ele>51.2</ele>
        <time>2012-01-26T14:26:56Z</time>
      </trkpt>
      <trkpt lat="47.27929" lon="-1.61485">
        <ele>51.4</ele>
        <time>2012-01-26T14:26:59Z</time>
      </trkpt>
      <trkpt lat="47.27925" lon="-1.61485">
        <ele>50.7</ele>
        <time>2012-01-26T14:27:02Z</time>
      </trkpt>
      <trkpt lat="47.27921" lon="-1.61486">
        <ele>50.2</ele>
        <time>2012-01-26T14:27:05Z</time>
      </trkpt>
      <trkpt lat="47.27917" lon="-1.61488">
        <ele>50</ele>
        <time>2012-01-26T14:27:08Z</time>
      </trkpt>
      <trkpt lat="47.27914" lon="-1.6149">
        <ele>50.2</ele>
        <time>2012-01-26T14:27:11Z</time>
      </trkpt>
      <trkpt lat="47.2791" lon="-1.61492">
        <ele>50.2</ele>
        <time>2012-01-26T14:27:14Z</time>
      </trkpt>
      <trkpt lat="47.27906" lon="-1.61493">
        <ele>50</ele>
        <time>2012-01-26T14:27:17Z</time>
      </trkpt>
      <trkpt lat="47.27902" lon="-1.61495">
        <ele>49.5</ele>
        <time>2012-01-26T14:27:21Z</time>
      </trkpt>
      <trkpt lat="47.27898" lon="-1.61497">
        <ele>49.4</ele>
        <time>2012-01-26T14:27:24Z</time>
      </trkpt>
      <trkpt lat="47.27895" lon="-1.61499">
        <ele>49.4</ele>
        <time>2012-01-26T14:27:28Z</time>
      </trkpt>
      <trkpt lat="47.2789" lon="-1.61499">
        <ele>49.2</ele>
        <time>2012-01-26T14:27:32Z</time>
      </trkpt>
      <trkpt lat="47.27887" lon="-1.61499">
        <ele>49.2</ele>
        <time>2012-01-26T14:27:36Z</time>
      </trkpt>
      <trkpt lat="47.27886" lon="-1.61499">
        <ele>49</ele>
        <time>2012-01-26T14:27:37Z</time>
      </trkpt>
      <trkpt lat="47.27879" lon="-1.615">
        <ele>48</ele>
        <time>2012-01-26T14:27:44Z</time>
      </trkpt>
      <trkpt lat="47.27874" lon="-1.615">
        <ele>48</ele>
        <time>2012-01-26T14:27:48Z</time>
      </trkpt>
      <trkpt lat="47.2787" lon="-1.61501">
        <ele>47.7</ele>
        <time>2012-01-26T14:27:52Z</time>
      </trkpt>
      <trkpt lat="47.27866" lon="-1.61501">
        <ele>47.2</ele>
        <time>2012-01-26T14:27:56Z</time>
      </trkpt>
      <trkpt lat="47.27862" lon="-1.61502">
        <ele>46.7</ele>
        <time>2012-01-26T14:28:00Z</time>
      </trkpt>
      <trkpt lat="47.27858" lon="-1.61502">
        <ele>46.7</ele>
        <time>2012-01-26T14:28:04Z</time>
      </trkpt>
      <trkpt lat="47.27854" lon="-1.61503">
        <ele>47</ele>
        <time>2012-01-26T14:28:08Z</time>
      </trkpt>
      <trkpt lat="47.2785" lon="-1.61504">
        <ele>47</ele>
        <time>2012-01-26T14:28:12Z</time>
      </trkpt>
      <trkpt lat="47.27846" lon="-1.61505">
        <ele>46.2</ele>
        <time>2012-01-26T14:28:15Z</time>
      </trkpt>
      <trkpt lat="47.27842" lon="-1.61506">
        <ele>45.9</ele>
        <time>2012-01-26T14:28:18Z</time>
      </trkpt>
      <trkpt lat="47.27838" lon="-1.61507">
        <ele>45.9</ele>
        <time>2012-01-26T14:28:21Z</time>
      </trkpt>
      <trkpt lat="47.27834" lon="-1.61507">
        <ele>45.4</ele>
        <time>2012-01-26T14:28:25Z</time>
      </trkpt>
      <trkpt lat="47.2783" lon="-1.61507">
        <ele>44.7</ele>
        <time>2012-01-26T14:28:29Z</time>
      </trkpt>
      <trkpt lat="47.27826" lon="-1.61508">
        <ele>43.7</ele>
        <time>2012-01-26T14:28:36Z</time>
      </trkpt>
      <trkpt lat="47.27822" lon="-1.6151">
        <ele>44.2</ele>
        <time>2012-01-26T14:28:41Z</time>
      </trkpt>
      <trkpt lat="47.27821" lon="-1.6151">
        <ele>44</ele>
        <time>2012-01-26T14:28:42Z</time>
      </trkpt>
      <trkpt lat="47.27814" lon="-1.61512">
        <ele>43.7</ele>
        <time>2012-01-26T14:28:50Z</time>
      </trkpt>
      <trkpt lat="47.2781" lon="-1.61515">
        <ele>43.4</ele>
        <time>2012-01-26T14:28:54Z</time>
      </trkpt>
      <trkpt lat="47.27806" lon="-1.61516">
        <ele>43</ele>
        <time>2012-01-26T14:28:58Z</time>
      </trkpt>
      <trkpt lat="47.27803" lon="-1.61519">
        <ele>42.7</ele>
        <time>2012-01-26T14:29:02Z</time>
      </trkpt>
      <trkpt lat="47.27799" lon="-1.61521">
        <ele>42.5</ele>
        <time>2012-01-26T14:29:06Z</time>
      </trkpt>
      <trkpt lat="47.27796" lon="-1.61523">
        <ele>43</ele>
        <time>2012-01-26T14:29:10Z</time>
      </trkpt>
      <trkpt lat="47.27792" lon="-1.61526">
        <ele>42.5</ele>
        <time>2012-01-26T14:29:13Z</time>
      </trkpt>
      <trkpt lat="47.27789" lon="-1.61529">
        <ele>42</ele>
        <time>2012-01-26T14:29:17Z</time>
      </trkpt>
      <trkpt lat="47.27785" lon="-1.61532">
        <ele>42.2</ele>
        <time>2012-01-26T14:29:21Z</time>
      </trkpt>
      <trkpt lat="47.27782" lon="-1.61536">
        <ele>41.5</ele>
        <time>2012-01-26T14:29:25Z</time>
      </trkpt>
      <trkpt lat="47.27779" lon="-1.6154">
        <ele>41.5</ele>
        <time>2012-01-26T14:29:29Z</time>
      </trkpt>
      <trkpt lat="47.27776" lon="-1.61544">
        <ele>41</ele>
        <time>2012-01-26T14:29:33Z</time>
      </trkpt>
      <trkpt lat="47.27773" lon="-1.61548">
        <ele>41</ele>
        <time>2012-01-26T14:29:37Z</time>
      </trkpt>
      <trkpt lat="47.2777" lon="-1.61551">
        <ele>40.9</ele>
        <time>2012-01-26T14:29:41Z</time>
      </trkpt>
      <trkpt lat="47.27767" lon="-1.61554">
        <ele>40.5</ele>
        <time>2012-01-26T14:29:45Z</time>
      </trkpt>
      <trkpt lat="47.27765" lon="-1.61554">
        <ele>40.4</ele>
        <time>2012-01-26T14:29:46Z</time>
      </trkpt>
      <trkpt lat="47.2776" lon="-1.6156">
        <ele>40.2</ele>
        <time>2012-01-26T14:29:53Z</time>
      </trkpt>
      <trkpt lat="47.27756" lon="-1.61563">
        <ele>40.2</ele>
        <time>2012-01-26T14:29:57Z</time>
      </trkpt>
      <trkpt lat="47.27753" lon="-1.61566">
        <ele>39.7</ele>
        <time>2012-01-26T14:30:01Z</time>
      </trkpt>
      <trkpt lat="47.2775" lon="-1.61568">
        <ele>39.5</ele>
        <time>2012-01-26T14:30:04Z</time>
      </trkpt>
      <trkpt lat="47.27747" lon="-1.6157">
        <ele>39.5</ele>
        <time>2012-01-26T14:30:07Z</time>
      </trkpt>
      <trkpt lat="47.27744" lon="-1.61573">
        <ele>39.4</ele>
        <time>2012-01-26T14:30:10Z</time>
      </trkpt>
      <trkpt lat="47.2774" lon="-1.61575">
        <ele>39.2</ele>
        <time>2012-01-26T14:30:14Z</time>
      </trkpt>
      <trkpt lat="47.27737" lon="-1.61576">
        <ele>39</ele>
        <time>2012-01-26T14:30:18Z</time>
      </trkpt>
      <trkpt lat="47.27733" lon="-1.61579">
        <ele>39.2</ele>
        <time>2012-01-26T14:30:22Z</time>
      </trkpt>
      <trkpt lat="47.27729" lon="-1.6158">
        <ele>38.7</ele>
        <time>2012-01-26T14:30:26Z</time>
      </trkpt>
      <trkpt lat="47.27726" lon="-1.61582">
        <ele>37.9</ele>
        <time>2012-01-26T14:30:30Z</time>
      </trkpt>
      <trkpt lat="47.27723" lon="-1.61584">
        <ele>37.7</ele>
        <time>2012-01-26T14:30:33Z</time>
      </trkpt>
      <trkpt lat="47.27719" lon="-1.61586">
        <ele>37.9</ele>
        <time>2012-01-26T14:30:36Z</time>
      </trkpt>
      <trkpt lat="47.27716" lon="-1.61588">
        <ele>38</ele>
        <time>2012-01-26T14:30:39Z</time>
      </trkpt>
      <trkpt lat="47.27712" lon="-1.6159">
        <ele>37.7</ele>
        <time>2012-01-26T14:30:43Z</time>
      </trkpt>
      <trkpt lat="47.27709" lon="-1.61591">
        <ele>37.5</ele>
        <time>2012-01-26T14:30:46Z</time>
      </trkpt>
      <trkpt lat="47.27708" lon="-1.61591">
        <ele>37.5</ele>
        <time>2012-01-26T14:30:47Z</time>
      </trkpt>
      <trkpt lat="47.27701" lon="-1.61595">
        <ele>36</ele>
        <time>2012-01-26T14:30:54Z</time>
      </trkpt>
      <trkpt lat="47.27696" lon="-1.61595">
        <ele>36</ele>
        <time>2012-01-26T14:30:58Z</time>
      </trkpt>
      <trkpt lat="47.27693" lon="-1.61596">
        <ele>36.5</ele>
        <time>2012-01-26T14:31:01Z</time>
      </trkpt>
      <trkpt lat="47.27689" lon="-1.61598">
        <ele>36.4</ele>
        <time>2012-01-26T14:31:05Z</time>
      </trkpt>
      <trkpt lat="47.27685" lon="-1.61599">
        <ele>35.7</ele>
        <time>2012-01-26T14:31:09Z</time>
      </trkpt>
      <trkpt lat="47.27681" lon="-1.61601">
        <ele>35.5</ele>
        <time>2012-01-26T14:31:13Z</time>
      </trkpt>
      <trkpt lat="47.27677" lon="-1.61601">
        <ele>34.7</ele>
        <time>2012-01-26T14:31:17Z</time>
      </trkpt>
      <trkpt lat="47.27673" lon="-1.61603">
        <ele>34.7</ele>
        <time>2012-01-26T14:31:21Z</time>
      </trkpt>
      <trkpt lat="47.27669" lon="-1.61603">
        <ele>34.5</ele>
        <time>2012-01-26T14:31:24Z</time>
      </trkpt>
      <trkpt lat="47.27665" lon="-1.61603">
        <ele>34</ele>
        <time>2012-01-26T14:31:28Z</time>
      </trkpt>
      <trkpt lat="47.27661" lon="-1.61604">
        <ele>33.5</ele>
        <time>2012-01-26T14:31:32Z</time>
      </trkpt>
      <trkpt lat="47.27657" lon="-1.61604">
        <ele>33.7</ele>
        <time>2012-01-26T14:31:36Z</time>
      </trkpt>
      <trkpt lat="47.27653" lon="-1.61605">
        <ele>33.4</ele>
        <time>2012-01-26T14:31:40Z</time>
      </trkpt>
      <trkpt lat="47.27649" lon="-1.61605">
        <ele>32.9</ele>
        <time>2012-01-26T14:31:43Z</time>
      </trkpt>
      <trkpt lat="47.27646" lon="-1.61604">
        <ele>32.2</ele>
        <time>2012-01-26T14:31:47Z</time>
      </trkpt>
      <trkpt lat="47.27645" lon="-1.61605">
        <ele>32.2</ele>
        <time>2012-01-26T14:31:48Z</time>
      </trkpt>
      <trkpt lat="47.27638" lon="-1.61606">
        <ele>31.7</ele>
        <time>2012-01-26T14:31:56Z</time>
      </trkpt>
      <trkpt lat="47.27633" lon="-1.61606">
        <ele>31.7</ele>
        <time>2012-01-26T14:32:00Z</time>
      </trkpt>
      <trkpt lat="47.2763" lon="-1.61607">
        <ele>31.2</ele>
        <time>2012-01-26T14:32:04Z</time>
      </trkpt>
      <trkpt lat="47.27626" lon="-1.61608">
        <ele>30.7</ele>
        <time>2012-01-26T14:32:08Z</time>
      </trkpt>
      <trkpt lat="47.27622" lon="-1.61609">
        <ele>29.8</ele>
        <time>2012-01-26T14:32:12Z</time>
      </trkpt>
      <trkpt lat="47.27619" lon="-1.6161">
        <ele>30.3</ele>
        <time>2012-01-26T14:32:16Z</time>
      </trkpt>
      <trkpt lat="47.27614" lon="-1.61611">
        <ele>30.2</ele>
        <time>2012-01-26T14:32:20Z</time>
      </trkpt>
      <trkpt lat="47.27611" lon="-1.61612">
        <ele>29.6</ele>
        <time>2012-01-26T14:32:24Z</time>
      </trkpt>
      <trkpt lat="47.27607" lon="-1.61613">
        <ele>29.6</ele>
        <time>2012-01-26T14:32:28Z</time>
      </trkpt>
      <trkpt lat="47.27603" lon="-1.61614">
        <ele>29.8</ele>
        <time>2012-01-26T14:32:32Z</time>
      </trkpt>
      <trkpt lat="47.27599" lon="-1.61616">
        <ele>30.2</ele>
        <time>2012-01-26T14:32:36Z</time>
      </trkpt>
      <trkpt lat="47.27595" lon="-1.61616">
        <ele>30.1</ele>
        <time>2012-01-26T14:32:39Z</time>
      </trkpt>
      <trkpt lat="47.27591" lon="-1.61615">
        <ele>29.7</ele>
        <time>2012-01-26T14:32:42Z</time>
      </trkpt>
      <trkpt lat="47.27587" lon="-1.61615">
        <ele>29.7</ele>
        <time>2012-01-26T14:32:46Z</time>
      </trkpt>
      <trkpt lat="47.27583" lon="-1.61617">
        <ele>29.5</ele>
        <time>2012-01-26T14:32:50Z</time>
      </trkpt>
      <trkpt lat="47.27582" lon="-1.61617">
        <ele>29.5</ele>
        <time>2012-01-26T14:32:51Z</time>
      </trkpt>
      <trkpt lat="47.27575" lon="-1.61616">
        <ele>29.1</ele>
        <time>2012-01-26T14:32:57Z</time>
      </trkpt>
      <trkpt lat="47.27572" lon="-1.61616">
        <ele>29.2</ele>
        <time>2012-01-26T14:32:59Z</time>
      </trkpt>
      <trkpt lat="47.27568" lon="-1.61614">
        <ele>29.5</ele>
        <time>2012-01-26T14:33:02Z</time>
      </trkpt>
      <trkpt lat="47.27564" lon="-1.61613">
        <ele>29.6</ele>
        <time>2012-01-26T14:33:05Z</time>
      </trkpt>
      <trkpt lat="47.27561" lon="-1.61612">
        <ele>29.7</ele>
        <time>2012-01-26T14:33:07Z</time>
      </trkpt>
      <trkpt lat="47.27556" lon="-1.61611">
        <ele>29.7</ele>
        <time>2012-01-26T14:33:10Z</time>
      </trkpt>
      <trkpt lat="47.27553" lon="-1.61611">
        <ele>29.6</ele>
        <time>2012-01-26T14:33:12Z</time>
      </trkpt>
      <trkpt lat="47.2755" lon="-1.61609">
        <ele>29.6</ele>
        <time>2012-01-26T14:33:14Z</time>
      </trkpt>
      <trkpt lat="47.27546" lon="-1.61609">
        <ele>29.7</ele>
        <time>2012-01-26T14:33:18Z</time>
      </trkpt>
      <trkpt lat="47.27543" lon="-1.61609">
        <ele>30</ele>
        <time>2012-01-26T14:33:22Z</time>
      </trkpt>
      <trkpt lat="47.27539" lon="-1.6161">
        <ele>29.8</ele>
        <time>2012-01-26T14:33:25Z</time>
      </trkpt>
      <trkpt lat="47.27535" lon="-1.61609">
        <ele>29.7</ele>
        <time>2012-01-26T14:33:28Z</time>
      </trkpt>
      <trkpt lat="47.27531" lon="-1.61609">
        <ele>29.7</ele>
        <time>2012-01-26T14:33:31Z</time>
      </trkpt>
      <trkpt lat="47.27527" lon="-1.61608">
        <ele>29.8</ele>
        <time>2012-01-26T14:33:34Z</time>
      </trkpt>
      <trkpt lat="47.27523" lon="-1.61607">
        <ele>29.7</ele>
        <time>2012-01-26T14:33:37Z</time>
      </trkpt>
      <trkpt lat="47.27519" lon="-1.61607">
        <ele>29.7</ele>
        <time>2012-01-26T14:33:40Z</time>
      </trkpt>
      <trkpt lat="47.27515" lon="-1.61608">
        <ele>29.8</ele>
        <time>2012-01-26T14:33:46Z</time>
      </trkpt>
      <trkpt lat="47.27511" lon="-1.61609">
        <ele>30</ele>
        <time>2012-01-26T14:33:51Z</time>
      </trkpt>
      <trkpt lat="47.2751" lon="-1.61609">
        <ele>30</ele>
        <time>2012-01-26T14:33:52Z</time>
      </trkpt>
      <trkpt lat="47.27503" lon="-1.6161">
        <ele>30</ele>
        <time>2012-01-26T14:34:00Z</time>
      </trkpt>
      <trkpt lat="47.27499" lon="-1.6161">
        <ele>29.5</ele>
        <time>2012-01-26T14:34:04Z</time>
      </trkpt>
      <trkpt lat="47.27496" lon="-1.61609">
        <ele>30.3</ele>
        <time>2012-01-26T14:34:07Z</time>
      </trkpt>
      <trkpt lat="47.27492" lon="-1.6161">
        <ele>30.2</ele>
        <time>2012-01-26T14:34:12Z</time>
      </trkpt>
      <trkpt lat="47.27488" lon="-1.61611">
        <ele>30.2</ele>
        <time>2012-01-26T14:34:16Z</time>
      </trkpt>
      <trkpt lat="47.27485" lon="-1.61612">
        <ele>29.7</ele>
        <time>2012-01-26T14:34:19Z</time>
      </trkpt>
      <trkpt lat="47.27481" lon="-1.61614">
        <ele>29.7</ele>
        <time>2012-01-26T14:34:23Z</time>
      </trkpt>
      <trkpt lat="47.27477" lon="-1.61615">
        <ele>29.6</ele>
        <time>2012-01-26T14:34:26Z</time>
      </trkpt>
      <trkpt lat="47.27473" lon="-1.61618">
        <ele>29.3</ele>
        <time>2012-01-26T14:34:30Z</time>
      </trkpt>
      <trkpt lat="47.27469" lon="-1.61618">
        <ele>29.7</ele>
        <time>2012-01-26T14:34:33Z</time>
      </trkpt>
      <trkpt lat="47.27465" lon="-1.6162">
        <ele>30.2</ele>
        <time>2012-01-26T14:34:40Z</time>
      </trkpt>
      <trkpt lat="47.27461" lon="-1.61622">
        <ele>31.2</ele>
        <time>2012-01-26T14:34:45Z</time>
      </trkpt>
      <trkpt lat="47.27457" lon="-1.61622">
        <ele>31.7</ele>
        <time>2012-01-26T14:34:49Z</time>
      </trkpt>
      <trkpt lat="47.27453" lon="-1.61622">
        <ele>31.1</ele>
        <time>2012-01-26T14:34:53Z</time>
      </trkpt>
      <trkpt lat="47.27452" lon="-1.61623">
        <ele>31.1</ele>
        <time>2012-01-26T14:34:54Z</time>
      </trkpt>
      <trkpt lat="47.27446" lon="-1.61626">
        <ele>31.5</ele>
        <time>2012-01-26T14:35:01Z</time>
      </trkpt>
      <trkpt lat="47.27442" lon="-1.61629">
        <ele>31.2</ele>
        <time>2012-01-26T14:35:05Z</time>
      </trkpt>
      <trkpt lat="47.27438" lon="-1.6163">
        <ele>31.2</ele>
        <time>2012-01-26T14:35:09Z</time>
      </trkpt>
      <trkpt lat="47.27434" lon="-1.61632">
        <ele>32</ele>
        <time>2012-01-26T14:35:14Z</time>
      </trkpt>
      <trkpt lat="47.27431" lon="-1.61636">
        <ele>32.5</ele>
        <time>2012-01-26T14:35:19Z</time>
      </trkpt>
      <trkpt lat="47.27428" lon="-1.61638">
        <ele>33</ele>
        <time>2012-01-26T14:35:23Z</time>
      </trkpt>
      <trkpt lat="47.27425" lon="-1.61642">
        <ele>32.5</ele>
        <time>2012-01-26T14:35:27Z</time>
      </trkpt>
      <trkpt lat="47.27421" lon="-1.61645">
        <ele>33.2</ele>
        <time>2012-01-26T14:35:32Z</time>
      </trkpt>
      <trkpt lat="47.27418" lon="-1.61648">
        <ele>32.7</ele>
        <time>2012-01-26T14:35:36Z</time>
      </trkpt>
      <trkpt lat="47.27414" lon="-1.6165">
        <ele>32.5</ele>
        <time>2012-01-26T14:35:40Z</time>
      </trkpt>
      <trkpt lat="47.27411" lon="-1.61652">
        <ele>32.9</ele>
        <time>2012-01-26T14:35:44Z</time>
      </trkpt>
      <trkpt lat="47.27407" lon="-1.61655">
        <ele>34</ele>
        <time>2012-01-26T14:35:48Z</time>
      </trkpt>
      <trkpt lat="47.27404" lon="-1.61657">
        <ele>34</ele>
        <time>2012-01-26T14:35:53Z</time>
      </trkpt>
      <trkpt lat="47.27401" lon="-1.6166">
        <ele>33.5</ele>
        <time>2012-01-26T14:35:57Z</time>
      </trkpt>
      <trkpt lat="47.274" lon="-1.61661">
        <ele>33.5</ele>
        <time>2012-01-26T14:35:58Z</time>
      </trkpt>
      <trkpt lat="47.27394" lon="-1.61667">
        <ele>34</ele>
        <time>2012-01-26T14:36:06Z</time>
      </trkpt>
      <trkpt lat="47.27391" lon="-1.6167">
        <ele>34.2</ele>
        <time>2012-01-26T14:36:10Z</time>
      </trkpt>
      <trkpt lat="47.27388" lon="-1.61674">
        <ele>34.4</ele>
        <time>2012-01-26T14:36:14Z</time>
      </trkpt>
      <trkpt lat="47.27384" lon="-1.61677">
        <ele>34.7</ele>
        <time>2012-01-26T14:36:18Z</time>
      </trkpt>
      <trkpt lat="47.27381" lon="-1.6168">
        <ele>35</ele>
        <time>2012-01-26T14:36:22Z</time>
      </trkpt>
      <trkpt lat="47.27377" lon="-1.61684">
        <ele>35.2</ele>
        <time>2012-01-26T14:36:26Z</time>
      </trkpt>
      <trkpt lat="47.27374" lon="-1.61688">
        <ele>35.4</ele>
        <time>2012-01-26T14:36:30Z</time>
      </trkpt>
      <trkpt lat="47.27371" lon="-1.61692">
        <ele>35.7</ele>
        <time>2012-01-26T14:36:34Z</time>
      </trkpt>
      <trkpt lat="47.27368" lon="-1.61695">
        <ele>35.7</ele>
        <time>2012-01-26T14:36:38Z</time>
      </trkpt>
      <trkpt lat="47.27365" lon="-1.61698">
        <ele>36</ele>
        <time>2012-01-26T14:36:43Z</time>
      </trkpt>
      <trkpt lat="47.27362" lon="-1.61702">
        <ele>35.7</ele>
        <time>2012-01-26T14:36:47Z</time>
      </trkpt>
      <trkpt lat="47.27358" lon="-1.61705">
        <ele>35.7</ele>
        <time>2012-01-26T14:36:51Z</time>
      </trkpt>
      <trkpt lat="47.27354" lon="-1.61707">
        <ele>36.2</ele>
        <time>2012-01-26T14:36:55Z</time>
      </trkpt>
      <trkpt lat="47.27351" lon="-1.6171">
        <ele>36.4</ele>
        <time>2012-01-26T14:36:58Z</time>
      </trkpt>
      <trkpt lat="47.2735" lon="-1.61711">
        <ele>36.5</ele>
        <time>2012-01-26T14:36:59Z</time>
      </trkpt>
      <trkpt lat="47.27345" lon="-1.61718">
        <ele>36.5</ele>
        <time>2012-01-26T14:37:06Z</time>
      </trkpt>
      <trkpt lat="47.27342" lon="-1.61721">
        <ele>36.9</ele>
        <time>2012-01-26T14:37:09Z</time>
      </trkpt>
      <trkpt lat="47.2734" lon="-1.61725">
        <ele>37</ele>
        <time>2012-01-26T14:37:13Z</time>
      </trkpt>
      <trkpt lat="47.27337" lon="-1.61729">
        <ele>36.7</ele>
        <time>2012-01-26T14:37:16Z</time>
      </trkpt>
      <trkpt lat="47.27335" lon="-1.61734">
        <ele>36.9</ele>
        <time>2012-01-26T14:37:20Z</time>
      </trkpt>
      <trkpt lat="47.27332" lon="-1.61738">
        <ele>36.7</ele>
        <time>2012-01-26T14:37:24Z</time>
      </trkpt>
      <trkpt lat="47.2733" lon="-1.61743">
        <ele>37</ele>
        <time>2012-01-26T14:37:28Z</time>
      </trkpt>
      <trkpt lat="47.27329" lon="-1.61748">
        <ele>37</ele>
        <time>2012-01-26T14:37:31Z</time>
      </trkpt>
      <trkpt lat="47.27327" lon="-1.61752">
        <ele>37</ele>
        <time>2012-01-26T14:37:34Z</time>
      </trkpt>
      <trkpt lat="47.27325" lon="-1.61757">
        <ele>37.2</ele>
        <time>2012-01-26T14:37:38Z</time>
      </trkpt>
      <trkpt lat="47.27323" lon="-1.61762">
        <ele>37</ele>
        <time>2012-01-26T14:37:42Z</time>
      </trkpt>
      <trkpt lat="47.27321" lon="-1.61765">
        <ele>37</ele>
        <time>2012-01-26T14:37:45Z</time>
      </trkpt>
      <trkpt lat="47.27318" lon="-1.6177">
        <ele>37.2</ele>
        <time>2012-01-26T14:37:48Z</time>
      </trkpt>
      <trkpt lat="47.27316" lon="-1.61775">
        <ele>36.9</ele>
        <time>2012-01-26T14:37:51Z</time>
      </trkpt>
      <trkpt lat="47.27314" lon="-1.6178">
        <ele>37.2</ele>
        <time>2012-01-26T14:37:54Z</time>
      </trkpt>
      <trkpt lat="47.27311" lon="-1.61785">
        <ele>37.4</ele>
        <time>2012-01-26T14:37:57Z</time>
      </trkpt>
      <trkpt lat="47.27309" lon="-1.6179">
        <ele>37.2</ele>
        <time>2012-01-26T14:38:00Z</time>
      </trkpt>
      <trkpt lat="47.27309" lon="-1.61791">
        <ele>37.2</ele>
        <time>2012-01-26T14:38:01Z</time>
      </trkpt>
      <trkpt lat="47.27306" lon="-1.61799">
        <ele>37.2</ele>
        <time>2012-01-26T14:38:06Z</time>
      </trkpt>
      <trkpt lat="47.27304" lon="-1.61803">
        <ele>36.7</ele>
        <time>2012-01-26T14:38:09Z</time>
      </trkpt>
      <trkpt lat="47.27302" lon="-1.61808">
        <ele>36.7</ele>
        <time>2012-01-26T14:38:12Z</time>
      </trkpt>
      <trkpt lat="47.273" lon="-1.61813">
        <ele>37.4</ele>
        <time>2012-01-26T14:38:16Z</time>
      </trkpt>
      <trkpt lat="47.27297" lon="-1.61818">
        <ele>37.7</ele>
        <time>2012-01-26T14:38:20Z</time>
      </trkpt>
      <trkpt lat="47.27295" lon="-1.61823">
        <ele>38</ele>
        <time>2012-01-26T14:38:23Z</time>
      </trkpt>
      <trkpt lat="47.27293" lon="-1.61828">
        <ele>37.9</ele>
        <time>2012-01-26T14:38:26Z</time>
      </trkpt>
      <trkpt lat="47.27291" lon="-1.61833">
        <ele>37.9</ele>
        <time>2012-01-26T14:38:29Z</time>
      </trkpt>
      <trkpt lat="47.27289" lon="-1.61837">
        <ele>37.5</ele>
        <time>2012-01-26T14:38:32Z</time>
      </trkpt>
      <trkpt lat="47.27286" lon="-1.61842">
        <ele>37.2</ele>
        <time>2012-01-26T14:38:36Z</time>
      </trkpt>
      <trkpt lat="47.27283" lon="-1.61846">
        <ele>38</ele>
        <time>2012-01-26T14:38:44Z</time>
      </trkpt>
      <trkpt lat="47.27279" lon="-1.61849">
        <ele>38</ele>
        <time>2012-01-26T14:38:54Z</time>
      </trkpt>
      <trkpt lat="47.27275" lon="-1.61852">
        <ele>38</ele>
        <time>2012-01-26T14:39:01Z</time>
      </trkpt>
      <trkpt lat="47.27275" lon="-1.61853">
        <ele>38.2</ele>
        <time>2012-01-26T14:39:02Z</time>
      </trkpt>
      <trkpt lat="47.27267" lon="-1.61856">
        <ele>37.7</ele>
        <time>2012-01-26T14:39:14Z</time>
      </trkpt>
      <trkpt lat="47.27267" lon="-1.61849">
        <ele>37.7</ele>
        <time>2012-01-26T14:39:22Z</time>
      </trkpt>
      <trkpt lat="47.27268" lon="-1.61844">
        <ele>37.7</ele>
        <time>2012-01-26T14:39:26Z</time>
      </trkpt>
      <trkpt lat="47.27268" lon="-1.61839">
        <ele>38</ele>
        <time>2012-01-26T14:39:30Z</time>
      </trkpt>
      <trkpt lat="47.27269" lon="-1.61833">
        <ele>38</ele>
        <time>2012-01-26T14:39:34Z</time>
      </trkpt>
      <trkpt lat="47.27269" lon="-1.61827">
        <ele>38.2</ele>
        <time>2012-01-26T14:39:38Z</time>
      </trkpt>
      <trkpt lat="47.27269" lon="-1.61821">
        <ele>38</ele>
        <time>2012-01-26T14:39:42Z</time>
      </trkpt>
      <trkpt lat="47.27269" lon="-1.61816">
        <ele>38.2</ele>
        <time>2012-01-26T14:39:46Z</time>
      </trkpt>
      <trkpt lat="47.27269" lon="-1.6181">
        <ele>37.7</ele>
        <time>2012-01-26T14:39:50Z</time>
      </trkpt>
      <trkpt lat="47.27268" lon="-1.61803">
        <ele>38</ele>
        <time>2012-01-26T14:39:54Z</time>
      </trkpt>
      <trkpt lat="47.27267" lon="-1.61797">
        <ele>38</ele>
        <time>2012-01-26T14:39:58Z</time>
      </trkpt>
      <trkpt lat="47.27266" lon="-1.61792">
        <ele>38.2</ele>
        <time>2012-01-26T14:40:01Z</time>
      </trkpt>
      <trkpt lat="47.27265" lon="-1.61787">
        <ele>38.2</ele>
        <time>2012-01-26T14:40:04Z</time>
      </trkpt>
      <trkpt lat="47.27264" lon="-1.61786">
        <ele>38</ele>
        <time>2012-01-26T14:40:05Z</time>
      </trkpt>
      <trkpt lat="47.27261" lon="-1.61777">
        <ele>38.2</ele>
        <time>2012-01-26T14:40:12Z</time>
      </trkpt>
      <trkpt lat="47.2726" lon="-1.61771">
        <ele>37.7</ele>
        <time>2012-01-26T14:40:16Z</time>
      </trkpt>
      <trkpt lat="47.27258" lon="-1.61765">
        <ele>38</ele>
        <time>2012-01-26T14:40:20Z</time>
      </trkpt>
      <trkpt lat="47.27257" lon="-1.61759">
        <ele>37.9</ele>
        <time>2012-01-26T14:40:24Z</time>
      </trkpt>
      <trkpt lat="47.27256" lon="-1.61753">
        <ele>37.2</ele>
        <time>2012-01-26T14:40:30Z</time>
      </trkpt>
      <trkpt lat="47.27253" lon="-1.61749">
        <ele>37.4</ele>
        <time>2012-01-26T14:40:34Z</time>
      </trkpt>
      <trkpt lat="47.27249" lon="-1.61749">
        <ele>37.5</ele>
        <time>2012-01-26T14:40:39Z</time>
      </trkpt>
      <trkpt lat="47.27245" lon="-1.61751">
        <ele>37.5</ele>
        <time>2012-01-26T14:40:44Z</time>
      </trkpt>
      <trkpt lat="47.27241" lon="-1.6175">
        <ele>37.5</ele>
        <time>2012-01-26T14:40:51Z</time>
      </trkpt>
      <trkpt lat="47.27237" lon="-1.61749">
        <ele>37.5</ele>
        <time>2012-01-26T14:40:56Z</time>
      </trkpt>
      <trkpt lat="47.27233" lon="-1.61748">
        <ele>38</ele>
        <time>2012-01-26T14:41:01Z</time>
      </trkpt>
      <trkpt lat="47.27228" lon="-1.61748">
        <ele>38</ele>
        <time>2012-01-26T14:41:06Z</time>
      </trkpt>
      <trkpt lat="47.27227" lon="-1.61748">
        <ele>38</ele>
        <time>2012-01-26T14:41:07Z</time>
      </trkpt>
      <trkpt lat="47.2722" lon="-1.61746">
        <ele>37.9</ele>
        <time>2012-01-26T14:41:15Z</time>
      </trkpt>
      <trkpt lat="47.27217" lon="-1.61742">
        <ele>37.9</ele>
        <time>2012-01-26T14:41:19Z</time>
      </trkpt>
      <trkpt lat="47.27215" lon="-1.61737">
        <ele>38.7</ele>
        <time>2012-01-26T14:41:23Z</time>
      </trkpt>
      <trkpt lat="47.27213" lon="-1.61731">
        <ele>39</ele>
        <time>2012-01-26T14:41:27Z</time>
      </trkpt>
      <trkpt lat="47.27211" lon="-1.61725">
        <ele>39.4</ele>
        <time>2012-01-26T14:41:31Z</time>
      </trkpt>
      <trkpt lat="47.2721" lon="-1.6172">
        <ele>39.5</ele>
        <time>2012-01-26T14:41:34Z</time>
      </trkpt>
      <trkpt lat="47.27209" lon="-1.61714">
        <ele>39</ele>
        <time>2012-01-26T14:41:38Z</time>
      </trkpt>
      <trkpt lat="47.27207" lon="-1.61709">
        <ele>38.7</ele>
        <time>2012-01-26T14:41:41Z</time>
      </trkpt>
      <trkpt lat="47.27206" lon="-1.61703">
        <ele>38.2</ele>
        <time>2012-01-26T14:41:45Z</time>
      </trkpt>
      <trkpt lat="47.27204" lon="-1.61698">
        <ele>39.2</ele>
        <time>2012-01-26T14:41:49Z</time>
      </trkpt>
      <trkpt lat="47.27203" lon="-1.61693">
        <ele>38.5</ele>
        <time>2012-01-26T14:41:52Z</time>
      </trkpt>
      <trkpt lat="47.27202" lon="-1.61688">
        <ele>38</ele>
        <time>2012-01-26T14:41:55Z</time>
      </trkpt>
      <trkpt lat="47.27201" lon="-1.61683">
        <ele>37.7</ele>
        <time>2012-01-26T14:41:59Z</time>
      </trkpt>
      <trkpt lat="47.27199" lon="-1.61677">
        <ele>38.5</ele>
        <time>2012-01-26T14:42:03Z</time>
      </trkpt>
      <trkpt lat="47.27198" lon="-1.61672">
        <ele>39</ele>
        <time>2012-01-26T14:42:07Z</time>
      </trkpt>
      <trkpt lat="47.27198" lon="-1.6167">
        <ele>39.2</ele>
        <time>2012-01-26T14:42:08Z</time>
      </trkpt>
      <trkpt lat="47.27196" lon="-1.61661">
        <ele>39.5</ele>
        <time>2012-01-26T14:42:15Z</time>
      </trkpt>
      <trkpt lat="47.27194" lon="-1.61655">
        <ele>38.9</ele>
        <time>2012-01-26T14:42:20Z</time>
      </trkpt>
      <trkpt lat="47.27194" lon="-1.61649">
        <ele>39.2</ele>
        <time>2012-01-26T14:42:25Z</time>
      </trkpt>
      <trkpt lat="47.27193" lon="-1.61643">
        <ele>39.7</ele>
        <time>2012-01-26T14:42:30Z</time>
      </trkpt>
      <trkpt lat="47.27193" lon="-1.61638">
        <ele>40</ele>
        <time>2012-01-26T14:42:35Z</time>
      </trkpt>
      <trkpt lat="47.27192" lon="-1.61631">
        <ele>39.9</ele>
        <time>2012-01-26T14:42:40Z</time>
      </trkpt>
      <trkpt lat="47.27191" lon="-1.61625">
        <ele>39.2</ele>
        <time>2012-01-26T14:42:46Z</time>
      </trkpt>
      <trkpt lat="47.27191" lon="-1.61619">
        <ele>39</ele>
        <time>2012-01-26T14:42:51Z</time>
      </trkpt>
      <trkpt lat="47.27191" lon="-1.61613">
        <ele>39.4</ele>
        <time>2012-01-26T14:42:56Z</time>
      </trkpt>
      <trkpt lat="47.27191" lon="-1.61606">
        <ele>39.2</ele>
        <time>2012-01-26T14:43:01Z</time>
      </trkpt>
      <trkpt lat="47.27191" lon="-1.616">
        <ele>39.4</ele>
        <time>2012-01-26T14:43:06Z</time>
      </trkpt>
      <trkpt lat="47.27192" lon="-1.61595">
        <ele>39.4</ele>
        <time>2012-01-26T14:43:10Z</time>
      </trkpt>
      <trkpt lat="47.27192" lon="-1.61593">
        <ele>39.4</ele>
        <time>2012-01-26T14:43:11Z</time>
      </trkpt>
      <trkpt lat="47.27192" lon="-1.61583">
        <ele>39.2</ele>
        <time>2012-01-26T14:43:18Z</time>
      </trkpt>
      <trkpt lat="47.27193" lon="-1.61578">
        <ele>39.5</ele>
        <time>2012-01-26T14:43:23Z</time>
      </trkpt>
      <trkpt lat="47.27194" lon="-1.61571">
        <ele>39.4</ele>
        <time>2012-01-26T14:43:28Z</time>
      </trkpt>
      <trkpt lat="47.27194" lon="-1.61565">
        <ele>39.4</ele>
        <time>2012-01-26T14:43:33Z</time>
      </trkpt>
      <trkpt lat="47.27194" lon="-1.61559">
        <ele>39.7</ele>
        <time>2012-01-26T14:43:38Z</time>
      </trkpt>
      <trkpt lat="47.27194" lon="-1.61553">
        <ele>39.2</ele>
        <time>2012-01-26T14:43:43Z</time>
      </trkpt>
      <trkpt lat="47.27195" lon="-1.61548">
        <ele>38.7</ele>
        <time>2012-01-26T14:43:48Z</time>
      </trkpt>
      <trkpt lat="47.27195" lon="-1.61542">
        <ele>39.2</ele>
        <time>2012-01-26T14:43:53Z</time>
      </trkpt>
      <trkpt lat="47.27196" lon="-1.61536">
        <ele>38.7</ele>
        <time>2012-01-26T14:43:58Z</time>
      </trkpt>
      <trkpt lat="47.27197" lon="-1.6153">
        <ele>38.5</ele>
        <time>2012-01-26T14:44:03Z</time>
      </trkpt>
      <trkpt lat="47.27198" lon="-1.61523">
        <ele>38.4</ele>
        <time>2012-01-26T14:44:08Z</time>
      </trkpt>
      <trkpt lat="47.27199" lon="-1.61517">
        <ele>38.5</ele>
        <time>2012-01-26T14:44:14Z</time>
      </trkpt>
      <trkpt lat="47.272" lon="-1.61516">
        <ele>38.5</ele>
        <time>2012-01-26T14:44:15Z</time>
      </trkpt>
      <trkpt lat="47.272" lon="-1.61506">
        <ele>38.4</ele>
        <time>2012-01-26T14:44:24Z</time>
      </trkpt>
      <trkpt lat="47.27201" lon="-1.61499">
        <ele>38.5</ele>
        <time>2012-01-26T14:44:29Z</time>
      </trkpt>
      <trkpt lat="47.27202" lon="-1.61494">
        <ele>38.2</ele>
        <time>2012-01-26T14:44:33Z</time>
      </trkpt>
      <trkpt lat="47.27203" lon="-1.61489">
        <ele>37.5</ele>
        <time>2012-01-26T14:44:37Z</time>
      </trkpt>
      <trkpt lat="47.27204" lon="-1.61483">
        <ele>37.9</ele>
        <time>2012-01-26T14:44:41Z</time>
      </trkpt>
      <trkpt lat="47.27206" lon="-1.61478">
        <ele>37.5</ele>
        <time>2012-01-26T14:44:45Z</time>
      </trkpt>
      <trkpt lat="47.27207" lon="-1.61472">
        <ele>37.2</ele>
        <time>2012-01-26T14:44:50Z</time>
      </trkpt>
      <trkpt lat="47.27207" lon="-1.61466">
        <ele>37.5</ele>
        <time>2012-01-26T14:44:54Z</time>
      </trkpt>
      <trkpt lat="47.27207" lon="-1.61461">
        <ele>37.4</ele>
        <time>2012-01-26T14:44:58Z</time>
      </trkpt>
      <trkpt lat="47.27206" lon="-1.61454">
        <ele>37</ele>
        <time>2012-01-26T14:45:03Z</time>
      </trkpt>
      <trkpt lat="47.27204" lon="-1.61449">
        <ele>37.7</ele>
        <time>2012-01-26T14:45:08Z</time>
      </trkpt>
      <trkpt lat="47.27203" lon="-1.61444">
        <ele>37.7</ele>
        <time>2012-01-26T14:45:12Z</time>
      </trkpt>
      <trkpt lat="47.27202" lon="-1.61439">
        <ele>37</ele>
        <time>2012-01-26T14:45:15Z</time>
      </trkpt>
      <trkpt lat="47.27202" lon="-1.61437">
        <ele>37.2</ele>
        <time>2012-01-26T14:45:16Z</time>
      </trkpt>
      <trkpt lat="47.27197" lon="-1.6143">
        <ele>37.7</ele>
        <time>2012-01-26T14:45:25Z</time>
      </trkpt>
      <trkpt lat="47.27193" lon="-1.61429">
        <ele>37.9</ele>
        <time>2012-01-26T14:45:30Z</time>
      </trkpt>
      <trkpt lat="47.27189" lon="-1.61428">
        <ele>38.5</ele>
        <time>2012-01-26T14:45:35Z</time>
      </trkpt>
      <trkpt lat="47.27184" lon="-1.61427">
        <ele>38.9</ele>
        <time>2012-01-26T14:45:41Z</time>
      </trkpt>
      <trkpt lat="47.2718" lon="-1.61426">
        <ele>38.5</ele>
        <time>2012-01-26T14:45:46Z</time>
      </trkpt>
      <trkpt lat="47.27176" lon="-1.61426">
        <ele>39.7</ele>
        <time>2012-01-26T14:45:52Z</time>
      </trkpt>
      <trkpt lat="47.27172" lon="-1.61426">
        <ele>39.7</ele>
        <time>2012-01-26T14:45:58Z</time>
      </trkpt>
      <trkpt lat="47.27168" lon="-1.61425">
        <ele>39.9</ele>
        <time>2012-01-26T14:46:03Z</time>
      </trkpt>
      <trkpt lat="47.27164" lon="-1.61425">
        <ele>40.4</ele>
        <time>2012-01-26T14:46:07Z</time>
      </trkpt>
      <trkpt lat="47.2716" lon="-1.61424">
        <ele>40.9</ele>
        <time>2012-01-26T14:46:12Z</time>
      </trkpt>
      <trkpt lat="47.27156" lon="-1.61424">
        <ele>41.2</ele>
        <time>2012-01-26T14:46:16Z</time>
      </trkpt>
      <trkpt lat="47.27155" lon="-1.61424">
        <ele>41.2</ele>
        <time>2012-01-26T14:46:17Z</time>
      </trkpt>
      <trkpt lat="47.27147" lon="-1.61424">
        <ele>41.7</ele>
        <time>2012-01-26T14:46:26Z</time>
      </trkpt>
      <trkpt lat="47.27144" lon="-1.61424">
        <ele>42</ele>
        <time>2012-01-26T14:46:30Z</time>
      </trkpt>
      <trkpt lat="47.2714" lon="-1.61424">
        <ele>41.7</ele>
        <time>2012-01-26T14:46:34Z</time>
      </trkpt>
      <trkpt lat="47.27136" lon="-1.61423">
        <ele>42</ele>
        <time>2012-01-26T14:46:38Z</time>
      </trkpt>
      <trkpt lat="47.27132" lon="-1.61423">
        <ele>42.5</ele>
        <time>2012-01-26T14:46:42Z</time>
      </trkpt>
      <trkpt lat="47.27129" lon="-1.61423">
        <ele>42.7</ele>
        <time>2012-01-26T14:46:46Z</time>
      </trkpt>
      <trkpt lat="47.27125" lon="-1.61423">
        <ele>43.2</ele>
        <time>2012-01-26T14:46:51Z</time>
      </trkpt>
      <trkpt lat="47.27121" lon="-1.61423">
        <ele>43.5</ele>
        <time>2012-01-26T14:46:56Z</time>
      </trkpt>
      <trkpt lat="47.27117" lon="-1.61422">
        <ele>43.7</ele>
        <time>2012-01-26T14:47:09Z</time>
      </trkpt>
      <trkpt lat="47.27112" lon="-1.61422">
        <ele>44.2</ele>
        <time>2012-01-26T14:47:16Z</time>
      </trkpt>
      <trkpt lat="47.27109" lon="-1.61424">
        <ele>44</ele>
        <time>2012-01-26T14:47:22Z</time>
      </trkpt>
      <trkpt lat="47.27108" lon="-1.61424">
        <ele>44</ele>
        <time>2012-01-26T14:47:23Z</time>
      </trkpt>
      <trkpt lat="47.271" lon="-1.61427">
        <ele>45.2</ele>
        <time>2012-01-26T14:47:33Z</time>
      </trkpt>
      <trkpt lat="47.27096" lon="-1.61427">
        <ele>45.2</ele>
        <time>2012-01-26T14:47:38Z</time>
      </trkpt>
      <trkpt lat="47.27092" lon="-1.61428">
        <ele>45.7</ele>
        <time>2012-01-26T14:47:43Z</time>
      </trkpt>
      <trkpt lat="47.27088" lon="-1.61429">
        <ele>45.5</ele>
        <time>2012-01-26T14:47:47Z</time>
      </trkpt>
      <trkpt lat="47.27084" lon="-1.61429">
        <ele>45.5</ele>
        <time>2012-01-26T14:47:51Z</time>
      </trkpt>
      <trkpt lat="47.27081" lon="-1.61429">
        <ele>46</ele>
        <time>2012-01-26T14:47:55Z</time>
      </trkpt>
      <trkpt lat="47.27077" lon="-1.61429">
        <ele>47.2</ele>
        <time>2012-01-26T14:47:59Z</time>
      </trkpt>
      <trkpt lat="47.27073" lon="-1.61429">
        <ele>47.5</ele>
        <time>2012-01-26T14:48:03Z</time>
      </trkpt>
      <trkpt lat="47.27069" lon="-1.61429">
        <ele>47.9</ele>
        <time>2012-01-26T14:48:07Z</time>
      </trkpt>
      <trkpt lat="47.27065" lon="-1.61429">
        <ele>48.2</ele>
        <time>2012-01-26T14:48:11Z</time>
      </trkpt>
      <trkpt lat="47.27061" lon="-1.61429">
        <ele>48</ele>
        <time>2012-01-26T14:48:15Z</time>
      </trkpt>
      <trkpt lat="47.27057" lon="-1.6143">
        <ele>48</ele>
        <time>2012-01-26T14:48:19Z</time>
      </trkpt>
      <trkpt lat="47.27053" lon="-1.6143">
        <ele>48.5</ele>
        <time>2012-01-26T14:48:24Z</time>
      </trkpt>
      <trkpt lat="47.27052" lon="-1.6143">
        <ele>48.7</ele>
        <time>2012-01-26T14:48:25Z</time>
      </trkpt>
      <trkpt lat="47.27046" lon="-1.6143">
        <ele>48.7</ele>
        <time>2012-01-26T14:48:32Z</time>
      </trkpt>
      <trkpt lat="47.27042" lon="-1.61429">
        <ele>49.2</ele>
        <time>2012-01-26T14:48:36Z</time>
      </trkpt>
      <trkpt lat="47.27039" lon="-1.61429">
        <ele>49.9</ele>
        <time>2012-01-26T14:48:39Z</time>
      </trkpt>
      <trkpt lat="47.27035" lon="-1.61428">
        <ele>50</ele>
        <time>2012-01-26T14:48:42Z</time>
      </trkpt>
      <trkpt lat="47.27031" lon="-1.61428">
        <ele>50</ele>
        <time>2012-01-26T14:48:45Z</time>
      </trkpt>
      <trkpt lat="47.27028" lon="-1.61427">
        <ele>49.2</ele>
        <time>2012-01-26T14:48:49Z</time>
      </trkpt>
      <trkpt lat="47.27024" lon="-1.61426">
        <ele>49.5</ele>
        <time>2012-01-26T14:48:53Z</time>
      </trkpt>
      <trkpt lat="47.2702" lon="-1.61424">
        <ele>49</ele>
        <time>2012-01-26T14:48:57Z</time>
      </trkpt>
      <trkpt lat="47.27016" lon="-1.61423">
        <ele>49</ele>
        <time>2012-01-26T14:49:01Z</time>
      </trkpt>
      <trkpt lat="47.27012" lon="-1.61422">
        <ele>49.4</ele>
        <time>2012-01-26T14:49:05Z</time>
      </trkpt>
      <trkpt lat="47.27008" lon="-1.6142">
        <ele>49.5</ele>
        <time>2012-01-26T14:49:09Z</time>
      </trkpt>
      <trkpt lat="47.27004" lon="-1.61418">
        <ele>49.2</ele>
        <time>2012-01-26T14:49:13Z</time>
      </trkpt>
      <trkpt lat="47.27001" lon="-1.61416">
        <ele>49.2</ele>
        <time>2012-01-26T14:49:16Z</time>
      </trkpt>
      <trkpt lat="47.26997" lon="-1.61414">
        <ele>49.2</ele>
        <time>2012-01-26T14:49:20Z</time>
      </trkpt>
      <trkpt lat="47.26993" lon="-1.61411">
        <ele>49.5</ele>
        <time>2012-01-26T14:49:24Z</time>
      </trkpt>
      <trkpt lat="47.26992" lon="-1.61404">
        <ele>49.2</ele>
        <time>2012-01-26T14:49:29Z</time>
      </trkpt>
      <trkpt lat="47.26992" lon="-1.61403">
        <ele>49.2</ele>
        <time>2012-01-26T14:49:30Z</time>
      </trkpt>
      <trkpt lat="47.26989" lon="-1.61392">
        <ele>49</ele>
        <time>2012-01-26T14:49:37Z</time>
      </trkpt>
      <trkpt lat="47.26987" lon="-1.61387">
        <ele>49.4</ele>
        <time>2012-01-26T14:49:41Z</time>
      </trkpt>
      <trkpt lat="47.26985" lon="-1.61382">
        <ele>49.5</ele>
        <time>2012-01-26T14:49:45Z</time>
      </trkpt>
      <trkpt lat="47.26983" lon="-1.61379">
        <ele>50</ele>
        <time>2012-01-26T14:49:48Z</time>
      </trkpt>
      <trkpt lat="47.2698" lon="-1.61375">
        <ele>50.2</ele>
        <time>2012-01-26T14:49:51Z</time>
      </trkpt>
      <trkpt lat="47.26976" lon="-1.61371">
        <ele>50</ele>
        <time>2012-01-26T14:49:55Z</time>
      </trkpt>
      <trkpt lat="47.26973" lon="-1.61369">
        <ele>49.5</ele>
        <time>2012-01-26T14:49:59Z</time>
      </trkpt>
      <trkpt lat="47.26969" lon="-1.61368">
        <ele>50.2</ele>
        <time>2012-01-26T14:50:03Z</time>
      </trkpt>
      <trkpt lat="47.26965" lon="-1.61367">
        <ele>49.5</ele>
        <time>2012-01-26T14:50:07Z</time>
      </trkpt>
      <trkpt lat="47.26962" lon="-1.61368">
        <ele>49.7</ele>
        <time>2012-01-26T14:50:11Z</time>
      </trkpt>
      <trkpt lat="47.26958" lon="-1.61367">
        <ele>49.7</ele>
        <time>2012-01-26T14:50:15Z</time>
      </trkpt>
      <trkpt lat="47.26955" lon="-1.61363">
        <ele>49.2</ele>
        <time>2012-01-26T14:50:19Z</time>
      </trkpt>
      <trkpt lat="47.26952" lon="-1.61358">
        <ele>49</ele>
        <time>2012-01-26T14:50:23Z</time>
      </trkpt>
      <trkpt lat="47.2695" lon="-1.61353">
        <ele>49</ele>
        <time>2012-01-26T14:50:27Z</time>
      </trkpt>
      <trkpt lat="47.26948" lon="-1.61348">
        <ele>49</ele>
        <time>2012-01-26T14:50:31Z</time>
      </trkpt>
      <trkpt lat="47.26947" lon="-1.61347">
        <ele>48.7</ele>
        <time>2012-01-26T14:50:32Z</time>
      </trkpt>
      <trkpt lat="47.26944" lon="-1.61337">
        <ele>48.5</ele>
        <time>2012-01-26T14:50:39Z</time>
      </trkpt>
      <trkpt lat="47.26942" lon="-1.61331">
        <ele>48.9</ele>
        <time>2012-01-26T14:50:44Z</time>
      </trkpt>
      <trkpt lat="47.26941" lon="-1.61326">
        <ele>48</ele>
        <time>2012-01-26T14:50:48Z</time>
      </trkpt>
      <trkpt lat="47.2694" lon="-1.6132">
        <ele>47.2</ele>
        <time>2012-01-26T14:50:52Z</time>
      </trkpt>
      <trkpt lat="47.26939" lon="-1.61314">
        <ele>47</ele>
        <time>2012-01-26T14:50:56Z</time>
      </trkpt>
      <trkpt lat="47.26938" lon="-1.61309">
        <ele>47.4</ele>
        <time>2012-01-26T14:51:00Z</time>
      </trkpt>
      <trkpt lat="47.26937" lon="-1.61303">
        <ele>46.7</ele>
        <time>2012-01-26T14:51:04Z</time>
      </trkpt>
      <trkpt lat="47.26936" lon="-1.61298">
        <ele>47</ele>
        <time>2012-01-26T14:51:08Z</time>
      </trkpt>
      <trkpt lat="47.26935" lon="-1.61292">
        <ele>46.9</ele>
        <time>2012-01-26T14:51:12Z</time>
      </trkpt>
      <trkpt lat="47.26934" lon="-1.61287">
        <ele>47.7</ele>
        <time>2012-01-26T14:51:16Z</time>
      </trkpt>
      <trkpt lat="47.26933" lon="-1.61281">
        <ele>47.2</ele>
        <time>2012-01-26T14:51:20Z</time>
      </trkpt>
      <trkpt lat="47.26932" lon="-1.61275">
        <ele>47.5</ele>
        <time>2012-01-26T14:51:24Z</time>
      </trkpt>
      <trkpt lat="47.26931" lon="-1.6127">
        <ele>47.2</ele>
        <time>2012-01-26T14:51:28Z</time>
      </trkpt>
      <trkpt lat="47.2693" lon="-1.61264">
        <ele>47.7</ele>
        <time>2012-01-26T14:51:32Z</time>
      </trkpt>
      <trkpt lat="47.2693" lon="-1.61262">
        <ele>47.7</ele>
        <time>2012-01-26T14:51:33Z</time>
      </trkpt>
      <trkpt lat="47.26928" lon="-1.61252">
        <ele>47.2</ele>
        <time>2012-01-26T14:51:40Z</time>
      </trkpt>
      <trkpt lat="47.26927" lon="-1.61247">
        <ele>47</ele>
        <time>2012-01-26T14:51:44Z</time>
      </trkpt>
      <trkpt lat="47.26926" lon="-1.61242">
        <ele>46.5</ele>
        <time>2012-01-26T14:51:48Z</time>
      </trkpt>
      <trkpt lat="47.26925" lon="-1.61236">
        <ele>46.7</ele>
        <time>2012-01-26T14:51:52Z</time>
      </trkpt>
      <trkpt lat="47.26924" lon="-1.61231">
        <ele>46.7</ele>
        <time>2012-01-26T14:51:56Z</time>
      </trkpt>
      <trkpt lat="47.26923" lon="-1.61225">
        <ele>46.7</ele>
        <time>2012-01-26T14:52:00Z</time>
      </trkpt>
      <trkpt lat="47.26923" lon="-1.6122">
        <ele>46.7</ele>
        <time>2012-01-26T14:52:04Z</time>
      </trkpt>
      <trkpt lat="47.26922" lon="-1.61215">
        <ele>47</ele>
        <time>2012-01-26T14:52:08Z</time>
      </trkpt>
      <trkpt lat="47.26921" lon="-1.61209">
        <ele>47.2</ele>
        <time>2012-01-26T14:52:13Z</time>
      </trkpt>
      <trkpt lat="47.2692" lon="-1.61202">
        <ele>46.2</ele>
        <time>2012-01-26T14:52:19Z</time>
      </trkpt>
      <trkpt lat="47.26919" lon="-1.61196">
        <ele>46</ele>
        <time>2012-01-26T14:52:25Z</time>
      </trkpt>
      <trkpt lat="47.26918" lon="-1.6119">
        <ele>46</ele>
        <time>2012-01-26T14:52:31Z</time>
      </trkpt>
      <trkpt lat="47.26917" lon="-1.61185">
        <ele>45.7</ele>
        <time>2012-01-26T14:52:36Z</time>
      </trkpt>
      <trkpt lat="47.26917" lon="-1.61183">
        <ele>45.7</ele>
        <time>2012-01-26T14:52:37Z</time>
      </trkpt>
      <trkpt lat="47.26916" lon="-1.61173">
        <ele>45.4</ele>
        <time>2012-01-26T14:52:46Z</time>
      </trkpt>
      <trkpt lat="47.26915" lon="-1.61167">
        <ele>45.2</ele>
        <time>2012-01-26T14:52:51Z</time>
      </trkpt>
      <trkpt lat="47.26914" lon="-1.61161">
        <ele>45.4</ele>
        <time>2012-01-26T14:52:56Z</time>
      </trkpt>
      <trkpt lat="47.26913" lon="-1.61155">
        <ele>44.9</ele>
        <time>2012-01-26T14:53:01Z</time>
      </trkpt>
      <trkpt lat="47.26913" lon="-1.61148">
        <ele>45</ele>
        <time>2012-01-26T14:53:06Z</time>
      </trkpt>
      <trkpt lat="47.26912" lon="-1.61143">
        <ele>44.4</ele>
        <time>2012-01-26T14:53:10Z</time>
      </trkpt>
      <trkpt lat="47.26911" lon="-1.61137">
        <ele>44.9</ele>
        <time>2012-01-26T14:53:15Z</time>
      </trkpt>
      <trkpt lat="47.2691" lon="-1.61132">
        <ele>45.2</ele>
        <time>2012-01-26T14:53:19Z</time>
      </trkpt>
      <trkpt lat="47.2691" lon="-1.61126">
        <ele>45.4</ele>
        <time>2012-01-26T14:53:23Z</time>
      </trkpt>
      <trkpt lat="47.26909" lon="-1.6112">
        <ele>45.5</ele>
        <time>2012-01-26T14:53:27Z</time>
      </trkpt>
      <trkpt lat="47.26908" lon="-1.61114">
        <ele>45</ele>
        <time>2012-01-26T14:53:31Z</time>
      </trkpt>
      <trkpt lat="47.26908" lon="-1.61108">
        <ele>45.5</ele>
        <time>2012-01-26T14:53:35Z</time>
      </trkpt>
      <trkpt lat="47.26907" lon="-1.61102">
        <ele>44.7</ele>
        <time>2012-01-26T14:53:39Z</time>
      </trkpt>
      <trkpt lat="47.26907" lon="-1.61101">
        <ele>44.5</ele>
        <time>2012-01-26T14:53:40Z</time>
      </trkpt>
      <trkpt lat="47.26906" lon="-1.61091">
        <ele>44.5</ele>
        <time>2012-01-26T14:53:48Z</time>
      </trkpt>
      <trkpt lat="47.26905" lon="-1.61085">
        <ele>44.4</ele>
        <time>2012-01-26T14:53:53Z</time>
      </trkpt>
      <trkpt lat="47.26905" lon="-1.61078">
        <ele>44.2</ele>
        <time>2012-01-26T14:53:58Z</time>
      </trkpt>
      <trkpt lat="47.26904" lon="-1.61072">
        <ele>44.2</ele>
        <time>2012-01-26T14:54:03Z</time>
      </trkpt>
      <trkpt lat="47.269" lon="-1.61071">
        <ele>43.5</ele>
        <time>2012-01-26T14:54:08Z</time>
      </trkpt>
      <trkpt lat="47.26896" lon="-1.61068">
        <ele>43.7</ele>
        <time>2012-01-26T14:54:14Z</time>
      </trkpt>
      <trkpt lat="47.26893" lon="-1.61063">
        <ele>44.2</ele>
        <time>2012-01-26T14:54:19Z</time>
      </trkpt>
      <trkpt lat="47.26892" lon="-1.61057">
        <ele>43.5</ele>
        <time>2012-01-26T14:54:23Z</time>
      </trkpt>
      <trkpt lat="47.26891" lon="-1.61052">
        <ele>43.5</ele>
        <time>2012-01-26T14:54:27Z</time>
      </trkpt>
      <trkpt lat="47.2689" lon="-1.61047">
        <ele>44</ele>
        <time>2012-01-26T14:54:31Z</time>
      </trkpt>
      <trkpt lat="47.26888" lon="-1.61043">
        <ele>44</ele>
        <time>2012-01-26T14:54:34Z</time>
      </trkpt>
      <trkpt lat="47.26886" lon="-1.61037">
        <ele>44</ele>
        <time>2012-01-26T14:54:38Z</time>
      </trkpt>
      <trkpt lat="47.26885" lon="-1.61032">
        <ele>43.9</ele>
        <time>2012-01-26T14:54:41Z</time>
      </trkpt>
      <trkpt lat="47.26884" lon="-1.61031">
        <ele>43.5</ele>
        <time>2012-01-26T14:54:42Z</time>
      </trkpt>
      <trkpt lat="47.26883" lon="-1.61022">
        <ele>43.2</ele>
        <time>2012-01-26T14:54:48Z</time>
      </trkpt>
      <trkpt lat="47.26883" lon="-1.61015">
        <ele>43</ele>
        <time>2012-01-26T14:54:53Z</time>
      </trkpt>
      <trkpt lat="47.26883" lon="-1.6101">
        <ele>43.2</ele>
        <time>2012-01-26T14:54:57Z</time>
      </trkpt>
      <trkpt lat="47.26883" lon="-1.61003">
        <ele>43.2</ele>
        <time>2012-01-26T14:55:03Z</time>
      </trkpt>
      <trkpt lat="47.26884" lon="-1.60997">
        <ele>43.2</ele>
        <time>2012-01-26T14:55:09Z</time>
      </trkpt>
      <trkpt lat="47.26884" lon="-1.60991">
        <ele>43.7</ele>
        <time>2012-01-26T14:55:15Z</time>
      </trkpt>
      <trkpt lat="47.26883" lon="-1.60985">
        <ele>43.2</ele>
        <time>2012-01-26T14:55:21Z</time>
      </trkpt>
      <trkpt lat="47.26882" lon="-1.60978">
        <ele>43</ele>
        <time>2012-01-26T14:55:27Z</time>
      </trkpt>
      <trkpt lat="47.26881" lon="-1.60972">
        <ele>42.5</ele>
        <time>2012-01-26T14:55:35Z</time>
      </trkpt>
      <trkpt lat="47.2688" lon="-1.60967">
        <ele>42.5</ele>
        <time>2012-01-26T14:55:40Z</time>
      </trkpt>
      <trkpt lat="47.26879" lon="-1.60962">
        <ele>42.5</ele>
        <time>2012-01-26T14:55:44Z</time>
      </trkpt>
      <trkpt lat="47.26879" lon="-1.6096">
        <ele>42.4</ele>
        <time>2012-01-26T14:55:45Z</time>
      </trkpt>
      <trkpt lat="47.26877" lon="-1.60951">
        <ele>42</ele>
        <time>2012-01-26T14:55:53Z</time>
      </trkpt>
      <trkpt lat="47.26876" lon="-1.60946">
        <ele>42.2</ele>
        <time>2012-01-26T14:55:57Z</time>
      </trkpt>
      <trkpt lat="47.26876" lon="-1.6094">
        <ele>41.7</ele>
        <time>2012-01-26T14:56:02Z</time>
      </trkpt>
      <trkpt lat="47.26875" lon="-1.60934">
        <ele>41.4</ele>
        <time>2012-01-26T14:56:07Z</time>
      </trkpt>
      <trkpt lat="47.26874" lon="-1.60929">
        <ele>41</ele>
        <time>2012-01-26T14:56:11Z</time>
      </trkpt>
      <trkpt lat="47.26873" lon="-1.60923">
        <ele>40.7</ele>
        <time>2012-01-26T14:56:16Z</time>
      </trkpt>
      <trkpt lat="47.26872" lon="-1.60918">
        <ele>41</ele>
        <time>2012-01-26T14:56:20Z</time>
      </trkpt>
      <trkpt lat="47.26871" lon="-1.60912">
        <ele>41.4</ele>
        <time>2012-01-26T14:56:24Z</time>
      </trkpt>
      <trkpt lat="47.2687" lon="-1.60906">
        <ele>41.2</ele>
        <time>2012-01-26T14:56:28Z</time>
      </trkpt>
      <trkpt lat="47.2687" lon="-1.609">
        <ele>41.2</ele>
        <time>2012-01-26T14:56:32Z</time>
      </trkpt>
      <trkpt lat="47.26869" lon="-1.60894">
        <ele>42</ele>
        <time>2012-01-26T14:56:36Z</time>
      </trkpt>
      <trkpt lat="47.26869" lon="-1.60887">
        <ele>41.7</ele>
        <time>2012-01-26T14:56:41Z</time>
      </trkpt>
      <trkpt lat="47.26868" lon="-1.60882">
        <ele>41.4</ele>
        <time>2012-01-26T14:56:45Z</time>
      </trkpt>
      <trkpt lat="47.26868" lon="-1.60881">
        <ele>41.4</ele>
        <time>2012-01-26T14:56:46Z</time>
      </trkpt>
      <trkpt lat="47.26866" lon="-1.6087">
        <ele>41</ele>
        <time>2012-01-26T14:56:54Z</time>
      </trkpt>
      <trkpt lat="47.26866" lon="-1.60865">
        <ele>40.7</ele>
        <time>2012-01-26T14:56:58Z</time>
      </trkpt>
      <trkpt lat="47.26865" lon="-1.60858">
        <ele>40.9</ele>
        <time>2012-01-26T14:57:02Z</time>
      </trkpt>
      <trkpt lat="47.26864" lon="-1.60853">
        <ele>40.9</ele>
        <time>2012-01-26T14:57:06Z</time>
      </trkpt>
      <trkpt lat="47.26863" lon="-1.60847">
        <ele>41</ele>
        <time>2012-01-26T14:57:10Z</time>
      </trkpt>
      <trkpt lat="47.26862" lon="-1.60841">
        <ele>40.5</ele>
        <time>2012-01-26T14:57:14Z</time>
      </trkpt>
      <trkpt lat="47.26861" lon="-1.60835">
        <ele>40.5</ele>
        <time>2012-01-26T14:57:18Z</time>
      </trkpt>
      <trkpt lat="47.2686" lon="-1.6083">
        <ele>41.2</ele>
        <time>2012-01-26T14:57:22Z</time>
      </trkpt>
      <trkpt lat="47.26859" lon="-1.60824">
        <ele>41</ele>
        <time>2012-01-26T14:57:26Z</time>
      </trkpt>
      <trkpt lat="47.26859" lon="-1.60818">
        <ele>40.7</ele>
        <time>2012-01-26T14:57:31Z</time>
      </trkpt>
      <trkpt lat="47.26858" lon="-1.60811">
        <ele>40.7</ele>
        <time>2012-01-26T14:57:36Z</time>
      </trkpt>
      <trkpt lat="47.26857" lon="-1.60805">
        <ele>40.2</ele>
        <time>2012-01-26T14:57:40Z</time>
      </trkpt>
      <trkpt lat="47.26856" lon="-1.608">
        <ele>40.5</ele>
        <time>2012-01-26T14:57:45Z</time>
      </trkpt>
      <trkpt lat="47.26855" lon="-1.60794">
        <ele>40.2</ele>
        <time>2012-01-26T14:57:49Z</time>
      </trkpt>
      <trkpt lat="47.26855" lon="-1.60792">
        <ele>40.4</ele>
        <time>2012-01-26T14:57:50Z</time>
      </trkpt>
      <trkpt lat="47.26854" lon="-1.60782">
        <ele>40.2</ele>
        <time>2012-01-26T14:57:57Z</time>
      </trkpt>
      <trkpt lat="47.26853" lon="-1.60776">
        <ele>40.9</ele>
        <time>2012-01-26T14:58:01Z</time>
      </trkpt>
      <trkpt lat="47.26852" lon="-1.6077">
        <ele>40.4</ele>
        <time>2012-01-26T14:58:05Z</time>
      </trkpt>
      <trkpt lat="47.26851" lon="-1.60764">
        <ele>40.2</ele>
        <time>2012-01-26T14:58:09Z</time>
      </trkpt>
      <trkpt lat="47.26851" lon="-1.60757">
        <ele>39.9</ele>
        <time>2012-01-26T14:58:13Z</time>
      </trkpt>
      <trkpt lat="47.2685" lon="-1.60752">
        <ele>39.7</ele>
        <time>2012-01-26T14:58:17Z</time>
      </trkpt>
      <trkpt lat="47.26849" lon="-1.60746">
        <ele>39.7</ele>
        <time>2012-01-26T14:58:21Z</time>
      </trkpt>
      <trkpt lat="47.26847" lon="-1.6074">
        <ele>39.4</ele>
        <time>2012-01-26T14:58:25Z</time>
      </trkpt>
      <trkpt lat="47.26846" lon="-1.60734">
        <ele>40</ele>
        <time>2012-01-26T14:58:29Z</time>
      </trkpt>
      <trkpt lat="47.26846" lon="-1.60728">
        <ele>39.2</ele>
        <time>2012-01-26T14:58:33Z</time>
      </trkpt>
      <trkpt lat="47.26845" lon="-1.60722">
        <ele>39.5</ele>
        <time>2012-01-26T14:58:37Z</time>
      </trkpt>
      <trkpt lat="47.26844" lon="-1.60716">
        <ele>39.5</ele>
        <time>2012-01-26T14:58:41Z</time>
      </trkpt>
      <trkpt lat="47.26843" lon="-1.6071">
        <ele>39.2</ele>
        <time>2012-01-26T14:58:45Z</time>
      </trkpt>
      <trkpt lat="47.26843" lon="-1.60704">
        <ele>39</ele>
        <time>2012-01-26T14:58:49Z</time>
      </trkpt>
      <trkpt lat="47.26842" lon="-1.60698">
        <ele>38.5</ele>
        <time>2012-01-26T14:58:53Z</time>
      </trkpt>
      <trkpt lat="47.26842" lon="-1.60696">
        <ele>38.4</ele>
        <time>2012-01-26T14:58:54Z</time>
      </trkpt>
      <trkpt lat="47.26841" lon="-1.60686">
        <ele>38.7</ele>
        <time>2012-01-26T14:59:00Z</time>
      </trkpt>
      <trkpt lat="47.26841" lon="-1.6068">
        <ele>37.4</ele>
        <time>2012-01-26T14:59:05Z</time>
      </trkpt>
      <trkpt lat="47.2684" lon="-1.60674">
        <ele>37.7</ele>
        <time>2012-01-26T14:59:10Z</time>
      </trkpt>
      <trkpt lat="47.26839" lon="-1.60668">
        <ele>37.7</ele>
        <time>2012-01-26T14:59:15Z</time>
      </trkpt>
      <trkpt lat="47.26839" lon="-1.60662">
        <ele>37.4</ele>
        <time>2012-01-26T14:59:19Z</time>
      </trkpt>
      <trkpt lat="47.26838" lon="-1.60658">
        <ele>37.9</ele>
        <time>2012-01-26T14:59:22Z</time>
      </trkpt>
      <trkpt lat="47.26836" lon="-1.60653">
        <ele>37.4</ele>
        <time>2012-01-26T14:59:25Z</time>
      </trkpt>
      <trkpt lat="47.26835" lon="-1.60647">
        <ele>37.2</ele>
        <time>2012-01-26T14:59:29Z</time>
      </trkpt>
      <trkpt lat="47.26835" lon="-1.60642">
        <ele>38</ele>
        <time>2012-01-26T14:59:33Z</time>
      </trkpt>
      <trkpt lat="47.26834" lon="-1.60637">
        <ele>37.9</ele>
        <time>2012-01-26T14:59:36Z</time>
      </trkpt>
      <trkpt lat="47.26833" lon="-1.60632">
        <ele>37.7</ele>
        <time>2012-01-26T14:59:39Z</time>
      </trkpt>
      <trkpt lat="47.26832" lon="-1.60626">
        <ele>37.2</ele>
        <time>2012-01-26T14:59:42Z</time>
      </trkpt>
      <trkpt lat="47.26831" lon="-1.6062">
        <ele>37.4</ele>
        <time>2012-01-26T14:59:46Z</time>
      </trkpt>
      <trkpt lat="47.2683" lon="-1.60614">
        <ele>37.2</ele>
        <time>2012-01-26T14:59:50Z</time>
      </trkpt>
      <trkpt lat="47.2683" lon="-1.60608">
        <ele>37.5</ele>
        <time>2012-01-26T14:59:54Z</time>
      </trkpt>
      <trkpt lat="47.2683" lon="-1.60607">
        <ele>37.7</ele>
        <time>2012-01-26T14:59:55Z</time>
      </trkpt>
      <trkpt lat="47.26828" lon="-1.60596">
        <ele>37.5</ele>
        <time>2012-01-26T15:00:03Z</time>
      </trkpt>
      <trkpt lat="47.26828" lon="-1.6059">
        <ele>37.5</ele>
        <time>2012-01-26T15:00:07Z</time>
      </trkpt>
      <trkpt lat="47.26826" lon="-1.60584">
        <ele>37.5</ele>
        <time>2012-01-26T15:00:11Z</time>
      </trkpt>
      <trkpt lat="47.26825" lon="-1.60579">
        <ele>37.5</ele>
        <time>2012-01-26T15:00:15Z</time>
      </trkpt>
      <trkpt lat="47.26825" lon="-1.60574">
        <ele>37.7</ele>
        <time>2012-01-26T15:00:19Z</time>
      </trkpt>
      <trkpt lat="47.26823" lon="-1.60568">
        <ele>37.7</ele>
        <time>2012-01-26T15:00:23Z</time>
      </trkpt>
      <trkpt lat="47.26822" lon="-1.60563">
        <ele>37.9</ele>
        <time>2012-01-26T15:00:27Z</time>
      </trkpt>
      <trkpt lat="47.26821" lon="-1.60557">
        <ele>38.2</ele>
        <time>2012-01-26T15:00:31Z</time>
      </trkpt>
      <trkpt lat="47.2682" lon="-1.60552">
        <ele>38</ele>
        <time>2012-01-26T15:00:35Z</time>
      </trkpt>
      <trkpt lat="47.26819" lon="-1.60546">
        <ele>37.4</ele>
        <time>2012-01-26T15:00:39Z</time>
      </trkpt>
      <trkpt lat="47.26818" lon="-1.6054">
        <ele>37</ele>
        <time>2012-01-26T15:00:43Z</time>
      </trkpt>
      <trkpt lat="47.26817" lon="-1.60535">
        <ele>37</ele>
        <time>2012-01-26T15:00:47Z</time>
      </trkpt>
      <trkpt lat="47.26817" lon="-1.60529">
        <ele>37.5</ele>
        <time>2012-01-26T15:00:51Z</time>
      </trkpt>
      <trkpt lat="47.26816" lon="-1.60524">
        <ele>37.7</ele>
        <time>2012-01-26T15:00:54Z</time>
      </trkpt>
      <trkpt lat="47.26815" lon="-1.60518">
        <ele>37.2</ele>
        <time>2012-01-26T15:00:58Z</time>
      </trkpt>
      <trkpt lat="47.26815" lon="-1.60516">
        <ele>36.9</ele>
        <time>2012-01-26T15:00:59Z</time>
      </trkpt>
      <trkpt lat="47.26813" lon="-1.60508">
        <ele>36.7</ele>
        <time>2012-01-26T15:01:04Z</time>
      </trkpt>
      <trkpt lat="47.26812" lon="-1.60502">
        <ele>36.7</ele>
        <time>2012-01-26T15:01:08Z</time>
      </trkpt>
      <trkpt lat="47.26811" lon="-1.60496">
        <ele>37</ele>
        <time>2012-01-26T15:01:12Z</time>
      </trkpt>
      <trkpt lat="47.2681" lon="-1.60491">
        <ele>37</ele>
        <time>2012-01-26T15:01:15Z</time>
      </trkpt>
      <trkpt lat="47.26809" lon="-1.60485">
        <ele>37.2</ele>
        <time>2012-01-26T15:01:19Z</time>
      </trkpt>
      <trkpt lat="47.26808" lon="-1.60479">
        <ele>37</ele>
        <time>2012-01-26T15:01:23Z</time>
      </trkpt>
      <trkpt lat="47.26807" lon="-1.60473">
        <ele>37.2</ele>
        <time>2012-01-26T15:01:27Z</time>
      </trkpt>
      <trkpt lat="47.26806" lon="-1.60468">
        <ele>37</ele>
        <time>2012-01-26T15:01:31Z</time>
      </trkpt>
      <trkpt lat="47.26804" lon="-1.60463">
        <ele>36.7</ele>
        <time>2012-01-26T15:01:35Z</time>
      </trkpt>
      <trkpt lat="47.26803" lon="-1.60457">
        <ele>36.7</ele>
        <time>2012-01-26T15:01:39Z</time>
      </trkpt>
      <trkpt lat="47.26802" lon="-1.60451">
        <ele>37.2</ele>
        <time>2012-01-26T15:01:43Z</time>
      </trkpt>
      <trkpt lat="47.26801" lon="-1.60445">
        <ele>36.7</ele>
        <time>2012-01-26T15:01:47Z</time>
      </trkpt>
      <trkpt lat="47.268" lon="-1.6044">
        <ele>36.2</ele>
        <time>2012-01-26T15:01:51Z</time>
      </trkpt>
      <trkpt lat="47.26799" lon="-1.60435">
        <ele>36.2</ele>
        <time>2012-01-26T15:01:55Z</time>
      </trkpt>
      <trkpt lat="47.26797" lon="-1.60429">
        <ele>36.2</ele>
        <time>2012-01-26T15:01:59Z</time>
      </trkpt>
      <trkpt lat="47.26797" lon="-1.60428">
        <ele>36.2</ele>
        <time>2012-01-26T15:02:00Z</time>
      </trkpt>
      <trkpt lat="47.26795" lon="-1.60417">
        <ele>35.7</ele>
        <time>2012-01-26T15:02:07Z</time>
      </trkpt>
      <trkpt lat="47.26793" lon="-1.60412">
        <ele>36</ele>
        <time>2012-01-26T15:02:11Z</time>
      </trkpt>
      <trkpt lat="47.26792" lon="-1.60407">
        <ele>35.7</ele>
        <time>2012-01-26T15:02:14Z</time>
      </trkpt>
      <trkpt lat="47.26791" lon="-1.60401">
        <ele>36</ele>
        <time>2012-01-26T15:02:18Z</time>
      </trkpt>
      <trkpt lat="47.2679" lon="-1.60395">
        <ele>35.7</ele>
        <time>2012-01-26T15:02:23Z</time>
      </trkpt>
      <trkpt lat="47.26789" lon="-1.60389">
        <ele>36</ele>
        <time>2012-01-26T15:02:28Z</time>
      </trkpt>
      <trkpt lat="47.26788" lon="-1.60383">
        <ele>36</ele>
        <time>2012-01-26T15:02:32Z</time>
      </trkpt>
      <trkpt lat="47.26788" lon="-1.60378">
        <ele>35</ele>
        <time>2012-01-26T15:02:36Z</time>
      </trkpt>
      <trkpt lat="47.26786" lon="-1.60373">
        <ele>35.4</ele>
        <time>2012-01-26T15:02:40Z</time>
      </trkpt>
      <trkpt lat="47.26785" lon="-1.60367">
        <ele>35.9</ele>
        <time>2012-01-26T15:02:44Z</time>
      </trkpt>
      <trkpt lat="47.26784" lon="-1.60361">
        <ele>35.9</ele>
        <time>2012-01-26T15:02:48Z</time>
      </trkpt>
      <trkpt lat="47.26783" lon="-1.60356">
        <ele>36</ele>
        <time>2012-01-26T15:02:52Z</time>
      </trkpt>
      <trkpt lat="47.26783" lon="-1.60351">
        <ele>35.9</ele>
        <time>2012-01-26T15:02:55Z</time>
      </trkpt>
      <trkpt lat="47.26782" lon="-1.60345">
        <ele>35.5</ele>
        <time>2012-01-26T15:02:59Z</time>
      </trkpt>
      <trkpt lat="47.26781" lon="-1.60339">
        <ele>35.7</ele>
        <time>2012-01-26T15:03:03Z</time>
      </trkpt>
      <trkpt lat="47.2678" lon="-1.60338">
        <ele>35.5</ele>
        <time>2012-01-26T15:03:04Z</time>
      </trkpt>
      <trkpt lat="47.26778" lon="-1.60327">
        <ele>34.9</ele>
        <time>2012-01-26T15:03:11Z</time>
      </trkpt>
      <trkpt lat="47.26777" lon="-1.60322">
        <ele>35</ele>
        <time>2012-01-26T15:03:15Z</time>
      </trkpt>
      <trkpt lat="47.26775" lon="-1.60316">
        <ele>35.5</ele>
        <time>2012-01-26T15:03:19Z</time>
      </trkpt>
      <trkpt lat="47.26773" lon="-1.60311">
        <ele>35.2</ele>
        <time>2012-01-26T15:03:23Z</time>
      </trkpt>
      <trkpt lat="47.26772" lon="-1.60306">
        <ele>35</ele>
        <time>2012-01-26T15:03:27Z</time>
      </trkpt>
      <trkpt lat="47.26771" lon="-1.60299">
        <ele>34.7</ele>
        <time>2012-01-26T15:03:31Z</time>
      </trkpt>
      <trkpt lat="47.26769" lon="-1.60294">
        <ele>35</ele>
        <time>2012-01-26T15:03:36Z</time>
      </trkpt>
      <trkpt lat="47.26767" lon="-1.60289">
        <ele>34.7</ele>
        <time>2012-01-26T15:03:40Z</time>
      </trkpt>
      <trkpt lat="47.26765" lon="-1.60283">
        <ele>34.7</ele>
        <time>2012-01-26T15:03:44Z</time>
      </trkpt>
      <trkpt lat="47.26764" lon="-1.60277">
        <ele>34.4</ele>
        <time>2012-01-26T15:03:48Z</time>
      </trkpt>
      <trkpt lat="47.26762" lon="-1.60271">
        <ele>33.2</ele>
        <time>2012-01-26T15:03:52Z</time>
      </trkpt>
      <trkpt lat="47.26761" lon="-1.60265">
        <ele>33.7</ele>
        <time>2012-01-26T15:03:56Z</time>
      </trkpt>
      <trkpt lat="47.2676" lon="-1.6026">
        <ele>34</ele>
        <time>2012-01-26T15:03:59Z</time>
      </trkpt>
      <trkpt lat="47.26759" lon="-1.60255">
        <ele>33.9</ele>
        <time>2012-01-26T15:04:02Z</time>
      </trkpt>
      <trkpt lat="47.26758" lon="-1.60249">
        <ele>33.7</ele>
        <time>2012-01-26T15:04:06Z</time>
      </trkpt>
      <trkpt lat="47.26757" lon="-1.60248">
        <ele>33.7</ele>
        <time>2012-01-26T15:04:07Z</time>
      </trkpt>
      <trkpt lat="47.26756" lon="-1.60238">
        <ele>33.9</ele>
        <time>2012-01-26T15:04:13Z</time>
      </trkpt>
      <trkpt lat="47.26754" lon="-1.60233">
        <ele>34.2</ele>
        <time>2012-01-26T15:04:16Z</time>
      </trkpt>
      <trkpt lat="47.26753" lon="-1.60228">
        <ele>33.7</ele>
        <time>2012-01-26T15:04:19Z</time>
      </trkpt>
      <trkpt lat="47.26752" lon="-1.60224">
        <ele>33.7</ele>
        <time>2012-01-26T15:04:22Z</time>
      </trkpt>
      <trkpt lat="47.26751" lon="-1.60218">
        <ele>33.9</ele>
        <time>2012-01-26T15:04:25Z</time>
      </trkpt>
      <trkpt lat="47.2675" lon="-1.60213">
        <ele>34</ele>
        <time>2012-01-26T15:04:28Z</time>
      </trkpt>
      <trkpt lat="47.26749" lon="-1.60208">
        <ele>34.9</ele>
        <time>2012-01-26T15:04:31Z</time>
      </trkpt>
      <trkpt lat="47.26748" lon="-1.60204">
        <ele>33.9</ele>
        <time>2012-01-26T15:04:34Z</time>
      </trkpt>
      <trkpt lat="47.26747" lon="-1.60197">
        <ele>33.9</ele>
        <time>2012-01-26T15:04:38Z</time>
      </trkpt>
      <trkpt lat="47.26746" lon="-1.60192">
        <ele>34</ele>
        <time>2012-01-26T15:04:42Z</time>
      </trkpt>
      <trkpt lat="47.26745" lon="-1.60186">
        <ele>34.2</ele>
        <time>2012-01-26T15:04:46Z</time>
      </trkpt>
      <trkpt lat="47.26744" lon="-1.6018">
        <ele>34.4</ele>
        <time>2012-01-26T15:04:50Z</time>
      </trkpt>
      <trkpt lat="47.26742" lon="-1.60174">
        <ele>34.4</ele>
        <time>2012-01-26T15:04:54Z</time>
      </trkpt>
      <trkpt lat="47.2674" lon="-1.60169">
        <ele>34.2</ele>
        <time>2012-01-26T15:04:58Z</time>
      </trkpt>
      <trkpt lat="47.26738" lon="-1.60164">
        <ele>34.5</ele>
        <time>2012-01-26T15:05:02Z</time>
      </trkpt>
      <trkpt lat="47.26735" lon="-1.60159">
        <ele>33.4</ele>
        <time>2012-01-26T15:05:06Z</time>
      </trkpt>
      <trkpt lat="47.26733" lon="-1.60155">
        <ele>33.5</ele>
        <time>2012-01-26T15:05:09Z</time>
      </trkpt>
      <trkpt lat="47.26732" lon="-1.60154">
        <ele>33.5</ele>
        <time>2012-01-26T15:05:10Z</time>
      </trkpt>
      <trkpt lat="47.26727" lon="-1.60147">
        <ele>33.4</ele>
        <time>2012-01-26T15:05:16Z</time>
      </trkpt>
      <trkpt lat="47.26724" lon="-1.60143">
        <ele>33.4</ele>
        <time>2012-01-26T15:05:20Z</time>
      </trkpt>
      <trkpt lat="47.26721" lon="-1.60139">
        <ele>33</ele>
        <time>2012-01-26T15:05:24Z</time>
      </trkpt>
      <trkpt lat="47.26717" lon="-1.60136">
        <ele>33</ele>
        <time>2012-01-26T15:05:28Z</time>
      </trkpt>
      <trkpt lat="47.26713" lon="-1.60135">
        <ele>32.9</ele>
        <time>2012-01-26T15:05:32Z</time>
      </trkpt>
      <trkpt lat="47.26709" lon="-1.60132">
        <ele>33.5</ele>
        <time>2012-01-26T15:05:36Z</time>
      </trkpt>
      <trkpt lat="47.26705" lon="-1.6013">
        <ele>33.2</ele>
        <time>2012-01-26T15:05:40Z</time>
      </trkpt>
      <trkpt lat="47.26702" lon="-1.60129">
        <ele>33.5</ele>
        <time>2012-01-26T15:05:44Z</time>
      </trkpt>
      <trkpt lat="47.26698" lon="-1.60127">
        <ele>34</ele>
        <time>2012-01-26T15:05:48Z</time>
      </trkpt>
      <trkpt lat="47.26695" lon="-1.60125">
        <ele>33</ele>
        <time>2012-01-26T15:05:52Z</time>
      </trkpt>
      <trkpt lat="47.26691" lon="-1.60122">
        <ele>32.4</ele>
        <time>2012-01-26T15:05:56Z</time>
      </trkpt>
      <trkpt lat="47.26687" lon="-1.6012">
        <ele>32.4</ele>
        <time>2012-01-26T15:06:01Z</time>
      </trkpt>
      <trkpt lat="47.26686" lon="-1.60114">
        <ele>32.7</ele>
        <time>2012-01-26T15:06:05Z</time>
      </trkpt>
      <trkpt lat="47.26684" lon="-1.60109">
        <ele>33</ele>
        <time>2012-01-26T15:06:09Z</time>
      </trkpt>
      <trkpt lat="47.26685" lon="-1.60103">
        <ele>32.9</ele>
        <time>2012-01-26T15:06:15Z</time>
      </trkpt>
      <trkpt lat="47.26685" lon="-1.60102">
        <ele>33</ele>
        <time>2012-01-26T15:06:16Z</time>
      </trkpt>
      <trkpt lat="47.26686" lon="-1.60092">
        <ele>33.2</ele>
        <time>2012-01-26T15:06:25Z</time>
      </trkpt>
      <trkpt lat="47.26685" lon="-1.60086">
        <ele>33</ele>
        <time>2012-01-26T15:06:29Z</time>
      </trkpt>
      <trkpt lat="47.26683" lon="-1.60081">
        <ele>32.7</ele>
        <time>2012-01-26T15:06:33Z</time>
      </trkpt>
      <trkpt lat="47.26681" lon="-1.60076">
        <ele>32.4</ele>
        <time>2012-01-26T15:06:37Z</time>
      </trkpt>
      <trkpt lat="47.26678" lon="-1.60071">
        <ele>32.2</ele>
        <time>2012-01-26T15:06:42Z</time>
      </trkpt>
      <trkpt lat="47.26676" lon="-1.60067">
        <ele>32.2</ele>
        <time>2012-01-26T15:06:46Z</time>
      </trkpt>
      <trkpt lat="47.26674" lon="-1.60062">
        <ele>32</ele>
        <time>2012-01-26T15:06:50Z</time>
      </trkpt>
      <trkpt lat="47.26672" lon="-1.60057">
        <ele>32.2</ele>
        <time>2012-01-26T15:06:54Z</time>
      </trkpt>
      <trkpt lat="47.26669" lon="-1.60052">
        <ele>32.2</ele>
        <time>2012-01-26T15:07:00Z</time>
      </trkpt>
      <trkpt lat="47.26667" lon="-1.60047">
        <ele>31.7</ele>
        <time>2012-01-26T15:07:05Z</time>
      </trkpt>
      <trkpt lat="47.26665" lon="-1.60042">
        <ele>31.8</ele>
        <time>2012-01-26T15:07:10Z</time>
      </trkpt>
      <trkpt lat="47.26663" lon="-1.60037">
        <ele>31.3</ele>
        <time>2012-01-26T15:07:14Z</time>
      </trkpt>
      <trkpt lat="47.2666" lon="-1.60033">
        <ele>31.2</ele>
        <time>2012-01-26T15:07:19Z</time>
      </trkpt>
      <trkpt lat="47.26659" lon="-1.60032">
        <ele>31.3</ele>
        <time>2012-01-26T15:07:20Z</time>
      </trkpt>
      <trkpt lat="47.26656" lon="-1.60023">
        <ele>30.7</ele>
        <time>2012-01-26T15:07:29Z</time>
      </trkpt>
      <trkpt lat="47.26653" lon="-1.60019">
        <ele>30.3</ele>
        <time>2012-01-26T15:07:34Z</time>
      </trkpt>
      <trkpt lat="47.26651" lon="-1.60016">
        <ele>29.7</ele>
        <time>2012-01-26T15:07:37Z</time>
      </trkpt>
      <trkpt lat="47.26647" lon="-1.60011">
        <ele>29.7</ele>
        <time>2012-01-26T15:07:41Z</time>
      </trkpt>
      <trkpt lat="47.26645" lon="-1.60008">
        <ele>30</ele>
        <time>2012-01-26T15:07:44Z</time>
      </trkpt>
      <trkpt lat="47.26642" lon="-1.60004">
        <ele>29.6</ele>
        <time>2012-01-26T15:07:47Z</time>
      </trkpt>
      <trkpt lat="47.26639" lon="-1.6">
        <ele>29</ele>
        <time>2012-01-26T15:07:50Z</time>
      </trkpt>
      <trkpt lat="47.26636" lon="-1.59996">
        <ele>29</ele>
        <time>2012-01-26T15:07:54Z</time>
      </trkpt>
      <trkpt lat="47.26634" lon="-1.59993">
        <ele>29</ele>
        <time>2012-01-26T15:07:57Z</time>
      </trkpt>
      <trkpt lat="47.26631" lon="-1.5999">
        <ele>28.6</ele>
        <time>2012-01-26T15:08:00Z</time>
      </trkpt>
      <trkpt lat="47.26628" lon="-1.59985">
        <ele>28</ele>
        <time>2012-01-26T15:08:03Z</time>
      </trkpt>
      <trkpt lat="47.26625" lon="-1.59982">
        <ele>27.7</ele>
        <time>2012-01-26T15:08:06Z</time>
      </trkpt>
      <trkpt lat="47.26622" lon="-1.59978">
        <ele>27.7</ele>
        <time>2012-01-26T15:08:09Z</time>
      </trkpt>
      <trkpt lat="47.2662" lon="-1.59975">
        <ele>27.7</ele>
        <time>2012-01-26T15:08:12Z</time>
      </trkpt>
      <trkpt lat="47.26617" lon="-1.59972">
        <ele>27.6</ele>
        <time>2012-01-26T15:08:15Z</time>
      </trkpt>
      <trkpt lat="47.26614" lon="-1.59969">
        <ele>27.2</ele>
        <time>2012-01-26T15:08:18Z</time>
      </trkpt>
      <trkpt lat="47.26611" lon="-1.59965">
        <ele>26.7</ele>
        <time>2012-01-26T15:08:21Z</time>
      </trkpt>
      <trkpt lat="47.2661" lon="-1.59964">
        <ele>26.6</ele>
        <time>2012-01-26T15:08:22Z</time>
      </trkpt>
      <trkpt lat="47.26606" lon="-1.59959">
        <ele>26.3</ele>
        <time>2012-01-26T15:08:27Z</time>
      </trkpt>
      <trkpt lat="47.26603" lon="-1.59956">
        <ele>25.6</ele>
        <time>2012-01-26T15:08:30Z</time>
      </trkpt>
      <trkpt lat="47.26599" lon="-1.59952">
        <ele>26</ele>
        <time>2012-01-26T15:08:34Z</time>
      </trkpt>
      <trkpt lat="47.26596" lon="-1.59948">
        <ele>25.3</ele>
        <time>2012-01-26T15:08:37Z</time>
      </trkpt>
      <trkpt lat="47.26593" lon="-1.59944">
        <ele>24.7</ele>
        <time>2012-01-26T15:08:40Z</time>
      </trkpt>
      <trkpt lat="47.26591" lon="-1.59941">
        <ele>25</ele>
        <time>2012-01-26T15:08:43Z</time>
      </trkpt>
      <trkpt lat="47.26587" lon="-1.59937">
        <ele>24.7</ele>
        <time>2012-01-26T15:08:47Z</time>
      </trkpt>
      <trkpt lat="47.26583" lon="-1.59934">
        <ele>24.7</ele>
        <time>2012-01-26T15:08:51Z</time>
      </trkpt>
      <trkpt lat="47.26581" lon="-1.5993">
        <ele>24.3</ele>
        <time>2012-01-26T15:08:54Z</time>
      </trkpt>
      <trkpt lat="47.26577" lon="-1.59926">
        <ele>24.2</ele>
        <time>2012-01-26T15:08:58Z</time>
      </trkpt>
      <trkpt lat="47.26575" lon="-1.59922">
        <ele>23.8</ele>
        <time>2012-01-26T15:09:01Z</time>
      </trkpt>
      <trkpt lat="47.26571" lon="-1.59919">
        <ele>23.5</ele>
        <time>2012-01-26T15:09:05Z</time>
      </trkpt>
      <trkpt lat="47.26569" lon="-1.59916">
        <ele>23.5</ele>
        <time>2012-01-26T15:09:09Z</time>
      </trkpt>
      <trkpt lat="47.26566" lon="-1.59912">
        <ele>22.7</ele>
        <time>2012-01-26T15:09:13Z</time>
      </trkpt>
      <trkpt lat="47.26563" lon="-1.59909">
        <ele>22.6</ele>
        <time>2012-01-26T15:09:16Z</time>
      </trkpt>
      <trkpt lat="47.2656" lon="-1.59906">
        <ele>22.6</ele>
        <time>2012-01-26T15:09:19Z</time>
      </trkpt>
      <trkpt lat="47.26558" lon="-1.59902">
        <ele>22.6</ele>
        <time>2012-01-26T15:09:22Z</time>
      </trkpt>
      <trkpt lat="47.26557" lon="-1.59901">
        <ele>22.5</ele>
        <time>2012-01-26T15:09:23Z</time>
      </trkpt>
      <trkpt lat="47.26552" lon="-1.59895">
        <ele>22.7</ele>
        <time>2012-01-26T15:09:29Z</time>
      </trkpt>
      <trkpt lat="47.26549" lon="-1.59891">
        <ele>22.5</ele>
        <time>2012-01-26T15:09:32Z</time>
      </trkpt>
      <trkpt lat="47.26546" lon="-1.59888">
        <ele>21.7</ele>
        <time>2012-01-26T15:09:35Z</time>
      </trkpt>
      <trkpt lat="47.26544" lon="-1.59883">
        <ele>21.5</ele>
        <time>2012-01-26T15:09:38Z</time>
      </trkpt>
      <trkpt lat="47.26541" lon="-1.59879">
        <ele>21.2</ele>
        <time>2012-01-26T15:09:41Z</time>
      </trkpt>
      <trkpt lat="47.26538" lon="-1.59874">
        <ele>21.2</ele>
        <time>2012-01-26T15:09:45Z</time>
      </trkpt>
      <trkpt lat="47.26535" lon="-1.59871">
        <ele>20.7</ele>
        <time>2012-01-26T15:09:49Z</time>
      </trkpt>
      <trkpt lat="47.26531" lon="-1.59867">
        <ele>20.7</ele>
        <time>2012-01-26T15:09:53Z</time>
      </trkpt>
      <trkpt lat="47.26528" lon="-1.59863">
        <ele>21.3</ele>
        <time>2012-01-26T15:09:57Z</time>
      </trkpt>
      <trkpt lat="47.26525" lon="-1.59859">
        <ele>20.8</ele>
        <time>2012-01-26T15:10:01Z</time>
      </trkpt>
      <trkpt lat="47.26522" lon="-1.59855">
        <ele>20.1</ele>
        <time>2012-01-26T15:10:05Z</time>
      </trkpt>
      <trkpt lat="47.26519" lon="-1.59851">
        <ele>20</ele>
        <time>2012-01-26T15:10:09Z</time>
      </trkpt>
      <trkpt lat="47.26516" lon="-1.59848">
        <ele>20</ele>
        <time>2012-01-26T15:10:13Z</time>
      </trkpt>
      <trkpt lat="47.26513" lon="-1.59844">
        <ele>19.6</ele>
        <time>2012-01-26T15:10:17Z</time>
      </trkpt>
      <trkpt lat="47.2651" lon="-1.5984">
        <ele>19.2</ele>
        <time>2012-01-26T15:10:20Z</time>
      </trkpt>
      <trkpt lat="47.26507" lon="-1.59835">
        <ele>18.7</ele>
        <time>2012-01-26T15:10:25Z</time>
      </trkpt>
      <trkpt lat="47.26506" lon="-1.59834">
        <ele>18.7</ele>
        <time>2012-01-26T15:10:26Z</time>
      </trkpt>
      <trkpt lat="47.26501" lon="-1.59827">
        <ele>18.7</ele>
        <time>2012-01-26T15:10:35Z</time>
      </trkpt>
      <trkpt lat="47.26497" lon="-1.59823">
        <ele>18.1</ele>
        <time>2012-01-26T15:10:40Z</time>
      </trkpt>
      <trkpt lat="47.26495" lon="-1.59819">
        <ele>18.6</ele>
        <time>2012-01-26T15:10:44Z</time>
      </trkpt>
      <trkpt lat="47.26492" lon="-1.59815">
        <ele>18.2</ele>
        <time>2012-01-26T15:10:47Z</time>
      </trkpt>
      <trkpt lat="47.2649" lon="-1.59811">
        <ele>18</ele>
        <time>2012-01-26T15:10:50Z</time>
      </trkpt>
      <trkpt lat="47.26487" lon="-1.59807">
        <ele>18.2</ele>
        <time>2012-01-26T15:10:53Z</time>
      </trkpt>
      <trkpt lat="47.26485" lon="-1.59803">
        <ele>18.1</ele>
        <time>2012-01-26T15:10:56Z</time>
      </trkpt>
      <trkpt lat="47.26482" lon="-1.59798">
        <ele>17.5</ele>
        <time>2012-01-26T15:11:00Z</time>
      </trkpt>
      <trkpt lat="47.26479" lon="-1.59794">
        <ele>16.8</ele>
        <time>2012-01-26T15:11:04Z</time>
      </trkpt>
      <trkpt lat="47.26476" lon="-1.5979">
        <ele>16.7</ele>
        <time>2012-01-26T15:11:08Z</time>
      </trkpt>
      <trkpt lat="47.26473" lon="-1.59786">
        <ele>16.6</ele>
        <time>2012-01-26T15:11:12Z</time>
      </trkpt>
      <trkpt lat="47.26471" lon="-1.59782">
        <ele>15.8</ele>
        <time>2012-01-26T15:11:17Z</time>
      </trkpt>
      <trkpt lat="47.26468" lon="-1.59778">
        <ele>16.6</ele>
        <time>2012-01-26T15:11:23Z</time>
      </trkpt>
      <trkpt lat="47.26465" lon="-1.59773">
        <ele>15.8</ele>
        <time>2012-01-26T15:11:27Z</time>
      </trkpt>
      <trkpt lat="47.26464" lon="-1.59773">
        <ele>15.8</ele>
        <time>2012-01-26T15:11:28Z</time>
      </trkpt>
      <trkpt lat="47.2646" lon="-1.59766">
        <ele>15.5</ele>
        <time>2012-01-26T15:11:35Z</time>
      </trkpt>
      <trkpt lat="47.26457" lon="-1.59761">
        <ele>14.8</ele>
        <time>2012-01-26T15:11:40Z</time>
      </trkpt>
      <trkpt lat="47.26454" lon="-1.59756">
        <ele>14.8</ele>
        <time>2012-01-26T15:11:46Z</time>
      </trkpt>
      <trkpt lat="47.26453" lon="-1.5975">
        <ele>14.1</ele>
        <time>2012-01-26T15:11:53Z</time>
      </trkpt>
      <trkpt lat="47.26456" lon="-1.59745">
        <ele>14.6</ele>
        <time>2012-01-26T15:12:06Z</time>
      </trkpt>
      <trkpt lat="47.26455" lon="-1.59739">
        <ele>14.3</ele>
        <time>2012-01-26T15:12:17Z</time>
      </trkpt>
      <trkpt lat="47.26452" lon="-1.59734">
        <ele>14</ele>
        <time>2012-01-26T15:12:21Z</time>
      </trkpt>
      <trkpt lat="47.2645" lon="-1.5973">
        <ele>14</ele>
        <time>2012-01-26T15:12:24Z</time>
      </trkpt>
      <trkpt lat="47.26448" lon="-1.59725">
        <ele>13.8</ele>
        <time>2012-01-26T15:12:27Z</time>
      </trkpt>
      <trkpt lat="47.26445" lon="-1.59722">
        <ele>13.6</ele>
        <time>2012-01-26T15:12:30Z</time>
      </trkpt>
      <trkpt lat="47.26444" lon="-1.5972">
        <ele>13.5</ele>
        <time>2012-01-26T15:12:31Z</time>
      </trkpt>
      <trkpt lat="47.26441" lon="-1.59713">
        <ele>13.1</ele>
        <time>2012-01-26T15:12:34Z</time>
      </trkpt>
      <trkpt lat="47.26438" lon="-1.5971">
        <ele>13.1</ele>
        <time>2012-01-26T15:12:36Z</time>
      </trkpt>
      <trkpt lat="47.26436" lon="-1.59706">
        <ele>13.1</ele>
        <time>2012-01-26T15:12:38Z</time>
      </trkpt>
      <trkpt lat="47.26432" lon="-1.59702">
        <ele>13.1</ele>
        <time>2012-01-26T15:12:41Z</time>
      </trkpt>
      <trkpt lat="47.26429" lon="-1.59699">
        <ele>12.8</ele>
        <time>2012-01-26T15:12:44Z</time>
      </trkpt>
      <trkpt lat="47.26426" lon="-1.59695">
        <ele>13.1</ele>
        <time>2012-01-26T15:12:47Z</time>
      </trkpt>
      <trkpt lat="47.26424" lon="-1.59692">
        <ele>13.1</ele>
        <time>2012-01-26T15:12:49Z</time>
      </trkpt>
      <trkpt lat="47.26421" lon="-1.59688">
        <ele>12.8</ele>
        <time>2012-01-26T15:12:51Z</time>
      </trkpt>
      <trkpt lat="47.26419" lon="-1.59685">
        <ele>13.1</ele>
        <time>2012-01-26T15:12:53Z</time>
      </trkpt>
      <trkpt lat="47.26416" lon="-1.59682">
        <ele>13.3</ele>
        <time>2012-01-26T15:12:56Z</time>
      </trkpt>
      <trkpt lat="47.26413" lon="-1.59679">
        <ele>13.3</ele>
        <time>2012-01-26T15:12:59Z</time>
      </trkpt>
      <trkpt lat="47.2641" lon="-1.59676">
        <ele>13.1</ele>
        <time>2012-01-26T15:13:02Z</time>
      </trkpt>
      <trkpt lat="47.26407" lon="-1.59673">
        <ele>12.5</ele>
        <time>2012-01-26T15:13:05Z</time>
      </trkpt>
      <trkpt lat="47.26403" lon="-1.5967">
        <ele>11.6</ele>
        <time>2012-01-26T15:13:08Z</time>
      </trkpt>
      <trkpt lat="47.264" lon="-1.5967">
        <ele>11.8</ele>
        <time>2012-01-26T15:13:12Z</time>
      </trkpt>
      <trkpt lat="47.26396" lon="-1.59668">
        <ele>12</ele>
        <time>2012-01-26T15:13:16Z</time>
      </trkpt>
      <trkpt lat="47.26392" lon="-1.59666">
        <ele>12</ele>
        <time>2012-01-26T15:13:19Z</time>
      </trkpt>
      <trkpt lat="47.26389" lon="-1.59662">
        <ele>11.6</ele>
        <time>2012-01-26T15:13:23Z</time>
      </trkpt>
      <trkpt lat="47.26387" lon="-1.59657">
        <ele>11.6</ele>
        <time>2012-01-26T15:13:26Z</time>
      </trkpt>
      <trkpt lat="47.26385" lon="-1.59651">
        <ele>12</ele>
        <time>2012-01-26T15:13:31Z</time>
      </trkpt>
      <trkpt lat="47.26386" lon="-1.5965">
        <ele>12</ele>
        <time>2012-01-26T15:13:32Z</time>
      </trkpt>
      <trkpt lat="47.26386" lon="-1.5964">
        <ele>12.3</ele>
        <time>2012-01-26T15:13:39Z</time>
      </trkpt>
      <trkpt lat="47.26385" lon="-1.59636">
        <ele>12.3</ele>
        <time>2012-01-26T15:13:44Z</time>
      </trkpt>
      <trkpt lat="47.26382" lon="-1.59631">
        <ele>11.6</ele>
        <time>2012-01-26T15:13:48Z</time>
      </trkpt>
      <trkpt lat="47.2638" lon="-1.59627">
        <ele>12.1</ele>
        <time>2012-01-26T15:13:53Z</time>
      </trkpt>
      <trkpt lat="47.26377" lon="-1.59622">
        <ele>12.3</ele>
        <time>2012-01-26T15:13:57Z</time>
      </trkpt>
      <trkpt lat="47.26375" lon="-1.59618">
        <ele>12.1</ele>
        <time>2012-01-26T15:14:01Z</time>
      </trkpt>
      <trkpt lat="47.26372" lon="-1.59615">
        <ele>11.8</ele>
        <time>2012-01-26T15:14:06Z</time>
      </trkpt>
      <trkpt lat="47.26369" lon="-1.5961">
        <ele>11.8</ele>
        <time>2012-01-26T15:14:11Z</time>
      </trkpt>
      <trkpt lat="47.26367" lon="-1.59606">
        <ele>12.1</ele>
        <time>2012-01-26T15:14:15Z</time>
      </trkpt>
      <trkpt lat="47.26364" lon="-1.59602">
        <ele>12.3</ele>
        <time>2012-01-26T15:14:20Z</time>
      </trkpt>
      <trkpt lat="47.26361" lon="-1.59597">
        <ele>12.6</ele>
        <time>2012-01-26T15:14:26Z</time>
      </trkpt>
      <trkpt lat="47.26358" lon="-1.59592">
        <ele>12.6</ele>
        <time>2012-01-26T15:14:31Z</time>
      </trkpt>
      <trkpt lat="47.26356" lon="-1.59586">
        <ele>13.3</ele>
        <time>2012-01-26T15:14:36Z</time>
      </trkpt>
      <trkpt lat="47.26355" lon="-1.59585">
        <ele>13.3</ele>
        <time>2012-01-26T15:14:37Z</time>
      </trkpt>
      <trkpt lat="47.2635" lon="-1.59578">
        <ele>13.3</ele>
        <time>2012-01-26T15:14:46Z</time>
      </trkpt>
      <trkpt lat="47.26347" lon="-1.59573">
        <ele>13.8</ele>
        <time>2012-01-26T15:14:51Z</time>
      </trkpt>
      <trkpt lat="47.26344" lon="-1.59568">
        <ele>13</ele>
        <time>2012-01-26T15:14:56Z</time>
      </trkpt>
      <trkpt lat="47.26342" lon="-1.59564">
        <ele>13.6</ele>
        <time>2012-01-26T15:15:00Z</time>
      </trkpt>
      <trkpt lat="47.26339" lon="-1.59559">
        <ele>14.1</ele>
        <time>2012-01-26T15:15:05Z</time>
      </trkpt>
      <trkpt lat="47.26337" lon="-1.59555">
        <ele>14.3</ele>
        <time>2012-01-26T15:15:09Z</time>
      </trkpt>
      <trkpt lat="47.26335" lon="-1.5955">
        <ele>13.6</ele>
        <time>2012-01-26T15:15:13Z</time>
      </trkpt>
      <trkpt lat="47.26332" lon="-1.59547">
        <ele>13.8</ele>
        <time>2012-01-26T15:15:17Z</time>
      </trkpt>
      <trkpt lat="47.26329" lon="-1.59542">
        <ele>14.1</ele>
        <time>2012-01-26T15:15:22Z</time>
      </trkpt>
      <trkpt lat="47.26327" lon="-1.59538">
        <ele>14.5</ele>
        <time>2012-01-26T15:15:26Z</time>
      </trkpt>
      <trkpt lat="47.26325" lon="-1.59533">
        <ele>14.6</ele>
        <time>2012-01-26T15:15:30Z</time>
      </trkpt>
      <trkpt lat="47.26322" lon="-1.59529">
        <ele>14.8</ele>
        <time>2012-01-26T15:15:35Z</time>
      </trkpt>
      <trkpt lat="47.26319" lon="-1.59524">
        <ele>14.6</ele>
        <time>2012-01-26T15:15:40Z</time>
      </trkpt>
      <trkpt lat="47.26319" lon="-1.59524">
        <ele>14.6</ele>
        <time>2012-01-26T15:15:41Z</time>
      </trkpt>
      <trkpt lat="47.26315" lon="-1.59515">
        <ele>14.5</ele>
        <time>2012-01-26T15:15:49Z</time>
      </trkpt>
      <trkpt lat="47.26312" lon="-1.5951">
        <ele>14.6</ele>
        <time>2012-01-26T15:15:53Z</time>
      </trkpt>
      <trkpt lat="47.26309" lon="-1.59506">
        <ele>15</ele>
        <time>2012-01-26T15:15:57Z</time>
      </trkpt>
      <trkpt lat="47.26306" lon="-1.59501">
        <ele>15.3</ele>
        <time>2012-01-26T15:16:01Z</time>
      </trkpt>
      <trkpt lat="47.26304" lon="-1.59497">
        <ele>15.3</ele>
        <time>2012-01-26T15:16:05Z</time>
      </trkpt>
      <trkpt lat="47.263" lon="-1.59492">
        <ele>15.5</ele>
        <time>2012-01-26T15:16:09Z</time>
      </trkpt>
      <trkpt lat="47.26297" lon="-1.59488">
        <ele>15.6</ele>
        <time>2012-01-26T15:16:13Z</time>
      </trkpt>
      <trkpt lat="47.26295" lon="-1.59484">
        <ele>15.6</ele>
        <time>2012-01-26T15:16:17Z</time>
      </trkpt>
      <trkpt lat="47.26292" lon="-1.5948">
        <ele>15.6</ele>
        <time>2012-01-26T15:16:21Z</time>
      </trkpt>
      <trkpt lat="47.26289" lon="-1.59475">
        <ele>15.6</ele>
        <time>2012-01-26T15:16:26Z</time>
      </trkpt>
      <trkpt lat="47.26287" lon="-1.59472">
        <ele>15.8</ele>
        <time>2012-01-26T15:16:30Z</time>
      </trkpt>
      <trkpt lat="47.26284" lon="-1.59468">
        <ele>15.8</ele>
        <time>2012-01-26T15:16:35Z</time>
      </trkpt>
      <trkpt lat="47.26281" lon="-1.59464">
        <ele>16.2</ele>
        <time>2012-01-26T15:16:40Z</time>
      </trkpt>
      <trkpt lat="47.26278" lon="-1.59458">
        <ele>16.2</ele>
        <time>2012-01-26T15:16:46Z</time>
      </trkpt>
      <trkpt lat="47.26278" lon="-1.59457">
        <ele>16.2</ele>
        <time>2012-01-26T15:16:47Z</time>
      </trkpt>
      <trkpt lat="47.26273" lon="-1.59449">
        <ele>16.7</ele>
        <time>2012-01-26T15:16:56Z</time>
      </trkpt>
      <trkpt lat="47.2627" lon="-1.59445">
        <ele>17.6</ele>
        <time>2012-01-26T15:17:01Z</time>
      </trkpt>
      <trkpt lat="47.26266" lon="-1.59442">
        <ele>17.6</ele>
        <time>2012-01-26T15:17:06Z</time>
      </trkpt>
      <trkpt lat="47.26262" lon="-1.59438">
        <ele>17.2</ele>
        <time>2012-01-26T15:17:10Z</time>
      </trkpt>
      <trkpt lat="47.26259" lon="-1.59436">
        <ele>17.2</ele>
        <time>2012-01-26T15:17:14Z</time>
      </trkpt>
      <trkpt lat="47.26255" lon="-1.59433">
        <ele>16.2</ele>
        <time>2012-01-26T15:17:18Z</time>
      </trkpt>
      <trkpt lat="47.26251" lon="-1.59429">
        <ele>16.2</ele>
        <time>2012-01-26T15:17:22Z</time>
      </trkpt>
      <trkpt lat="47.26249" lon="-1.59423">
        <ele>16.2</ele>
        <time>2012-01-26T15:17:26Z</time>
      </trkpt>
      <trkpt lat="47.26247" lon="-1.59419">
        <ele>17.2</ele>
        <time>2012-01-26T15:17:29Z</time>
      </trkpt>
      <trkpt lat="47.26246" lon="-1.59414">
        <ele>16.7</ele>
        <time>2012-01-26T15:17:32Z</time>
      </trkpt>
      <trkpt lat="47.26245" lon="-1.5941">
        <ele>16.5</ele>
        <time>2012-01-26T15:17:35Z</time>
      </trkpt>
      <trkpt lat="47.26244" lon="-1.59404">
        <ele>16.7</ele>
        <time>2012-01-26T15:17:38Z</time>
      </trkpt>
      <trkpt lat="47.26242" lon="-1.59399">
        <ele>16.6</ele>
        <time>2012-01-26T15:17:42Z</time>
      </trkpt>
      <trkpt lat="47.2624" lon="-1.59394">
        <ele>17.2</ele>
        <time>2012-01-26T15:17:46Z</time>
      </trkpt>
      <trkpt lat="47.26238" lon="-1.59389">
        <ele>17.7</ele>
        <time>2012-01-26T15:17:50Z</time>
      </trkpt>
      <trkpt lat="47.26238" lon="-1.59388">
        <ele>17.8</ele>
        <time>2012-01-26T15:17:51Z</time>
      </trkpt>
      <trkpt lat="47.26235" lon="-1.59379">
        <ele>17.7</ele>
        <time>2012-01-26T15:17:58Z</time>
      </trkpt>
      <trkpt lat="47.26233" lon="-1.59374">
        <ele>18</ele>
        <time>2012-01-26T15:18:03Z</time>
      </trkpt>
      <trkpt lat="47.26231" lon="-1.59368">
        <ele>18.2</ele>
        <time>2012-01-26T15:18:08Z</time>
      </trkpt>
      <trkpt lat="47.2623" lon="-1.59364">
        <ele>17.8</ele>
        <time>2012-01-26T15:18:11Z</time>
      </trkpt>
      <trkpt lat="47.26228" lon="-1.59359">
        <ele>18.7</ele>
        <time>2012-01-26T15:18:14Z</time>
      </trkpt>
      <trkpt lat="47.26226" lon="-1.59354">
        <ele>18.2</ele>
        <time>2012-01-26T15:18:18Z</time>
      </trkpt>
      <trkpt lat="47.26224" lon="-1.59349">
        <ele>18.3</ele>
        <time>2012-01-26T15:18:22Z</time>
      </trkpt>
      <trkpt lat="47.26222" lon="-1.59344">
        <ele>18.7</ele>
        <time>2012-01-26T15:18:26Z</time>
      </trkpt>
      <trkpt lat="47.26219" lon="-1.59338">
        <ele>18.7</ele>
        <time>2012-01-26T15:18:30Z</time>
      </trkpt>
      <trkpt lat="47.26217" lon="-1.59333">
        <ele>18.8</ele>
        <time>2012-01-26T15:18:34Z</time>
      </trkpt>
      <trkpt lat="47.26215" lon="-1.59328">
        <ele>19.3</ele>
        <time>2012-01-26T15:18:38Z</time>
      </trkpt>
      <trkpt lat="47.26213" lon="-1.59324">
        <ele>19.2</ele>
        <time>2012-01-26T15:18:41Z</time>
      </trkpt>
      <trkpt lat="47.26211" lon="-1.59319">
        <ele>18.7</ele>
        <time>2012-01-26T15:18:44Z</time>
      </trkpt>
      <trkpt lat="47.26208" lon="-1.59314">
        <ele>18.8</ele>
        <time>2012-01-26T15:18:48Z</time>
      </trkpt>
      <trkpt lat="47.26206" lon="-1.59309">
        <ele>18.7</ele>
        <time>2012-01-26T15:18:52Z</time>
      </trkpt>
      <trkpt lat="47.26206" lon="-1.59308">
        <ele>19</ele>
        <time>2012-01-26T15:18:53Z</time>
      </trkpt>
      <trkpt lat="47.26202" lon="-1.59299">
        <ele>19.3</ele>
        <time>2012-01-26T15:19:00Z</time>
      </trkpt>
      <trkpt lat="47.262" lon="-1.59294">
        <ele>19.1</ele>
        <time>2012-01-26T15:19:04Z</time>
      </trkpt>
      <trkpt lat="47.26198" lon="-1.59289">
        <ele>19.7</ele>
        <time>2012-01-26T15:19:08Z</time>
      </trkpt>
      <trkpt lat="47.26196" lon="-1.59284">
        <ele>20</ele>
        <time>2012-01-26T15:19:12Z</time>
      </trkpt>
      <trkpt lat="47.26194" lon="-1.59279">
        <ele>20.2</ele>
        <time>2012-01-26T15:19:16Z</time>
      </trkpt>
      <trkpt lat="47.26192" lon="-1.59273">
        <ele>20.1</ele>
        <time>2012-01-26T15:19:20Z</time>
      </trkpt>
      <trkpt lat="47.26189" lon="-1.59269">
        <ele>20.2</ele>
        <time>2012-01-26T15:19:24Z</time>
      </trkpt>
      <trkpt lat="47.26187" lon="-1.59264">
        <ele>20.2</ele>
        <time>2012-01-26T15:19:28Z</time>
      </trkpt>
      <trkpt lat="47.26184" lon="-1.5926">
        <ele>20.3</ele>
        <time>2012-01-26T15:19:32Z</time>
      </trkpt>
      <trkpt lat="47.26182" lon="-1.59255">
        <ele>20.3</ele>
        <time>2012-01-26T15:19:35Z</time>
      </trkpt>
      <trkpt lat="47.2618" lon="-1.59249">
        <ele>20.1</ele>
        <time>2012-01-26T15:19:39Z</time>
      </trkpt>
      <trkpt lat="47.26178" lon="-1.59244">
        <ele>19.8</ele>
        <time>2012-01-26T15:19:43Z</time>
      </trkpt>
      <trkpt lat="47.26176" lon="-1.59238">
        <ele>19.8</ele>
        <time>2012-01-26T15:19:47Z</time>
      </trkpt>
      <trkpt lat="47.26174" lon="-1.59233">
        <ele>20.5</ele>
        <time>2012-01-26T15:19:51Z</time>
      </trkpt>
      <trkpt lat="47.26172" lon="-1.59227">
        <ele>20.6</ele>
        <time>2012-01-26T15:19:55Z</time>
      </trkpt>
      <trkpt lat="47.26171" lon="-1.59226">
        <ele>20.6</ele>
        <time>2012-01-26T15:19:56Z</time>
      </trkpt>
      <trkpt lat="47.2617" lon="-1.59216">
        <ele>20.8</ele>
        <time>2012-01-26T15:20:03Z</time>
      </trkpt>
      <trkpt lat="47.26168" lon="-1.59211">
        <ele>20.5</ele>
        <time>2012-01-26T15:20:07Z</time>
      </trkpt>
      <trkpt lat="47.26166" lon="-1.59206">
        <ele>20.2</ele>
        <time>2012-01-26T15:20:11Z</time>
      </trkpt>
      <trkpt lat="47.26164" lon="-1.59201">
        <ele>20.5</ele>
        <time>2012-01-26T15:20:15Z</time>
      </trkpt>
      <trkpt lat="47.26162" lon="-1.59195">
        <ele>20.2</ele>
        <time>2012-01-26T15:20:19Z</time>
      </trkpt>
      <trkpt lat="47.26161" lon="-1.59189">
        <ele>21</ele>
        <time>2012-01-26T15:20:23Z</time>
      </trkpt>
      <trkpt lat="47.26159" lon="-1.59184">
        <ele>20.7</ele>
        <time>2012-01-26T15:20:27Z</time>
      </trkpt>
      <trkpt lat="47.26157" lon="-1.59179">
        <ele>21.1</ele>
        <time>2012-01-26T15:20:31Z</time>
      </trkpt>
      <trkpt lat="47.26155" lon="-1.59174">
        <ele>20.3</ele>
        <time>2012-01-26T15:20:35Z</time>
      </trkpt>
      <trkpt lat="47.26154" lon="-1.59167">
        <ele>20.3</ele>
        <time>2012-01-26T15:20:39Z</time>
      </trkpt>
      <trkpt lat="47.26152" lon="-1.59162">
        <ele>20.6</ele>
        <time>2012-01-26T15:20:43Z</time>
      </trkpt>
      <trkpt lat="47.26151" lon="-1.59156">
        <ele>20.2</ele>
        <time>2012-01-26T15:20:47Z</time>
      </trkpt>
      <trkpt lat="47.26149" lon="-1.5915">
        <ele>20.7</ele>
        <time>2012-01-26T15:20:51Z</time>
      </trkpt>
      <trkpt lat="47.26148" lon="-1.59145">
        <ele>20.3</ele>
        <time>2012-01-26T15:20:55Z</time>
      </trkpt>
      <trkpt lat="47.26147" lon="-1.5914">
        <ele>20.2</ele>
        <time>2012-01-26T15:20:59Z</time>
      </trkpt>
      <trkpt lat="47.26147" lon="-1.59139">
        <ele>20.3</ele>
        <time>2012-01-26T15:21:00Z</time>
      </trkpt>
      <trkpt lat="47.26144" lon="-1.5913">
        <ele>20.6</ele>
        <time>2012-01-26T15:21:07Z</time>
      </trkpt>
      <trkpt lat="47.26142" lon="-1.59125">
        <ele>20.5</ele>
        <time>2012-01-26T15:21:11Z</time>
      </trkpt>
      <trkpt lat="47.26138" lon="-1.59122">
        <ele>20.7</ele>
        <time>2012-01-26T15:21:16Z</time>
      </trkpt>
      <trkpt lat="47.26136" lon="-1.59117">
        <ele>20.2</ele>
        <time>2012-01-26T15:21:20Z</time>
      </trkpt>
      <trkpt lat="47.26134" lon="-1.59113">
        <ele>20.1</ele>
        <time>2012-01-26T15:21:23Z</time>
      </trkpt>
      <trkpt lat="47.26133" lon="-1.59108">
        <ele>20</ele>
        <time>2012-01-26T15:21:26Z</time>
      </trkpt>
      <trkpt lat="47.26133" lon="-1.59101">
        <ele>20.5</ele>
        <time>2012-01-26T15:21:30Z</time>
      </trkpt>
      <trkpt lat="47.26132" lon="-1.59096">
        <ele>20.6</ele>
        <time>2012-01-26T15:21:33Z</time>
      </trkpt>
      <trkpt lat="47.26132" lon="-1.5909">
        <ele>20.7</ele>
        <time>2012-01-26T15:21:36Z</time>
      </trkpt>
      <trkpt lat="47.26131" lon="-1.59085">
        <ele>20.7</ele>
        <time>2012-01-26T15:21:39Z</time>
      </trkpt>
      <trkpt lat="47.2613" lon="-1.5908">
        <ele>20.5</ele>
        <time>2012-01-26T15:21:42Z</time>
      </trkpt>
      <trkpt lat="47.26128" lon="-1.59076">
        <ele>20.8</ele>
        <time>2012-01-26T15:21:45Z</time>
      </trkpt>
      <trkpt lat="47.26127" lon="-1.59071">
        <ele>20.6</ele>
        <time>2012-01-26T15:21:48Z</time>
      </trkpt>
      <trkpt lat="47.26126" lon="-1.59065">
        <ele>20.7</ele>
        <time>2012-01-26T15:21:52Z</time>
      </trkpt>
      <trkpt lat="47.26124" lon="-1.59059">
        <ele>20.2</ele>
        <time>2012-01-26T15:21:56Z</time>
      </trkpt>
      <trkpt lat="47.26123" lon="-1.59054">
        <ele>20</ele>
        <time>2012-01-26T15:22:00Z</time>
      </trkpt>
      <trkpt lat="47.26123" lon="-1.59052">
        <ele>20</ele>
        <time>2012-01-26T15:22:01Z</time>
      </trkpt>
      <trkpt lat="47.2612" lon="-1.59041">
        <ele>20.2</ele>
        <time>2012-01-26T15:22:08Z</time>
      </trkpt>
      <trkpt lat="47.26119" lon="-1.59036">
        <ele>19.7</ele>
        <time>2012-01-26T15:22:12Z</time>
      </trkpt>
      <trkpt lat="47.26118" lon="-1.5903">
        <ele>19.8</ele>
        <time>2012-01-26T15:22:16Z</time>
      </trkpt>
      <trkpt lat="47.26117" lon="-1.59025">
        <ele>20</ele>
        <time>2012-01-26T15:22:20Z</time>
      </trkpt>
      <trkpt lat="47.26116" lon="-1.59019">
        <ele>20.2</ele>
        <time>2012-01-26T15:22:24Z</time>
      </trkpt>
      <trkpt lat="47.26115" lon="-1.59014">
        <ele>20.2</ele>
        <time>2012-01-26T15:22:28Z</time>
      </trkpt>
      <trkpt lat="47.26115" lon="-1.59008">
        <ele>20.2</ele>
        <time>2012-01-26T15:22:32Z</time>
      </trkpt>
      <trkpt lat="47.26114" lon="-1.59002">
        <ele>19.6</ele>
        <time>2012-01-26T15:22:36Z</time>
      </trkpt>
      <trkpt lat="47.26113" lon="-1.58997">
        <ele>20</ele>
        <time>2012-01-26T15:22:40Z</time>
      </trkpt>
      <trkpt lat="47.26113" lon="-1.58991">
        <ele>20.2</ele>
        <time>2012-01-26T15:22:44Z</time>
      </trkpt>
      <trkpt lat="47.26112" lon="-1.58986">
        <ele>20.7</ele>
        <time>2012-01-26T15:22:48Z</time>
      </trkpt>
      <trkpt lat="47.26111" lon="-1.5898">
        <ele>21</ele>
        <time>2012-01-26T15:22:52Z</time>
      </trkpt>
      <trkpt lat="47.2611" lon="-1.58975">
        <ele>21.5</ele>
        <time>2012-01-26T15:22:56Z</time>
      </trkpt>
      <trkpt lat="47.26109" lon="-1.58969">
        <ele>21.7</ele>
        <time>2012-01-26T15:23:01Z</time>
      </trkpt>
      <trkpt lat="47.26108" lon="-1.58968">
        <ele>21.3</ele>
        <time>2012-01-26T15:23:02Z</time>
      </trkpt>
      <trkpt lat="47.26106" lon="-1.58959">
        <ele>21.2</ele>
        <time>2012-01-26T15:23:09Z</time>
      </trkpt>
      <trkpt lat="47.26105" lon="-1.58953">
        <ele>21.5</ele>
        <time>2012-01-26T15:23:13Z</time>
      </trkpt>
      <trkpt lat="47.26104" lon="-1.58947">
        <ele>22.1</ele>
        <time>2012-01-26T15:23:17Z</time>
      </trkpt>
      <trkpt lat="47.26104" lon="-1.58941">
        <ele>21.3</ele>
        <time>2012-01-26T15:23:21Z</time>
      </trkpt>
      <trkpt lat="47.26103" lon="-1.58936">
        <ele>22.2</ele>
        <time>2012-01-26T15:23:25Z</time>
      </trkpt>
      <trkpt lat="47.26102" lon="-1.5893">
        <ele>22.7</ele>
        <time>2012-01-26T15:23:29Z</time>
      </trkpt>
      <trkpt lat="47.26101" lon="-1.58924">
        <ele>22.3</ele>
        <time>2012-01-26T15:23:33Z</time>
      </trkpt>
      <trkpt lat="47.261" lon="-1.5892">
        <ele>22.8</ele>
        <time>2012-01-26T15:23:36Z</time>
      </trkpt>
      <trkpt lat="47.26099" lon="-1.58915">
        <ele>22.2</ele>
        <time>2012-01-26T15:23:39Z</time>
      </trkpt>
      <trkpt lat="47.26098" lon="-1.58908">
        <ele>22.6</ele>
        <time>2012-01-26T15:23:43Z</time>
      </trkpt>
      <trkpt lat="47.26097" lon="-1.58902">
        <ele>23.7</ele>
        <time>2012-01-26T15:23:47Z</time>
      </trkpt>
      <trkpt lat="47.26096" lon="-1.58897">
        <ele>23.7</ele>
        <time>2012-01-26T15:23:51Z</time>
      </trkpt>
      <trkpt lat="47.26095" lon="-1.58891">
        <ele>24.1</ele>
        <time>2012-01-26T15:23:56Z</time>
      </trkpt>
      <trkpt lat="47.26095" lon="-1.58885">
        <ele>24.6</ele>
        <time>2012-01-26T15:24:01Z</time>
      </trkpt>
      <trkpt lat="47.26095" lon="-1.58878">
        <ele>24.2</ele>
        <time>2012-01-26T15:24:06Z</time>
      </trkpt>
      <trkpt lat="47.26095" lon="-1.58878">
        <ele>24.3</ele>
        <time>2012-01-26T15:24:07Z</time>
      </trkpt>
      <trkpt lat="47.26093" lon="-1.58866">
        <ele>24.7</ele>
        <time>2012-01-26T15:24:15Z</time>
      </trkpt>
      <trkpt lat="47.26093" lon="-1.5886">
        <ele>24.3</ele>
        <time>2012-01-26T15:24:19Z</time>
      </trkpt>
      <trkpt lat="47.26092" lon="-1.58854">
        <ele>24.7</ele>
        <time>2012-01-26T15:24:23Z</time>
      </trkpt>
      <trkpt lat="47.26091" lon="-1.58849">
        <ele>25.2</ele>
        <time>2012-01-26T15:24:26Z</time>
      </trkpt>
      <trkpt lat="47.2609" lon="-1.58843">
        <ele>26.3</ele>
        <time>2012-01-26T15:24:30Z</time>
      </trkpt>
      <trkpt lat="47.2609" lon="-1.58838">
        <ele>26.2</ele>
        <time>2012-01-26T15:24:34Z</time>
      </trkpt>
      <trkpt lat="47.26089" lon="-1.58832">
        <ele>26.2</ele>
        <time>2012-01-26T15:24:38Z</time>
      </trkpt>
      <trkpt lat="47.26088" lon="-1.58827">
        <ele>26.1</ele>
        <time>2012-01-26T15:24:42Z</time>
      </trkpt>
      <trkpt lat="47.26083" lon="-1.58825">
        <ele>27.3</ele>
        <time>2012-01-26T15:24:51Z</time>
      </trkpt>
      <trkpt lat="47.2608" lon="-1.58827">
        <ele>27.3</ele>
        <time>2012-01-26T15:25:00Z</time>
      </trkpt>
      <trkpt lat="47.26077" lon="-1.58831">
        <ele>27.5</ele>
        <time>2012-01-26T15:25:06Z</time>
      </trkpt>
      <trkpt lat="47.26075" lon="-1.58837">
        <ele>27.3</ele>
        <time>2012-01-26T15:25:10Z</time>
      </trkpt>
      <trkpt lat="47.26074" lon="-1.58838">
        <ele>27.2</ele>
        <time>2012-01-26T15:25:11Z</time>
      </trkpt>
      <trkpt lat="47.2607" lon="-1.58848">
        <ele>27.2</ele>
        <time>2012-01-26T15:25:18Z</time>
      </trkpt>
      <trkpt lat="47.26068" lon="-1.58852">
        <ele>27.2</ele>
        <time>2012-01-26T15:25:22Z</time>
      </trkpt>
      <trkpt lat="47.26065" lon="-1.58857">
        <ele>26.7</ele>
        <time>2012-01-26T15:25:26Z</time>
      </trkpt>
      <trkpt lat="47.26061" lon="-1.5886">
        <ele>26.5</ele>
        <time>2012-01-26T15:25:30Z</time>
      </trkpt>
      <trkpt lat="47.26058" lon="-1.58862">
        <ele>26.5</ele>
        <time>2012-01-26T15:25:33Z</time>
      </trkpt>
      <trkpt lat="47.26055" lon="-1.58866">
        <ele>26.2</ele>
        <time>2012-01-26T15:25:37Z</time>
      </trkpt>
      <trkpt lat="47.2605" lon="-1.58868">
        <ele>26.5</ele>
        <time>2012-01-26T15:25:41Z</time>
      </trkpt>
      <trkpt lat="47.26046" lon="-1.58869">
        <ele>26.7</ele>
        <time>2012-01-26T15:25:44Z</time>
      </trkpt>
      <trkpt lat="47.26042" lon="-1.5887">
        <ele>27.1</ele>
        <time>2012-01-26T15:25:47Z</time>
      </trkpt>
      <trkpt lat="47.26038" lon="-1.58872">
        <ele>26.2</ele>
        <time>2012-01-26T15:25:50Z</time>
      </trkpt>
      <trkpt lat="47.26034" lon="-1.58872">
        <ele>25.7</ele>
        <time>2012-01-26T15:25:53Z</time>
      </trkpt>
      <trkpt lat="47.26031" lon="-1.58872">
        <ele>25.6</ele>
        <time>2012-01-26T15:25:56Z</time>
      </trkpt>
      <trkpt lat="47.26027" lon="-1.58873">
        <ele>25.3</ele>
        <time>2012-01-26T15:25:59Z</time>
      </trkpt>
      <trkpt lat="47.26023" lon="-1.58873">
        <ele>25.1</ele>
        <time>2012-01-26T15:26:02Z</time>
      </trkpt>
      <trkpt lat="47.26019" lon="-1.58873">
        <ele>25.1</ele>
        <time>2012-01-26T15:26:05Z</time>
      </trkpt>
      <trkpt lat="47.26016" lon="-1.58872">
        <ele>25.1</ele>
        <time>2012-01-26T15:26:08Z</time>
      </trkpt>
      <trkpt lat="47.26012" lon="-1.58871">
        <ele>25</ele>
        <time>2012-01-26T15:26:11Z</time>
      </trkpt>
      <trkpt lat="47.26011" lon="-1.58871">
        <ele>24.8</ele>
        <time>2012-01-26T15:26:12Z</time>
      </trkpt>
      <trkpt lat="47.26005" lon="-1.58867">
        <ele>24.8</ele>
        <time>2012-01-26T15:26:17Z</time>
      </trkpt>
      <trkpt lat="47.26002" lon="-1.58865">
        <ele>24.8</ele>
        <time>2012-01-26T15:26:20Z</time>
      </trkpt>
      <trkpt lat="47.25998" lon="-1.58862">
        <ele>24.7</ele>
        <time>2012-01-26T15:26:24Z</time>
      </trkpt>
      <trkpt lat="47.25994" lon="-1.5886">
        <ele>24.7</ele>
        <time>2012-01-26T15:26:28Z</time>
      </trkpt>
      <trkpt lat="47.25991" lon="-1.58856">
        <ele>24.6</ele>
        <time>2012-01-26T15:26:32Z</time>
      </trkpt>
      <trkpt lat="47.25988" lon="-1.58852">
        <ele>25</ele>
        <time>2012-01-26T15:26:36Z</time>
      </trkpt>
      <trkpt lat="47.25986" lon="-1.58847">
        <ele>24.7</ele>
        <time>2012-01-26T15:26:40Z</time>
      </trkpt>
      <trkpt lat="47.25984" lon="-1.58841">
        <ele>24.5</ele>
        <time>2012-01-26T15:26:44Z</time>
      </trkpt>
      <trkpt lat="47.25982" lon="-1.58836">
        <ele>25.2</ele>
        <time>2012-01-26T15:26:48Z</time>
      </trkpt>
      <trkpt lat="47.2598" lon="-1.58831">
        <ele>24.7</ele>
        <time>2012-01-26T15:26:51Z</time>
      </trkpt>
      <trkpt lat="47.25978" lon="-1.58825">
        <ele>24.7</ele>
        <time>2012-01-26T15:26:55Z</time>
      </trkpt>
      <trkpt lat="47.25977" lon="-1.5882">
        <ele>24.8</ele>
        <time>2012-01-26T15:26:58Z</time>
      </trkpt>
      <trkpt lat="47.25976" lon="-1.58814">
        <ele>25.2</ele>
        <time>2012-01-26T15:27:02Z</time>
      </trkpt>
      <trkpt lat="47.25974" lon="-1.58808">
        <ele>25.2</ele>
        <time>2012-01-26T15:27:06Z</time>
      </trkpt>
      <trkpt lat="47.25973" lon="-1.58803">
        <ele>25.2</ele>
        <time>2012-01-26T15:27:09Z</time>
      </trkpt>
      <trkpt lat="47.25972" lon="-1.58798">
        <ele>25</ele>
        <time>2012-01-26T15:27:12Z</time>
      </trkpt>
      <trkpt lat="47.25972" lon="-1.58796">
        <ele>24.8</ele>
        <time>2012-01-26T15:27:13Z</time>
      </trkpt>
      <trkpt lat="47.25971" lon="-1.58787">
        <ele>25.8</ele>
        <time>2012-01-26T15:27:18Z</time>
      </trkpt>
      <trkpt lat="47.25971" lon="-1.58782">
        <ele>26</ele>
        <time>2012-01-26T15:27:21Z</time>
      </trkpt>
      <trkpt lat="47.2597" lon="-1.58776">
        <ele>26.2</ele>
        <time>2012-01-26T15:27:24Z</time>
      </trkpt>
      <trkpt lat="47.2597" lon="-1.58771">
        <ele>26.2</ele>
        <time>2012-01-26T15:27:27Z</time>
      </trkpt>
      <trkpt lat="47.2597" lon="-1.58765">
        <ele>26.6</ele>
        <time>2012-01-26T15:27:30Z</time>
      </trkpt>
      <trkpt lat="47.25969" lon="-1.5876">
        <ele>26.6</ele>
        <time>2012-01-26T15:27:33Z</time>
      </trkpt>
      <trkpt lat="47.25968" lon="-1.58754">
        <ele>25.8</ele>
        <time>2012-01-26T15:27:37Z</time>
      </trkpt>
      <trkpt lat="47.25968" lon="-1.58748">
        <ele>26.7</ele>
        <time>2012-01-26T15:27:41Z</time>
      </trkpt>
      <trkpt lat="47.25967" lon="-1.58742">
        <ele>26.8</ele>
        <time>2012-01-26T15:27:45Z</time>
      </trkpt>
      <trkpt lat="47.25966" lon="-1.58736">
        <ele>26.5</ele>
        <time>2012-01-26T15:27:49Z</time>
      </trkpt>
      <trkpt lat="47.25965" lon="-1.58731">
        <ele>26.7</ele>
        <time>2012-01-26T15:27:53Z</time>
      </trkpt>
      <trkpt lat="47.25965" lon="-1.58726">
        <ele>26.7</ele>
        <time>2012-01-26T15:27:56Z</time>
      </trkpt>
      <trkpt lat="47.25964" lon="-1.58719">
        <ele>27.5</ele>
        <time>2012-01-26T15:28:00Z</time>
      </trkpt>
      <trkpt lat="47.25964" lon="-1.58714">
        <ele>27.6</ele>
        <time>2012-01-26T15:28:03Z</time>
      </trkpt>
      <trkpt lat="47.25963" lon="-1.58709">
        <ele>27.2</ele>
        <time>2012-01-26T15:28:06Z</time>
      </trkpt>
      <trkpt lat="47.25963" lon="-1.58704">
        <ele>27.2</ele>
        <time>2012-01-26T15:28:09Z</time>
      </trkpt>
      <trkpt lat="47.25964" lon="-1.58698">
        <ele>27.1</ele>
        <time>2012-01-26T15:28:13Z</time>
      </trkpt>
      <trkpt lat="47.25964" lon="-1.58696">
        <ele>27.1</ele>
        <time>2012-01-26T15:28:14Z</time>
      </trkpt>
      <trkpt lat="47.25962" lon="-1.58686">
        <ele>27.5</ele>
        <time>2012-01-26T15:28:31Z</time>
      </trkpt>
      <trkpt lat="47.25959" lon="-1.58682">
        <ele>26.6</ele>
        <time>2012-01-26T15:29:36Z</time>
      </trkpt>
      <trkpt lat="47.25959" lon="-1.58681">
        <ele>26.7</ele>
        <time>2012-01-26T15:29:37Z</time>
      </trkpt>
      <trkpt lat="47.25957" lon="-1.58669">
        <ele>26.2</ele>
        <time>2012-01-26T15:30:05Z</time>
      </trkpt>
      <trkpt lat="47.25957" lon="-1.58664">
        <ele>26.5</ele>
        <time>2012-01-26T15:30:10Z</time>
      </trkpt>
      <trkpt lat="47.25956" lon="-1.58657">
        <ele>27.1</ele>
        <time>2012-01-26T15:30:15Z</time>
      </trkpt>
      <trkpt lat="47.25956" lon="-1.58652">
        <ele>26.2</ele>
        <time>2012-01-26T15:30:19Z</time>
      </trkpt>
      <trkpt lat="47.25956" lon="-1.58647">
        <ele>27</ele>
        <time>2012-01-26T15:30:23Z</time>
      </trkpt>
      <trkpt lat="47.25955" lon="-1.58641">
        <ele>27.2</ele>
        <time>2012-01-26T15:30:27Z</time>
      </trkpt>
      <trkpt lat="47.25954" lon="-1.58635">
        <ele>27.3</ele>
        <time>2012-01-26T15:30:30Z</time>
      </trkpt>
      <trkpt lat="47.25953" lon="-1.5863">
        <ele>27.7</ele>
        <time>2012-01-26T15:30:33Z</time>
      </trkpt>
      <trkpt lat="47.25952" lon="-1.58625">
        <ele>27.7</ele>
        <time>2012-01-26T15:30:36Z</time>
      </trkpt>
      <trkpt lat="47.25951" lon="-1.58618">
        <ele>27.6</ele>
        <time>2012-01-26T15:30:40Z</time>
      </trkpt>
      <trkpt lat="47.25951" lon="-1.58617">
        <ele>27.5</ele>
        <time>2012-01-26T15:30:41Z</time>
      </trkpt>
      <trkpt lat="47.25949" lon="-1.58606">
        <ele>27.2</ele>
        <time>2012-01-26T15:30:47Z</time>
      </trkpt>
      <trkpt lat="47.25948" lon="-1.58601">
        <ele>27</ele>
        <time>2012-01-26T15:30:50Z</time>
      </trkpt>
      <trkpt lat="47.25948" lon="-1.58596">
        <ele>27.1</ele>
        <time>2012-01-26T15:30:53Z</time>
      </trkpt>
      <trkpt lat="47.25947" lon="-1.5859">
        <ele>27.8</ele>
        <time>2012-01-26T15:30:57Z</time>
      </trkpt>
      <trkpt lat="47.25945" lon="-1.58584">
        <ele>28.1</ele>
        <time>2012-01-26T15:31:01Z</time>
      </trkpt>
      <trkpt lat="47.25945" lon="-1.58578">
        <ele>28</ele>
        <time>2012-01-26T15:31:05Z</time>
      </trkpt>
      <trkpt lat="47.25944" lon="-1.58573">
        <ele>27.3</ele>
        <time>2012-01-26T15:31:08Z</time>
      </trkpt>
      <trkpt lat="47.25943" lon="-1.58567">
        <ele>27.2</ele>
        <time>2012-01-26T15:31:12Z</time>
      </trkpt>
      <trkpt lat="47.25942" lon="-1.58561">
        <ele>27.6</ele>
        <time>2012-01-26T15:31:15Z</time>
      </trkpt>
      <trkpt lat="47.25941" lon="-1.58556">
        <ele>27.3</ele>
        <time>2012-01-26T15:31:19Z</time>
      </trkpt>
      <trkpt lat="47.2594" lon="-1.5855">
        <ele>27.2</ele>
        <time>2012-01-26T15:31:23Z</time>
      </trkpt>
      <trkpt lat="47.25939" lon="-1.58545">
        <ele>27.2</ele>
        <time>2012-01-26T15:31:26Z</time>
      </trkpt>
      <trkpt lat="47.25938" lon="-1.5854">
        <ele>28.3</ele>
        <time>2012-01-26T15:31:29Z</time>
      </trkpt>
      <trkpt lat="47.25937" lon="-1.58534">
        <ele>28.3</ele>
        <time>2012-01-26T15:31:33Z</time>
      </trkpt>
      <trkpt lat="47.25936" lon="-1.58528">
        <ele>28.2</ele>
        <time>2012-01-26T15:31:37Z</time>
      </trkpt>
      <trkpt lat="47.25935" lon="-1.58523">
        <ele>27.8</ele>
        <time>2012-01-26T15:31:40Z</time>
      </trkpt>
      <trkpt lat="47.25934" lon="-1.58518">
        <ele>27.5</ele>
        <time>2012-01-26T15:31:43Z</time>
      </trkpt>
      <trkpt lat="47.25934" lon="-1.58516">
        <ele>27.2</ele>
        <time>2012-01-26T15:31:44Z</time>
      </trkpt>
      <trkpt lat="47.25932" lon="-1.58506">
        <ele>27.2</ele>
        <time>2012-01-26T15:31:51Z</time>
      </trkpt>
      <trkpt lat="47.2593" lon="-1.58501">
        <ele>27.7</ele>
        <time>2012-01-26T15:31:54Z</time>
      </trkpt>
      <trkpt lat="47.25929" lon="-1.58495">
        <ele>27.8</ele>
        <time>2012-01-26T15:31:58Z</time>
      </trkpt>
      <trkpt lat="47.25929" lon="-1.5849">
        <ele>28</ele>
        <time>2012-01-26T15:32:01Z</time>
      </trkpt>
      <trkpt lat="47.25928" lon="-1.58483">
        <ele>28.2</ele>
        <time>2012-01-26T15:32:05Z</time>
      </trkpt>
      <trkpt lat="47.25927" lon="-1.58478">
        <ele>27.8</ele>
        <time>2012-01-26T15:32:08Z</time>
      </trkpt>
      <trkpt lat="47.25926" lon="-1.58473">
        <ele>27.8</ele>
        <time>2012-01-26T15:32:11Z</time>
      </trkpt>
      <trkpt lat="47.25925" lon="-1.58466">
        <ele>27.7</ele>
        <time>2012-01-26T15:32:15Z</time>
      </trkpt>
      <trkpt lat="47.25924" lon="-1.58461">
        <ele>28</ele>
        <time>2012-01-26T15:32:18Z</time>
      </trkpt>
      <trkpt lat="47.25923" lon="-1.58454">
        <ele>28.3</ele>
        <time>2012-01-26T15:32:22Z</time>
      </trkpt>
      <trkpt lat="47.25923" lon="-1.58449">
        <ele>28.6</ele>
        <time>2012-01-26T15:32:25Z</time>
      </trkpt>
      <trkpt lat="47.25923" lon="-1.58443">
        <ele>28.2</ele>
        <time>2012-01-26T15:32:29Z</time>
      </trkpt>
      <trkpt lat="47.25922" lon="-1.58438">
        <ele>28.1</ele>
        <time>2012-01-26T15:32:32Z</time>
      </trkpt>
      <trkpt lat="47.25921" lon="-1.58433">
        <ele>28.1</ele>
        <time>2012-01-26T15:32:35Z</time>
      </trkpt>
      <trkpt lat="47.2592" lon="-1.58428">
        <ele>28.3</ele>
        <time>2012-01-26T15:32:38Z</time>
      </trkpt>
      <trkpt lat="47.2592" lon="-1.58422">
        <ele>28.2</ele>
        <time>2012-01-26T15:32:42Z</time>
      </trkpt>
      <trkpt lat="47.25919" lon="-1.58416">
        <ele>28.3</ele>
        <time>2012-01-26T15:32:46Z</time>
      </trkpt>
      <trkpt lat="47.25919" lon="-1.58415">
        <ele>28.2</ele>
        <time>2012-01-26T15:32:47Z</time>
      </trkpt>
      <trkpt lat="47.25917" lon="-1.58405">
        <ele>28.2</ele>
        <time>2012-01-26T15:32:54Z</time>
      </trkpt>
      <trkpt lat="47.25917" lon="-1.58399">
        <ele>28.7</ele>
        <time>2012-01-26T15:32:58Z</time>
      </trkpt>
      <trkpt lat="47.25916" lon="-1.58393">
        <ele>28.2</ele>
        <time>2012-01-26T15:33:02Z</time>
      </trkpt>
      <trkpt lat="47.25916" lon="-1.58387">
        <ele>28</ele>
        <time>2012-01-26T15:33:06Z</time>
      </trkpt>
      <trkpt lat="47.25915" lon="-1.5838">
        <ele>28.5</ele>
        <time>2012-01-26T15:33:10Z</time>
      </trkpt>
      <trkpt lat="47.25914" lon="-1.58374">
        <ele>28.7</ele>
        <time>2012-01-26T15:33:14Z</time>
      </trkpt>
      <trkpt lat="47.25913" lon="-1.58369">
        <ele>28</ele>
        <time>2012-01-26T15:33:18Z</time>
      </trkpt>
      <trkpt lat="47.25911" lon="-1.58364">
        <ele>28.2</ele>
        <time>2012-01-26T15:33:22Z</time>
      </trkpt>
      <trkpt lat="47.2591" lon="-1.58357">
        <ele>28.6</ele>
        <time>2012-01-26T15:33:27Z</time>
      </trkpt>
      <trkpt lat="47.25909" lon="-1.58351">
        <ele>28.3</ele>
        <time>2012-01-26T15:33:31Z</time>
      </trkpt>
      <trkpt lat="47.25908" lon="-1.58345">
        <ele>28.7</ele>
        <time>2012-01-26T15:33:35Z</time>
      </trkpt>
      <trkpt lat="47.25907" lon="-1.5834">
        <ele>28.7</ele>
        <time>2012-01-26T15:33:38Z</time>
      </trkpt>
      <trkpt lat="47.25907" lon="-1.58335">
        <ele>28.7</ele>
        <time>2012-01-26T15:33:41Z</time>
      </trkpt>
      <trkpt lat="47.25906" lon="-1.5833">
        <ele>29.2</ele>
        <time>2012-01-26T15:33:44Z</time>
      </trkpt>
      <trkpt lat="47.25905" lon="-1.58325">
        <ele>29.5</ele>
        <time>2012-01-26T15:33:47Z</time>
      </trkpt>
      <trkpt lat="47.25905" lon="-1.58323">
        <ele>29.5</ele>
        <time>2012-01-26T15:33:48Z</time>
      </trkpt>
      <trkpt lat="47.25904" lon="-1.58315">
        <ele>29.1</ele>
        <time>2012-01-26T15:33:53Z</time>
      </trkpt>
      <trkpt lat="47.25903" lon="-1.58309">
        <ele>29.2</ele>
        <time>2012-01-26T15:33:56Z</time>
      </trkpt>
      <trkpt lat="47.25903" lon="-1.58304">
        <ele>29.8</ele>
        <time>2012-01-26T15:33:59Z</time>
      </trkpt>
      <trkpt lat="47.25902" lon="-1.58298">
        <ele>29.6</ele>
        <time>2012-01-26T15:34:03Z</time>
      </trkpt>
      <trkpt lat="47.25902" lon="-1.58293">
        <ele>29.3</ele>
        <time>2012-01-26T15:34:06Z</time>
      </trkpt>
      <trkpt lat="47.25901" lon="-1.58286">
        <ele>28.6</ele>
        <time>2012-01-26T15:34:10Z</time>
      </trkpt>
      <trkpt lat="47.259" lon="-1.58281">
        <ele>28.7</ele>
        <time>2012-01-26T15:34:13Z</time>
      </trkpt>
      <trkpt lat="47.259" lon="-1.58276">
        <ele>29.6</ele>
        <time>2012-01-26T15:34:16Z</time>
      </trkpt>
      <trkpt lat="47.25899" lon="-1.5827">
        <ele>29.5</ele>
        <time>2012-01-26T15:34:19Z</time>
      </trkpt>
      <trkpt lat="47.25898" lon="-1.58266">
        <ele>28.7</ele>
        <time>2012-01-26T15:34:22Z</time>
      </trkpt>
      <trkpt lat="47.25897" lon="-1.5826">
        <ele>28.3</ele>
        <time>2012-01-26T15:34:25Z</time>
      </trkpt>
      <trkpt lat="47.25896" lon="-1.58255">
        <ele>28.2</ele>
        <time>2012-01-26T15:34:28Z</time>
      </trkpt>
      <trkpt lat="47.25895" lon="-1.58248">
        <ele>29.2</ele>
        <time>2012-01-26T15:34:32Z</time>
      </trkpt>
      <trkpt lat="47.25894" lon="-1.58243">
        <ele>29.2</ele>
        <time>2012-01-26T15:34:35Z</time>
      </trkpt>
      <trkpt lat="47.25893" lon="-1.58238">
        <ele>29.2</ele>
        <time>2012-01-26T15:34:39Z</time>
      </trkpt>
      <trkpt lat="47.25893" lon="-1.58233">
        <ele>29</ele>
        <time>2012-01-26T15:34:42Z</time>
      </trkpt>
      <trkpt lat="47.25893" lon="-1.58227">
        <ele>29.1</ele>
        <time>2012-01-26T15:34:46Z</time>
      </trkpt>
      <trkpt lat="47.25892" lon="-1.5822">
        <ele>29.2</ele>
        <time>2012-01-26T15:34:50Z</time>
      </trkpt>
      <trkpt lat="47.25891" lon="-1.58218">
        <ele>29.2</ele>
        <time>2012-01-26T15:34:51Z</time>
      </trkpt>
      <trkpt lat="47.2589" lon="-1.5821">
        <ele>29.5</ele>
        <time>2012-01-26T15:34:56Z</time>
      </trkpt>
      <trkpt lat="47.25889" lon="-1.58205">
        <ele>28.5</ele>
        <time>2012-01-26T15:34:59Z</time>
      </trkpt>
      <trkpt lat="47.25887" lon="-1.58199">
        <ele>28.3</ele>
        <time>2012-01-26T15:35:03Z</time>
      </trkpt>
      <trkpt lat="47.25886" lon="-1.58193">
        <ele>28.7</ele>
        <time>2012-01-26T15:35:07Z</time>
      </trkpt>
      <trkpt lat="47.25885" lon="-1.58188">
        <ele>28.8</ele>
        <time>2012-01-26T15:35:10Z</time>
      </trkpt>
      <trkpt lat="47.25881" lon="-1.58184">
        <ele>29</ele>
        <time>2012-01-26T15:35:14Z</time>
      </trkpt>
      <trkpt lat="47.25878" lon="-1.58183">
        <ele>28.1</ele>
        <time>2012-01-26T15:35:18Z</time>
      </trkpt>
      <trkpt lat="47.25873" lon="-1.58184">
        <ele>28.5</ele>
        <time>2012-01-26T15:35:23Z</time>
      </trkpt>
      <trkpt lat="47.25871" lon="-1.58188">
        <ele>28.7</ele>
        <time>2012-01-26T15:35:31Z</time>
      </trkpt>
      <trkpt lat="47.25868" lon="-1.58192">
        <ele>28.6</ele>
        <time>2012-01-26T15:35:34Z</time>
      </trkpt>
      <trkpt lat="47.25865" lon="-1.58196">
        <ele>29</ele>
        <time>2012-01-26T15:35:38Z</time>
      </trkpt>
      <trkpt lat="47.25863" lon="-1.582">
        <ele>29.2</ele>
        <time>2012-01-26T15:35:41Z</time>
      </trkpt>
      <trkpt lat="47.2586" lon="-1.58204">
        <ele>29</ele>
        <time>2012-01-26T15:35:44Z</time>
      </trkpt>
      <trkpt lat="47.25857" lon="-1.58207">
        <ele>29.1</ele>
        <time>2012-01-26T15:35:47Z</time>
      </trkpt>
      <trkpt lat="47.25854" lon="-1.58211">
        <ele>28.8</ele>
        <time>2012-01-26T15:35:50Z</time>
      </trkpt>
      <trkpt lat="47.25852" lon="-1.58215">
        <ele>29.2</ele>
        <time>2012-01-26T15:35:53Z</time>
      </trkpt>
      <trkpt lat="47.25851" lon="-1.58217">
        <ele>29.3</ele>
        <time>2012-01-26T15:35:54Z</time>
      </trkpt>
      <trkpt lat="47.25846" lon="-1.58224">
        <ele>28.7</ele>
        <time>2012-01-26T15:35:59Z</time>
      </trkpt>
      <trkpt lat="47.25844" lon="-1.58228">
        <ele>29.2</ele>
        <time>2012-01-26T15:36:02Z</time>
      </trkpt>
      <trkpt lat="47.25841" lon="-1.58232">
        <ele>29.2</ele>
        <time>2012-01-26T15:36:05Z</time>
      </trkpt>
      <trkpt lat="47.25838" lon="-1.58236">
        <ele>29.2</ele>
        <time>2012-01-26T15:36:08Z</time>
      </trkpt>
      <trkpt lat="47.25835" lon="-1.58241">
        <ele>29.1</ele>
        <time>2012-01-26T15:36:11Z</time>
      </trkpt>
      <trkpt lat="47.25832" lon="-1.58245">
        <ele>29.1</ele>
        <time>2012-01-26T15:36:14Z</time>
      </trkpt>
      <trkpt lat="47.25829" lon="-1.58249">
        <ele>29.2</ele>
        <time>2012-01-26T15:36:17Z</time>
      </trkpt>
      <trkpt lat="47.25827" lon="-1.58253">
        <ele>29</ele>
        <time>2012-01-26T15:36:20Z</time>
      </trkpt>
      <trkpt lat="47.25824" lon="-1.58258">
        <ele>28.7</ele>
        <time>2012-01-26T15:36:23Z</time>
      </trkpt>
      <trkpt lat="47.25821" lon="-1.58262">
        <ele>28.7</ele>
        <time>2012-01-26T15:36:26Z</time>
      </trkpt>
      <trkpt lat="47.25819" lon="-1.58265">
        <ele>28.5</ele>
        <time>2012-01-26T15:36:29Z</time>
      </trkpt>
      <trkpt lat="47.25817" lon="-1.58269">
        <ele>28.6</ele>
        <time>2012-01-26T15:36:32Z</time>
      </trkpt>
      <trkpt lat="47.25814" lon="-1.58273">
        <ele>28.5</ele>
        <time>2012-01-26T15:36:35Z</time>
      </trkpt>
      <trkpt lat="47.25812" lon="-1.58277">
        <ele>28.7</ele>
        <time>2012-01-26T15:36:38Z</time>
      </trkpt>
      <trkpt lat="47.2581" lon="-1.58281">
        <ele>28.5</ele>
        <time>2012-01-26T15:36:41Z</time>
      </trkpt>
      <trkpt lat="47.25807" lon="-1.58285">
        <ele>28.5</ele>
        <time>2012-01-26T15:36:44Z</time>
      </trkpt>
      <trkpt lat="47.25805" lon="-1.58289">
        <ele>28.5</ele>
        <time>2012-01-26T15:36:47Z</time>
      </trkpt>
      <trkpt lat="47.25802" lon="-1.58294">
        <ele>28.7</ele>
        <time>2012-01-26T15:36:51Z</time>
      </trkpt>
      <trkpt lat="47.258" lon="-1.58299">
        <ele>28.3</ele>
        <time>2012-01-26T15:36:55Z</time>
      </trkpt>
      <trkpt lat="47.25799" lon="-1.583">
        <ele>28.5</ele>
        <time>2012-01-26T15:36:56Z</time>
      </trkpt>
      <trkpt lat="47.25795" lon="-1.58308">
        <ele>28.1</ele>
        <time>2012-01-26T15:37:03Z</time>
      </trkpt>
      <trkpt lat="47.25792" lon="-1.58313">
        <ele>28.7</ele>
        <time>2012-01-26T15:37:07Z</time>
      </trkpt>
      <trkpt lat="47.2579" lon="-1.58317">
        <ele>29.2</ele>
        <time>2012-01-26T15:37:10Z</time>
      </trkpt>
      <trkpt lat="47.25787" lon="-1.58321">
        <ele>28.7</ele>
        <time>2012-01-26T15:37:13Z</time>
      </trkpt>
      <trkpt lat="47.25785" lon="-1.58326">
        <ele>28.2</ele>
        <time>2012-01-26T15:37:16Z</time>
      </trkpt>
      <trkpt lat="47.25783" lon="-1.58329">
        <ele>28</ele>
        <time>2012-01-26T15:37:19Z</time>
      </trkpt>
      <trkpt lat="47.25781" lon="-1.58334">
        <ele>28.7</ele>
        <time>2012-01-26T15:37:23Z</time>
      </trkpt>
      <trkpt lat="47.25778" lon="-1.58337">
        <ele>28.2</ele>
        <time>2012-01-26T15:37:26Z</time>
      </trkpt>
      <trkpt lat="47.25775" lon="-1.58341">
        <ele>28.8</ele>
        <time>2012-01-26T15:37:29Z</time>
      </trkpt>
      <trkpt lat="47.25772" lon="-1.58345">
        <ele>28.7</ele>
        <time>2012-01-26T15:37:32Z</time>
      </trkpt>
      <trkpt lat="47.2577" lon="-1.58348">
        <ele>28.2</ele>
        <time>2012-01-26T15:37:35Z</time>
      </trkpt>
      <trkpt lat="47.25767" lon="-1.58353">
        <ele>28.1</ele>
        <time>2012-01-26T15:37:38Z</time>
      </trkpt>
      <trkpt lat="47.25764" lon="-1.58357">
        <ele>27.8</ele>
        <time>2012-01-26T15:37:42Z</time>
      </trkpt>
      <trkpt lat="47.25762" lon="-1.58361">
        <ele>27.3</ele>
        <time>2012-01-26T15:37:45Z</time>
      </trkpt>
      <trkpt lat="47.25759" lon="-1.58365">
        <ele>27.2</ele>
        <time>2012-01-26T15:37:48Z</time>
      </trkpt>
      <trkpt lat="47.25756" lon="-1.58369">
        <ele>27</ele>
        <time>2012-01-26T15:37:51Z</time>
      </trkpt>
      <trkpt lat="47.25753" lon="-1.58372">
        <ele>26.7</ele>
        <time>2012-01-26T15:37:54Z</time>
      </trkpt>
      <trkpt lat="47.2575" lon="-1.58375">
        <ele>26.2</ele>
        <time>2012-01-26T15:37:57Z</time>
      </trkpt>
      <trkpt lat="47.2575" lon="-1.58377">
        <ele>26.2</ele>
        <time>2012-01-26T15:37:58Z</time>
      </trkpt>
      <trkpt lat="47.25746" lon="-1.58382">
        <ele>26.7</ele>
        <time>2012-01-26T15:38:03Z</time>
      </trkpt>
      <trkpt lat="47.25742" lon="-1.58387">
        <ele>26.3</ele>
        <time>2012-01-26T15:38:07Z</time>
      </trkpt>
      <trkpt lat="47.25739" lon="-1.5839">
        <ele>26.6</ele>
        <time>2012-01-26T15:38:10Z</time>
      </trkpt>
      <trkpt lat="47.25736" lon="-1.58393">
        <ele>26.2</ele>
        <time>2012-01-26T15:38:13Z</time>
      </trkpt>
      <trkpt lat="47.25733" lon="-1.58397">
        <ele>25.8</ele>
        <time>2012-01-26T15:38:16Z</time>
      </trkpt>
      <trkpt lat="47.25731" lon="-1.584">
        <ele>26</ele>
        <time>2012-01-26T15:38:19Z</time>
      </trkpt>
      <trkpt lat="47.25727" lon="-1.58404">
        <ele>25.7</ele>
        <time>2012-01-26T15:38:23Z</time>
      </trkpt>
      <trkpt lat="47.25724" lon="-1.58409">
        <ele>25.7</ele>
        <time>2012-01-26T15:38:27Z</time>
      </trkpt>
      <trkpt lat="47.25722" lon="-1.58413">
        <ele>25.3</ele>
        <time>2012-01-26T15:38:31Z</time>
      </trkpt>
      <trkpt lat="47.25718" lon="-1.58416">
        <ele>25.5</ele>
        <time>2012-01-26T15:38:35Z</time>
      </trkpt>
      <trkpt lat="47.25715" lon="-1.58419">
        <ele>25.1</ele>
        <time>2012-01-26T15:38:38Z</time>
      </trkpt>
      <trkpt lat="47.25712" lon="-1.58422">
        <ele>25</ele>
        <time>2012-01-26T15:38:41Z</time>
      </trkpt>
      <trkpt lat="47.25709" lon="-1.58425">
        <ele>25.2</ele>
        <time>2012-01-26T15:38:44Z</time>
      </trkpt>
      <trkpt lat="47.25706" lon="-1.58428">
        <ele>24.7</ele>
        <time>2012-01-26T15:38:47Z</time>
      </trkpt>
      <trkpt lat="47.25704" lon="-1.58431">
        <ele>24.3</ele>
        <time>2012-01-26T15:38:50Z</time>
      </trkpt>
      <trkpt lat="47.257" lon="-1.58435">
        <ele>24.5</ele>
        <time>2012-01-26T15:38:54Z</time>
      </trkpt>
      <trkpt lat="47.25696" lon="-1.58438">
        <ele>24.5</ele>
        <time>2012-01-26T15:38:58Z</time>
      </trkpt>
      <trkpt lat="47.25695" lon="-1.58439">
        <ele>24.5</ele>
        <time>2012-01-26T15:38:59Z</time>
      </trkpt>
      <trkpt lat="47.25689" lon="-1.58443">
        <ele>24.1</ele>
        <time>2012-01-26T15:39:05Z</time>
      </trkpt>
      <trkpt lat="47.25686" lon="-1.58446">
        <ele>23.8</ele>
        <time>2012-01-26T15:39:08Z</time>
      </trkpt>
      <trkpt lat="47.25683" lon="-1.58448">
        <ele>23.2</ele>
        <time>2012-01-26T15:39:11Z</time>
      </trkpt>
      <trkpt lat="47.2568" lon="-1.5845">
        <ele>23.3</ele>
        <time>2012-01-26T15:39:14Z</time>
      </trkpt>
      <trkpt lat="47.25677" lon="-1.58452">
        <ele>23.2</ele>
        <time>2012-01-26T15:39:17Z</time>
      </trkpt>
      <trkpt lat="47.25673" lon="-1.58455">
        <ele>22.7</ele>
        <time>2012-01-26T15:39:20Z</time>
      </trkpt>
      <trkpt lat="47.2567" lon="-1.58457">
        <ele>22.5</ele>
        <time>2012-01-26T15:39:23Z</time>
      </trkpt>
      <trkpt lat="47.25666" lon="-1.58459">
        <ele>23.1</ele>
        <time>2012-01-26T15:39:27Z</time>
      </trkpt>
      <trkpt lat="47.25663" lon="-1.58461">
        <ele>23.6</ele>
        <time>2012-01-26T15:39:30Z</time>
      </trkpt>
      <trkpt lat="47.2566" lon="-1.58463">
        <ele>23</ele>
        <time>2012-01-26T15:39:33Z</time>
      </trkpt>
      <trkpt lat="47.25656" lon="-1.58465">
        <ele>22.7</ele>
        <time>2012-01-26T15:39:36Z</time>
      </trkpt>
      <trkpt lat="47.25653" lon="-1.58467">
        <ele>23.2</ele>
        <time>2012-01-26T15:39:40Z</time>
      </trkpt>
      <trkpt lat="47.25649" lon="-1.58469">
        <ele>22.7</ele>
        <time>2012-01-26T15:39:44Z</time>
      </trkpt>
      <trkpt lat="47.25646" lon="-1.58471">
        <ele>22.6</ele>
        <time>2012-01-26T15:39:47Z</time>
      </trkpt>
      <trkpt lat="47.25642" lon="-1.58473">
        <ele>22.5</ele>
        <time>2012-01-26T15:39:50Z</time>
      </trkpt>
      <trkpt lat="47.25638" lon="-1.58474">
        <ele>22.3</ele>
        <time>2012-01-26T15:39:54Z</time>
      </trkpt>
      <trkpt lat="47.25635" lon="-1.58476">
        <ele>22.5</ele>
        <time>2012-01-26T15:39:57Z</time>
      </trkpt>
      <trkpt lat="47.25631" lon="-1.58477">
        <ele>22.7</ele>
        <time>2012-01-26T15:40:00Z</time>
      </trkpt>
      <trkpt lat="47.2563" lon="-1.58477">
        <ele>22.7</ele>
        <time>2012-01-26T15:40:01Z</time>
      </trkpt>
      <trkpt lat="47.25624" lon="-1.5848">
        <ele>22.7</ele>
        <time>2012-01-26T15:40:07Z</time>
      </trkpt>
      <trkpt lat="47.25621" lon="-1.58482">
        <ele>22.6</ele>
        <time>2012-01-26T15:40:10Z</time>
      </trkpt>
      <trkpt lat="47.25617" lon="-1.58484">
        <ele>22.2</ele>
        <time>2012-01-26T15:40:14Z</time>
      </trkpt>
      <trkpt lat="47.25614" lon="-1.58485">
        <ele>22.1</ele>
        <time>2012-01-26T15:40:17Z</time>
      </trkpt>
      <trkpt lat="47.2561" lon="-1.58487">
        <ele>22.2</ele>
        <time>2012-01-26T15:40:20Z</time>
      </trkpt>
      <trkpt lat="47.25607" lon="-1.58487">
        <ele>22.2</ele>
        <time>2012-01-26T15:40:23Z</time>
      </trkpt>
      <trkpt lat="47.25603" lon="-1.58488">
        <ele>21.7</ele>
        <time>2012-01-26T15:40:26Z</time>
      </trkpt>
      <trkpt lat="47.256" lon="-1.58489">
        <ele>21.2</ele>
        <time>2012-01-26T15:40:29Z</time>
      </trkpt>
      <trkpt lat="47.25596" lon="-1.5849">
        <ele>21.6</ele>
        <time>2012-01-26T15:40:32Z</time>
      </trkpt>
      <trkpt lat="47.25592" lon="-1.58491">
        <ele>22</ele>
        <time>2012-01-26T15:40:35Z</time>
      </trkpt>
      <trkpt lat="47.25589" lon="-1.58492">
        <ele>21.3</ele>
        <time>2012-01-26T15:40:38Z</time>
      </trkpt>
      <trkpt lat="47.25585" lon="-1.58493">
        <ele>21.6</ele>
        <time>2012-01-26T15:40:41Z</time>
      </trkpt>
      <trkpt lat="47.25582" lon="-1.58495">
        <ele>21.2</ele>
        <time>2012-01-26T15:40:44Z</time>
      </trkpt>
      <trkpt lat="47.25579" lon="-1.58496">
        <ele>21.7</ele>
        <time>2012-01-26T15:40:47Z</time>
      </trkpt>
      <trkpt lat="47.25575" lon="-1.58497">
        <ele>21.8</ele>
        <time>2012-01-26T15:40:50Z</time>
      </trkpt>
      <trkpt lat="47.25572" lon="-1.58499">
        <ele>22.5</ele>
        <time>2012-01-26T15:40:53Z</time>
      </trkpt>
      <trkpt lat="47.25568" lon="-1.585">
        <ele>22.5</ele>
        <time>2012-01-26T15:40:56Z</time>
      </trkpt>
      <trkpt lat="47.25564" lon="-1.58501">
        <ele>22.3</ele>
        <time>2012-01-26T15:41:00Z</time>
      </trkpt>
      <trkpt lat="47.2556" lon="-1.58503">
        <ele>23</ele>
        <time>2012-01-26T15:41:04Z</time>
      </trkpt>
      <trkpt lat="47.25559" lon="-1.58503">
        <ele>22.8</ele>
        <time>2012-01-26T15:41:05Z</time>
      </trkpt>
      <trkpt lat="47.25552" lon="-1.58505">
        <ele>22.7</ele>
        <time>2012-01-26T15:41:12Z</time>
      </trkpt>
      <trkpt lat="47.25548" lon="-1.58507">
        <ele>22.2</ele>
        <time>2012-01-26T15:41:16Z</time>
      </trkpt>
      <trkpt lat="47.25544" lon="-1.58508">
        <ele>22</ele>
        <time>2012-01-26T15:41:20Z</time>
      </trkpt>
      <trkpt lat="47.2554" lon="-1.5851">
        <ele>21.7</ele>
        <time>2012-01-26T15:41:23Z</time>
      </trkpt>
      <trkpt lat="47.25536" lon="-1.58511">
        <ele>22</ele>
        <time>2012-01-26T15:41:26Z</time>
      </trkpt>
      <trkpt lat="47.25533" lon="-1.58512">
        <ele>21.7</ele>
        <time>2012-01-26T15:41:29Z</time>
      </trkpt>
      <trkpt lat="47.2553" lon="-1.58514">
        <ele>22.3</ele>
        <time>2012-01-26T15:41:32Z</time>
      </trkpt>
      <trkpt lat="47.25527" lon="-1.58515">
        <ele>21.8</ele>
        <time>2012-01-26T15:41:35Z</time>
      </trkpt>
      <trkpt lat="47.25525" lon="-1.58516">
        <ele>21.8</ele>
        <time>2012-01-26T15:41:36Z</time>
      </trkpt>
      <trkpt lat="47.25521" lon="-1.58517">
        <ele>21.8</ele>
        <time>2012-01-26T15:41:37Z</time>
      </trkpt>
      <trkpt lat="47.25517" lon="-1.58517">
        <ele>22</ele>
        <time>2012-01-26T15:41:40Z</time>
      </trkpt>
      <trkpt lat="47.25513" lon="-1.58518">
        <ele>22</ele>
        <time>2012-01-26T15:41:43Z</time>
      </trkpt>
      <trkpt lat="47.25509" lon="-1.5852">
        <ele>21.3</ele>
        <time>2012-01-26T15:41:46Z</time>
      </trkpt>
      <trkpt lat="47.25506" lon="-1.58521">
        <ele>21.2</ele>
        <time>2012-01-26T15:41:49Z</time>
      </trkpt>
      <trkpt lat="47.25501" lon="-1.58522">
        <ele>21.8</ele>
        <time>2012-01-26T15:41:52Z</time>
      </trkpt>
      <trkpt lat="47.25497" lon="-1.58523">
        <ele>22.2</ele>
        <time>2012-01-26T15:41:55Z</time>
      </trkpt>
      <trkpt lat="47.25494" lon="-1.58523">
        <ele>22.3</ele>
        <time>2012-01-26T15:41:58Z</time>
      </trkpt>
      <trkpt lat="47.25491" lon="-1.58525">
        <ele>22</ele>
        <time>2012-01-26T15:42:01Z</time>
      </trkpt>
      <trkpt lat="47.25487" lon="-1.58525">
        <ele>21.7</ele>
        <time>2012-01-26T15:42:04Z</time>
      </trkpt>
      <trkpt lat="47.25483" lon="-1.58526">
        <ele>21.7</ele>
        <time>2012-01-26T15:42:08Z</time>
      </trkpt>
      <trkpt lat="47.25482" lon="-1.58526">
        <ele>21.7</ele>
        <time>2012-01-26T15:42:09Z</time>
      </trkpt>
      <trkpt lat="47.25475" lon="-1.58527">
        <ele>20.7</ele>
        <time>2012-01-26T15:42:15Z</time>
      </trkpt>
      <trkpt lat="47.25471" lon="-1.58529">
        <ele>21.1</ele>
        <time>2012-01-26T15:42:18Z</time>
      </trkpt>
      <trkpt lat="47.25468" lon="-1.58531">
        <ele>20.7</ele>
        <time>2012-01-26T15:42:21Z</time>
      </trkpt>
      <trkpt lat="47.25466" lon="-1.58535">
        <ele>20.5</ele>
        <time>2012-01-26T15:42:24Z</time>
      </trkpt>
      <trkpt lat="47.25464" lon="-1.58539">
        <ele>20.6</ele>
        <time>2012-01-26T15:42:27Z</time>
      </trkpt>
      <trkpt lat="47.25463" lon="-1.58546">
        <ele>20.3</ele>
        <time>2012-01-26T15:42:32Z</time>
      </trkpt>
      <trkpt lat="47.25463" lon="-1.58551">
        <ele>20.2</ele>
        <time>2012-01-26T15:42:35Z</time>
      </trkpt>
      <trkpt lat="47.25463" lon="-1.58556">
        <ele>20</ele>
        <time>2012-01-26T15:42:38Z</time>
      </trkpt>
      <trkpt lat="47.25462" lon="-1.58562">
        <ele>19.8</ele>
        <time>2012-01-26T15:42:42Z</time>
      </trkpt>
      <trkpt lat="47.25462" lon="-1.58569">
        <ele>19.6</ele>
        <time>2012-01-26T15:42:46Z</time>
      </trkpt>
      <trkpt lat="47.2546" lon="-1.58574">
        <ele>19.6</ele>
        <time>2012-01-26T15:42:52Z</time>
      </trkpt>
      <trkpt lat="47.25457" lon="-1.58578">
        <ele>19.5</ele>
        <time>2012-01-26T15:42:57Z</time>
      </trkpt>
      <trkpt lat="47.25454" lon="-1.58582">
        <ele>19.6</ele>
        <time>2012-01-26T15:43:01Z</time>
      </trkpt>
      <trkpt lat="47.25452" lon="-1.58586">
        <ele>20</ele>
        <time>2012-01-26T15:43:04Z</time>
      </trkpt>
      <trkpt lat="47.25451" lon="-1.58592">
        <ele>20</ele>
        <time>2012-01-26T15:43:07Z</time>
      </trkpt>
      <trkpt lat="47.2545" lon="-1.58597">
        <ele>20.1</ele>
        <time>2012-01-26T15:43:10Z</time>
      </trkpt>
      <trkpt lat="47.25449" lon="-1.58599">
        <ele>20.2</ele>
        <time>2012-01-26T15:43:11Z</time>
      </trkpt>
      <trkpt lat="47.25446" lon="-1.58608">
        <ele>20.2</ele>
        <time>2012-01-26T15:43:16Z</time>
      </trkpt>
      <trkpt lat="47.25444" lon="-1.58613">
        <ele>19.8</ele>
        <time>2012-01-26T15:43:19Z</time>
      </trkpt>
      <trkpt lat="47.25442" lon="-1.58619">
        <ele>20</ele>
        <time>2012-01-26T15:43:23Z</time>
      </trkpt>
      <trkpt lat="47.25441" lon="-1.58624">
        <ele>20.6</ele>
        <time>2012-01-26T15:43:29Z</time>
      </trkpt>
      <trkpt lat="47.25438" lon="-1.58629">
        <ele>20.8</ele>
        <time>2012-01-26T15:43:34Z</time>
      </trkpt>
      <trkpt lat="47.25435" lon="-1.58634">
        <ele>20.2</ele>
        <time>2012-01-26T15:43:38Z</time>
      </trkpt>
      <trkpt lat="47.25432" lon="-1.58637">
        <ele>19.7</ele>
        <time>2012-01-26T15:43:41Z</time>
      </trkpt>
      <trkpt lat="47.2543" lon="-1.58642">
        <ele>19.6</ele>
        <time>2012-01-26T15:43:44Z</time>
      </trkpt>
      <trkpt lat="47.25427" lon="-1.58646">
        <ele>19</ele>
        <time>2012-01-26T15:43:47Z</time>
      </trkpt>
      <trkpt lat="47.25424" lon="-1.58651">
        <ele>18.6</ele>
        <time>2012-01-26T15:43:50Z</time>
      </trkpt>
      <trkpt lat="47.2542" lon="-1.58655">
        <ele>18.3</ele>
        <time>2012-01-26T15:43:53Z</time>
      </trkpt>
      <trkpt lat="47.25417" lon="-1.58658">
        <ele>18</ele>
        <time>2012-01-26T15:43:56Z</time>
      </trkpt>
      <trkpt lat="47.25414" lon="-1.58662">
        <ele>17.3</ele>
        <time>2012-01-26T15:43:59Z</time>
      </trkpt>
      <trkpt lat="47.25411" lon="-1.58665">
        <ele>16.5</ele>
        <time>2012-01-26T15:44:02Z</time>
      </trkpt>
      <trkpt lat="47.25408" lon="-1.58667">
        <ele>16</ele>
        <time>2012-01-26T15:44:05Z</time>
      </trkpt>
      <trkpt lat="47.25404" lon="-1.58671">
        <ele>15.6</ele>
        <time>2012-01-26T15:44:09Z</time>
      </trkpt>
      <trkpt lat="47.25401" lon="-1.58673">
        <ele>15.3</ele>
        <time>2012-01-26T15:44:13Z</time>
      </trkpt>
      <trkpt lat="47.254" lon="-1.58674">
        <ele>15.1</ele>
        <time>2012-01-26T15:44:14Z</time>
      </trkpt>
      <trkpt lat="47.25394" lon="-1.58679">
        <ele>13.1</ele>
        <time>2012-01-26T15:44:22Z</time>
      </trkpt>
      <trkpt lat="47.2539" lon="-1.58682">
        <ele>12.6</ele>
        <time>2012-01-26T15:44:28Z</time>
      </trkpt>
      <trkpt lat="47.25386" lon="-1.58685">
        <ele>11.8</ele>
        <time>2012-01-26T15:44:33Z</time>
      </trkpt>
      <trkpt lat="47.25383" lon="-1.58687">
        <ele>11.3</ele>
        <time>2012-01-26T15:44:38Z</time>
      </trkpt>
      <trkpt lat="47.25379" lon="-1.5869">
        <ele>10.6</ele>
        <time>2012-01-26T15:44:43Z</time>
      </trkpt>
      <trkpt lat="47.25375" lon="-1.58693">
        <ele>9</ele>
        <time>2012-01-26T15:44:48Z</time>
      </trkpt>
      <trkpt lat="47.25371" lon="-1.58695">
        <ele>8.8</ele>
        <time>2012-01-26T15:44:52Z</time>
      </trkpt>
      <trkpt lat="47.25368" lon="-1.58698">
        <ele>8.1</ele>
        <time>2012-01-26T15:44:56Z</time>
      </trkpt>
      <trkpt lat="47.25365" lon="-1.58703">
        <ele>8.5</ele>
        <time>2012-01-26T15:45:00Z</time>
      </trkpt>
      <trkpt lat="47.25363" lon="-1.58708">
        <ele>7.5</ele>
        <time>2012-01-26T15:45:04Z</time>
      </trkpt>
      <trkpt lat="47.2536" lon="-1.58712">
        <ele>7.5</ele>
        <time>2012-01-26T15:45:08Z</time>
      </trkpt>
      <trkpt lat="47.25357" lon="-1.58716">
        <ele>7.4</ele>
        <time>2012-01-26T15:45:12Z</time>
      </trkpt>
      <trkpt lat="47.25354" lon="-1.58719">
        <ele>6.6</ele>
        <time>2012-01-26T15:45:14Z</time>
      </trkpt>
      <trkpt lat="47.25352" lon="-1.5872">
        <ele>6.5</ele>
        <time>2012-01-26T15:45:15Z</time>
      </trkpt>
      <trkpt lat="47.25347" lon="-1.58725">
        <ele>6</ele>
        <time>2012-01-26T15:45:20Z</time>
      </trkpt>
      <trkpt lat="47.25345" lon="-1.58728">
        <ele>5.4</ele>
        <time>2012-01-26T15:45:23Z</time>
      </trkpt>
      <trkpt lat="47.25342" lon="-1.58732">
        <ele>4.8</ele>
        <time>2012-01-26T15:45:26Z</time>
      </trkpt>
      <trkpt lat="47.25338" lon="-1.58735">
        <ele>3.5</ele>
        <time>2012-01-26T15:45:30Z</time>
      </trkpt>
      <trkpt lat="47.25334" lon="-1.58738">
        <ele>3.4</ele>
        <time>2012-01-26T15:45:33Z</time>
      </trkpt>
      <trkpt lat="47.25331" lon="-1.58739">
        <ele>3.4</ele>
        <time>2012-01-26T15:45:35Z</time>
      </trkpt>
      <trkpt lat="47.25327" lon="-1.58742">
        <ele>1.2</ele>
        <time>2012-01-26T15:45:39Z</time>
      </trkpt>
      <trkpt lat="47.25325" lon="-1.58747">
        <ele>0.6</ele>
        <time>2012-01-26T15:45:44Z</time>
      </trkpt>
      <trkpt lat="47.25323" lon="-1.58751">
        <ele>0.8</ele>
        <time>2012-01-26T15:45:48Z</time>
      </trkpt>
      <trkpt lat="47.25321" lon="-1.58757">
        <ele>0.6</ele>
        <time>2012-01-26T15:45:52Z</time>
      </trkpt>
      <trkpt lat="47.2532" lon="-1.58763">
        <ele>0.4</ele>
        <time>2012-01-26T15:45:56Z</time>
      </trkpt>
      <trkpt lat="47.2532" lon="-1.58768">
        <ele>14.2</ele>
        <time>2012-01-26T15:45:59Z</time>
      </trkpt>
      <trkpt lat="47.25318" lon="-1.58773">
        <ele>-0.4</ele>
        <time>2012-01-26T15:46:02Z</time>
      </trkpt>
      <trkpt lat="47.25317" lon="-1.58778">
        <ele>-0.5</ele>
        <time>2012-01-26T15:46:05Z</time>
      </trkpt>
      <trkpt lat="47.25315" lon="-1.58784">
        <ele>-1.5</ele>
        <time>2012-01-26T15:46:09Z</time>
      </trkpt>
      <trkpt lat="47.25313" lon="-1.58789">
        <ele>-2</ele>
        <time>2012-01-26T15:46:12Z</time>
      </trkpt>
      <trkpt lat="47.25312" lon="-1.58794">
        <ele>-2.9</ele>
        <time>2012-01-26T15:46:15Z</time>
      </trkpt>
      <trkpt lat="47.25311" lon="-1.58796">
        <ele>-3</ele>
        <time>2012-01-26T15:46:16Z</time>
      </trkpt>
      <trkpt lat="47.25309" lon="-1.58806">
        <ele>-3</ele>
        <time>2012-01-26T15:46:21Z</time>
      </trkpt>
      <trkpt lat="47.25307" lon="-1.58812">
        <ele>-3.2</ele>
        <time>2012-01-26T15:46:24Z</time>
      </trkpt>
      <trkpt lat="47.25306" lon="-1.58817">
        <ele>-3.5</ele>
        <time>2012-01-26T15:46:27Z</time>
      </trkpt>
      <trkpt lat="47.25304" lon="-1.58822">
        <ele>-3.5</ele>
        <time>2012-01-26T15:46:30Z</time>
      </trkpt>
      <trkpt lat="47.25302" lon="-1.58826">
        <ele>-3.4</ele>
        <time>2012-01-26T15:46:33Z</time>
      </trkpt>
      <trkpt lat="47.25299" lon="-1.58829">
        <ele>-3.4</ele>
        <time>2012-01-26T15:46:36Z</time>
      </trkpt>
      <trkpt lat="47.25295" lon="-1.58832">
        <ele>-3.7</ele>
        <time>2012-01-26T15:46:40Z</time>
      </trkpt>
      <trkpt lat="47.25292" lon="-1.58833">
        <ele>-3.5</ele>
        <time>2012-01-26T15:46:43Z</time>
      </trkpt>
      <trkpt lat="47.25288" lon="-1.58834">
        <ele>-3.4</ele>
        <time>2012-01-26T15:46:47Z</time>
      </trkpt>
      <trkpt lat="47.25284" lon="-1.58835">
        <ele>-3.7</ele>
        <time>2012-01-26T15:46:51Z</time>
      </trkpt>
      <trkpt lat="47.2528" lon="-1.58835">
        <ele>-3.2</ele>
        <time>2012-01-26T15:46:54Z</time>
      </trkpt>
      <trkpt lat="47.25277" lon="-1.58835">
        <ele>-3.4</ele>
        <time>2012-01-26T15:46:57Z</time>
      </trkpt>
      <trkpt lat="47.25274" lon="-1.58833">
        <ele>-3.2</ele>
        <time>2012-01-26T15:47:00Z</time>
      </trkpt>
      <trkpt lat="47.25269" lon="-1.58832">
        <ele>-3</ele>
        <time>2012-01-26T15:47:04Z</time>
      </trkpt>
      <trkpt lat="47.25266" lon="-1.5883">
        <ele>-3.7</ele>
        <time>2012-01-26T15:47:07Z</time>
      </trkpt>
      <trkpt lat="47.25262" lon="-1.58829">
        <ele>-3.2</ele>
        <time>2012-01-26T15:47:11Z</time>
      </trkpt>
      <trkpt lat="47.25258" lon="-1.58828">
        <ele>-3</ele>
        <time>2012-01-26T15:47:15Z</time>
      </trkpt>
      <trkpt lat="47.25254" lon="-1.58828">
        <ele>-3</ele>
        <time>2012-01-26T15:47:20Z</time>
      </trkpt>
      <trkpt lat="47.25253" lon="-1.58828">
        <ele>-2.9</ele>
        <time>2012-01-26T15:47:21Z</time>
      </trkpt>
      <trkpt lat="47.25247" lon="-1.58836">
        <ele>-3.2</ele>
        <time>2012-01-26T15:47:31Z</time>
      </trkpt>
      <trkpt lat="47.25244" lon="-1.5884">
        <ele>-2</ele>
        <time>2012-01-26T15:47:36Z</time>
      </trkpt>
      <trkpt lat="47.25242" lon="-1.58845">
        <ele>-1.5</ele>
        <time>2012-01-26T15:47:40Z</time>
      </trkpt>
      <trkpt lat="47.2524" lon="-1.58849">
        <ele>-1.1</ele>
        <time>2012-01-26T15:47:44Z</time>
      </trkpt>
      <trkpt lat="47.25238" lon="-1.58854">
        <ele>-1.3</ele>
        <time>2012-01-26T15:47:49Z</time>
      </trkpt>
      <trkpt lat="47.25236" lon="-1.58859">
        <ele>-0.8</ele>
        <time>2012-01-26T15:47:53Z</time>
      </trkpt>
      <trkpt lat="47.25234" lon="-1.58865">
        <ele>-0.4</ele>
        <time>2012-01-26T15:47:58Z</time>
      </trkpt>
      <trkpt lat="47.25232" lon="-1.58869">
        <ele>0.8</ele>
        <time>2012-01-26T15:48:02Z</time>
      </trkpt>
      <trkpt lat="47.2523" lon="-1.58874">
        <ele>1.7</ele>
        <time>2012-01-26T15:48:06Z</time>
      </trkpt>
      <trkpt lat="47.25228" lon="-1.5888">
        <ele>2</ele>
        <time>2012-01-26T15:48:11Z</time>
      </trkpt>
      <trkpt lat="47.25226" lon="-1.58884">
        <ele>2.7</ele>
        <time>2012-01-26T15:48:17Z</time>
      </trkpt>
      <trkpt lat="47.25222" lon="-1.58887">
        <ele>2.7</ele>
        <time>2012-01-26T15:48:23Z</time>
      </trkpt>
      <trkpt lat="47.25221" lon="-1.58887">
        <ele>2.7</ele>
        <time>2012-01-26T15:48:24Z</time>
      </trkpt>
      <trkpt lat="47.25214" lon="-1.58888">
        <ele>4.6</ele>
        <time>2012-01-26T15:48:35Z</time>
      </trkpt>
      <trkpt lat="47.2521" lon="-1.58885">
        <ele>5</ele>
        <time>2012-01-26T15:48:41Z</time>
      </trkpt>
      <trkpt lat="47.25206" lon="-1.58884">
        <ele>6.5</ele>
        <time>2012-01-26T15:48:47Z</time>
      </trkpt>
      <trkpt lat="47.25203" lon="-1.58882">
        <ele>7</ele>
        <time>2012-01-26T15:48:52Z</time>
      </trkpt>
      <trkpt lat="47.25199" lon="-1.5888">
        <ele>6.6</ele>
        <time>2012-01-26T15:48:56Z</time>
      </trkpt>
      <trkpt lat="47.25195" lon="-1.58879">
        <ele>7.3</ele>
        <time>2012-01-26T15:49:00Z</time>
      </trkpt>
      <trkpt lat="47.25192" lon="-1.58879">
        <ele>7.3</ele>
        <time>2012-01-26T15:49:04Z</time>
      </trkpt>
      <trkpt lat="47.25188" lon="-1.58878">
        <ele>8</ele>
        <time>2012-01-26T15:49:09Z</time>
      </trkpt>
      <trkpt lat="47.25183" lon="-1.5888">
        <ele>8.6</ele>
        <time>2012-01-26T15:49:14Z</time>
      </trkpt>
      <trkpt lat="47.2518" lon="-1.58881">
        <ele>9</ele>
        <time>2012-01-26T15:49:19Z</time>
      </trkpt>
      <trkpt lat="47.25175" lon="-1.58881">
        <ele>8.8</ele>
        <time>2012-01-26T15:49:25Z</time>
      </trkpt>
      <trkpt lat="47.25175" lon="-1.58881">
        <ele>8.8</ele>
        <time>2012-01-26T15:49:26Z</time>
      </trkpt>
      <trkpt lat="47.25167" lon="-1.58885">
        <ele>10.3</ele>
        <time>2012-01-26T15:49:39Z</time>
      </trkpt>
      <trkpt lat="47.25163" lon="-1.58884">
        <ele>11.6</ele>
        <time>2012-01-26T15:49:47Z</time>
      </trkpt>
      <trkpt lat="47.2516" lon="-1.58881">
        <ele>11.6</ele>
        <time>2012-01-26T15:50:11Z</time>
      </trkpt>
      <trkpt lat="47.25156" lon="-1.58877">
        <ele>12.3</ele>
        <time>2012-01-26T15:50:32Z</time>
      </trkpt>
      <trkpt lat="47.25156" lon="-1.58877">
        <ele>11.8</ele>
        <time>2012-01-26T15:50:33Z</time>
      </trkpt>
      <trkpt lat="47.25157" lon="-1.58879">
        <ele>12.1</ele>
        <time>2012-01-26T15:50:46Z</time>
      </trkpt>
    </trkseg>
  </trk>
</gpx>